Wetterdaten: Dienstag, 01.05.2018
Datum Zeit Temp. A. Feuchte A. Luftdruck Regen Wind Richtung Richtung Sonnenschein ET UV Solar Taupunkt Windchill Windböen
01.05.2018 00:00 9,1 °C 73 % 1008,1 hPa 0,0 mm 0,0 km/h (0 Bft) W 279 ° 0 min 0,000 mm 0,0 UV-I 0 W/m² 4,5 °C 9,1 °C 0,0 km/h (0 Bft)
01.05.2018 00:01 9,1 °C 74 % 1008,1 hPa 0,0 mm 0,0 km/h (0 Bft) W 279 ° 0 min 0,000 mm 0,0 UV-I 0 W/m² 4,7 °C 9,1 °C 0,0 km/h (0 Bft)
01.05.2018 00:02 9,1 °C 75 % 1008,1 hPa 0,0 mm 0,0 km/h (0 Bft) W 279 ° 0 min 0,000 mm 0,0 UV-I 0 W/m² 4,9 °C 9,1 °C 0,0 km/h (0 Bft)
01.05.2018 00:03 9,0 °C 75 % 1008,1 hPa 0,0 mm 0,0 km/h (0 Bft) W 279 ° 0 min 0,000 mm 0,0 UV-I 0 W/m² 4,8 °C 9,0 °C 0,0 km/h (0 Bft)
01.05.2018 00:04 8,9 °C 76 % 1008,1 hPa 0,0 mm 0,0 km/h (0 Bft) W 279 ° 0 min 0,000 mm 0,0 UV-I 0 W/m² 4,9 °C 8,9 °C 0,0 km/h (0 Bft)
01.05.2018 00:05 8,8 °C 77 % 1008,1 hPa 0,0 mm 0,0 km/h (0 Bft) W 279 ° 0 min 0,000 mm 0,0 UV-I 0 W/m² 5,0 °C 8,8 °C 0,0 km/h (0 Bft)
01.05.2018 00:06 8,8 °C 78 % 1008,1 hPa 0,0 mm 0,0 km/h (0 Bft) W 279 ° 0 min 0,000 mm 0,0 UV-I 0 W/m² 5,2 °C 8,8 °C 0,0 km/h (0 Bft)
01.05.2018 00:07 8,8 °C 78 % 1008,1 hPa 0,0 mm 0,0 km/h (0 Bft) W 279 ° 0 min 0,000 mm 0,0 UV-I 0 W/m² 5,2 °C 8,8 °C 0,0 km/h (0 Bft)
01.05.2018 00:08 8,8 °C 77 % 1008,1 hPa 0,0 mm 0,0 km/h (0 Bft) W 279 ° 0 min 0,000 mm 0,0 UV-I 0 W/m² 5,0 °C 8,8 °C 0,0 km/h (0 Bft)
01.05.2018 00:09 8,8 °C 76 % 1008,2 hPa 0,0 mm 0,0 km/h (0 Bft) W 279 ° 0 min 0,000 mm 0,0 UV-I 0 W/m² 4,8 °C 8,8 °C 0,0 km/h (0 Bft)
01.05.2018 00:10 8,8 °C 74 % 1008,2 hPa 0,0 mm 0,0 km/h (0 Bft) W 279 ° 0 min 0,000 mm 0,0 UV-I 0 W/m² 4,4 °C 8,8 °C 0,0 km/h (0 Bft)
01.05.2018 00:11 8,9 °C 74 % 1008,2 hPa 0,0 mm 0,0 km/h (0 Bft) W 279 ° 0 min 0,000 mm 0,0 UV-I 0 W/m² 4,5 °C 8,9 °C 0,0 km/h (0 Bft)
01.05.2018 00:12 9,0 °C 73 % 1008,2 hPa 0,0 mm 0,0 km/h (0 Bft) W 279 ° 0 min 0,000 mm 0,0 UV-I 0 W/m² 4,4 °C 9,0 °C 0,0 km/h (0 Bft)
01.05.2018 00:13 9,1 °C 73 % 1008,3 hPa 0,0 mm 0,4 km/h (0 Bft) W 279 ° 0 min 0,000 mm 0,0 UV-I 0 W/m² 4,5 °C 9,1 °C 1,6 km/h (1 Bft)
01.05.2018 00:14 9,2 °C 72 % 1008,2 hPa 0,0 mm 0,1 km/h (0 Bft) W 279 ° 0 min 0,000 mm 0,0 UV-I 0 W/m² 4,4 °C 9,2 °C 1,6 km/h (1 Bft)
01.05.2018 00:15 9,2 °C 72 % 1008,2 hPa 0,0 mm 0,0 km/h (0 Bft) W 279 ° 0 min 0,000 mm 0,0 UV-I 0 W/m² 4,4 °C 9,2 °C 0,0 km/h (0 Bft)
01.05.2018 00:16 9,3 °C 72 % 1008,3 hPa 0,0 mm 0,5 km/h (0 Bft) W 279 ° 0 min 0,000 mm 0,0 UV-I 0 W/m² 4,5 °C 9,3 °C 1,6 km/h (1 Bft)
01.05.2018 00:17 9,3 °C 72 % 1008,3 hPa 0,0 mm 1,2 km/h (1 Bft) W 279 ° 0 min 0,000 mm 0,0 UV-I 0 W/m² 4,5 °C 9,3 °C 3,2 km/h (1 Bft)
01.05.2018 00:18 9,3 °C 72 % 1008,2 hPa 0,0 mm 0,0 km/h (0 Bft) W 279 ° 0 min 0,000 mm 0,0 UV-I 0 W/m² 4,5 °C 9,3 °C 0,0 km/h (0 Bft)
01.05.2018 00:19 9,4 °C 72 % 1008,3 hPa 0,0 mm 0,7 km/h (0 Bft) W 279 ° 0 min 0,000 mm 0,0 UV-I 0 W/m² 4,6 °C 9,4 °C 3,2 km/h (1 Bft)
01.05.2018 00:20 9,4 °C 72 % 1008,3 hPa 0,0 mm 0,0 km/h (0 Bft) W 279 ° 0 min 0,000 mm 0,0 UV-I 0 W/m² 4,6 °C 9,4 °C 0,0 km/h (0 Bft)
01.05.2018 00:21 9,4 °C 72 % 1008,3 hPa 0,0 mm 0,0 km/h (0 Bft) W 279 ° 0 min 0,000 mm 0,0 UV-I 0 W/m² 4,6 °C 9,4 °C 0,0 km/h (0 Bft)
01.05.2018 00:22 9,4 °C 72 % 1008,3 hPa 0,0 mm 0,0 km/h (0 Bft) W 279 ° 0 min 0,000 mm 0,0 UV-I 0 W/m² 4,6 °C 9,4 °C 0,0 km/h (0 Bft)
01.05.2018 00:23 9,4 °C 73 % 1008,3 hPa 0,0 mm 0,0 km/h (0 Bft) W 279 ° 0 min 0,000 mm 0,0 UV-I 0 W/m² 4,8 °C 9,4 °C 0,0 km/h (0 Bft)
01.05.2018 00:24 9,3 °C 73 % 1008,3 hPa 0,0 mm 0,0 km/h (0 Bft) W 279 ° 0 min 0,000 mm 0,0 UV-I 0 W/m² 4,7 °C 9,3 °C 0,0 km/h (0 Bft)
01.05.2018 00:25 9,3 °C 73 % 1008,4 hPa 0,0 mm 0,0 km/h (0 Bft) W 279 ° 0 min 0,000 mm 0,0 UV-I 0 W/m² 4,7 °C 9,3 °C 0,0 km/h (0 Bft)
01.05.2018 00:26 9,2 °C 74 % 1008,4 hPa 0,0 mm 0,0 km/h (0 Bft) W 279 ° 0 min 0,000 mm 0,0 UV-I 0 W/m² 4,8 °C 9,2 °C 0,0 km/h (0 Bft)
01.05.2018 00:27 9,2 °C 74 % 1008,4 hPa 0,0 mm 0,0 km/h (0 Bft) W 279 ° 0 min 0,000 mm 0,0 UV-I 0 W/m² 4,8 °C 9,2 °C 0,0 km/h (0 Bft)
01.05.2018 00:28 9,2 °C 72 % 1008,4 hPa 0,0 mm 0,6 km/h (0 Bft) W 279 ° 0 min 0,000 mm 0,0 UV-I 0 W/m² 4,4 °C 9,2 °C 3,2 km/h (1 Bft)
01.05.2018 00:29 9,3 °C 71 % 1008,4 hPa 0,0 mm 0,1 km/h (0 Bft) W 279 ° 0 min 0,000 mm 0,0 UV-I 0 W/m² 4,3 °C 9,3 °C 1,6 km/h (1 Bft)
01.05.2018 00:30 9,3 °C 71 % 1008,5 hPa 0,0 mm 0,4 km/h (0 Bft) W 279 ° 0 min 0,000 mm 0,0 UV-I 0 W/m² 4,3 °C 9,3 °C 1,6 km/h (1 Bft)
01.05.2018 00:31 9,4 °C 69 % 1008,5 hPa 0,0 mm 1,1 km/h (1 Bft) W 279 ° 0 min 0,000 mm 0,0 UV-I 0 W/m² 4,0 °C 9,4 °C 3,2 km/h (1 Bft)
01.05.2018 00:32 9,6 °C 69 % 1008,4 hPa 0,0 mm 0,1 km/h (0 Bft) W 279 ° 0 min 0,000 mm 0,0 UV-I 0 W/m² 4,2 °C 9,6 °C 1,6 km/h (1 Bft)
01.05.2018 00:33 9,6 °C 69 % 1008,4 hPa 0,0 mm 0,0 km/h (0 Bft) W 279 ° 0 min 0,000 mm 0,0 UV-I 0 W/m² 4,2 °C 9,6 °C 0,0 km/h (0 Bft)
01.05.2018 00:34 9,7 °C 68 % 1008,5 hPa 0,0 mm 0,5 km/h (0 Bft) W 279 ° 0 min 0,000 mm 0,0 UV-I 0 W/m² 4,1 °C 9,7 °C 3,2 km/h (1 Bft)
01.05.2018 00:35 9,7 °C 69 % 1008,5 hPa 0,0 mm 0,7 km/h (0 Bft) W 279 ° 0 min 0,000 mm 0,0 UV-I 0 W/m² 4,3 °C 9,7 °C 1,6 km/h (1 Bft)
01.05.2018 00:36 9,7 °C 68 % 1008,5 hPa 0,0 mm 1,3 km/h (1 Bft) W-SW 240 ° 0 min 0,000 mm 0,0 UV-I 0 W/m² 4,1 °C 9,7 °C 3,2 km/h (1 Bft)
01.05.2018 00:37 9,8 °C 68 % 1008,5 hPa 0,0 mm 2,7 km/h (1 Bft) W-SW 240 ° 0 min 0,000 mm 0,0 UV-I 0 W/m² 4,2 °C 9,8 °C 4,8 km/h (1 Bft)
01.05.2018 00:38 9,8 °C 68 % 1008,5 hPa 0,0 mm 1,4 km/h (1 Bft) SW 233 ° 0 min 0,000 mm 0,0 UV-I 0 W/m² 4,2 °C 9,8 °C 4,8 km/h (1 Bft)
01.05.2018 00:39 9,8 °C 69 % 1008,5 hPa 0,0 mm 2,3 km/h (1 Bft) SW 233 ° 0 min 0,000 mm 0,0 UV-I 0 W/m² 4,4 °C 9,8 °C 4,8 km/h (1 Bft)
01.05.2018 00:40 9,8 °C 68 % 1008,6 hPa 0,0 mm 1,0 km/h (0 Bft) SW 233 ° 0 min 0,000 mm 0,0 UV-I 0 W/m² 4,2 °C 9,8 °C 3,2 km/h (1 Bft)
01.05.2018 00:41 9,8 °C 68 % 1008,6 hPa 0,0 mm 1,0 km/h (0 Bft) SW 233 ° 0 min 0,000 mm 0,0 UV-I 0 W/m² 4,2 °C 9,8 °C 3,2 km/h (1 Bft)
01.05.2018 00:42 9,8 °C 68 % 1008,6 hPa 0,0 mm 1,5 km/h (1 Bft) SW 233 ° 0 min 0,000 mm 0,0 UV-I 0 W/m² 4,2 °C 9,8 °C 3,2 km/h (1 Bft)
01.05.2018 00:43 9,8 °C 67 % 1008,6 hPa 0,0 mm 0,2 km/h (0 Bft) SW 233 ° 0 min 0,000 mm 0,0 UV-I 0 W/m² 4,0 °C 9,8 °C 1,6 km/h (1 Bft)
01.05.2018 00:44 9,8 °C 67 % 1008,6 hPa 0,0 mm 0,0 km/h (0 Bft) SW 233 ° 0 min 0,000 mm 0,0 UV-I 0 W/m² 4,0 °C 9,8 °C 0,0 km/h (0 Bft)
01.05.2018 00:45 9,9 °C 66 % 1008,6 hPa 0,0 mm 0,1 km/h (0 Bft) SW 233 ° 0 min 0,000 mm 0,0 UV-I 0 W/m² 3,9 °C 9,9 °C 1,6 km/h (1 Bft)
01.05.2018 00:46 9,9 °C 66 % 1008,6 hPa 0,0 mm 1,0 km/h (0 Bft) SW 233 ° 0 min 0,000 mm 0,0 UV-I 0 W/m² 3,9 °C 9,9 °C 3,2 km/h (1 Bft)
01.05.2018 00:47 9,9 °C 67 % 1008,6 hPa 0,0 mm 1,0 km/h (0 Bft) SW 233 ° 0 min 0,000 mm 0,0 UV-I 0 W/m² 4,1 °C 9,9 °C 3,2 km/h (1 Bft)
01.05.2018 00:48 9,9 °C 66 % 1008,6 hPa 0,0 mm 0,0 km/h (0 Bft) SW 233 ° 0 min 0,000 mm 0,0 UV-I 0 W/m² 3,9 °C 9,9 °C 0,0 km/h (0 Bft)
01.05.2018 00:49 9,9 °C 67 % 1008,6 hPa 0,0 mm 0,0 km/h (0 Bft) SW 233 ° 0 min 0,000 mm 0,0 UV-I 0 W/m² 4,1 °C 9,9 °C 0,0 km/h (0 Bft)
01.05.2018 00:50 9,9 °C 67 % 1008,6 hPa 0,0 mm 0,0 km/h (0 Bft) SW 233 ° 0 min 0,000 mm 0,0 UV-I 0 W/m² 4,1 °C 9,9 °C 0,0 km/h (0 Bft)
01.05.2018 00:51 9,9 °C 66 % 1008,6 hPa 0,0 mm 0,0 km/h (0 Bft) SW 233 ° 0 min 0,000 mm 0,0 UV-I 0 W/m² 3,9 °C 9,9 °C 0,0 km/h (0 Bft)
01.05.2018 00:52 9,8 °C 68 % 1008,7 hPa 0,0 mm 0,0 km/h (0 Bft) SW 233 ° 0 min 0,000 mm 0,0 UV-I 0 W/m² 4,2 °C 9,8 °C 0,0 km/h (0 Bft)
01.05.2018 00:53 9,9 °C 67 % 1008,7 hPa 0,0 mm 0,6 km/h (0 Bft) SW 233 ° 0 min 0,000 mm 0,0 UV-I 0 W/m² 4,1 °C 9,9 °C 1,6 km/h (1 Bft)
01.05.2018 00:54 9,8 °C 67 % 1008,7 hPa 0,0 mm 0,0 km/h (0 Bft) SW 233 ° 0 min 0,000 mm 0,0 UV-I 0 W/m² 4,0 °C 9,8 °C 0,0 km/h (0 Bft)
01.05.2018 00:55 9,9 °C 66 % 1008,7 hPa 0,0 mm 0,0 km/h (0 Bft) SW 233 ° 0 min 0,000 mm 0,0 UV-I 0 W/m² 3,9 °C 9,9 °C 0,0 km/h (0 Bft)
01.05.2018 00:56 9,9 °C 66 % 1008,7 hPa 0,0 mm 0,6 km/h (0 Bft) SW 233 ° 0 min 0,000 mm 0,0 UV-I 0 W/m² 3,9 °C 9,9 °C 3,2 km/h (1 Bft)
01.05.2018 00:57 9,9 °C 67 % 1008,7 hPa 0,0 mm 0,5 km/h (0 Bft) W-SW 250 ° 0 min 0,000 mm 0,0 UV-I 0 W/m² 4,1 °C 9,9 °C 4,8 km/h (1 Bft)
01.05.2018 00:58 9,9 °C 67 % 1008,8 hPa 0,0 mm 3,6 km/h (1 Bft) W-SW 253 ° 0 min 0,000 mm 0,0 UV-I 0 W/m² 4,1 °C 9,9 °C 6,4 km/h (2 Bft)
01.05.2018 00:59 9,9 °C 68 % 1008,9 hPa 0,0 mm 5,5 km/h (1 Bft) W-SW 252 ° 0 min 0,000 mm 0,0 UV-I 0 W/m² 4,3 °C 9,5 °C 9,7 km/h (2 Bft)
01.05.2018 01:00 9,8 °C 68 % 1008,9 hPa 0,0 mm 4,6 km/h (1 Bft) W 263 ° 0 min 0,000 mm 0,0 UV-I 0 W/m² 4,2 °C 9,7 °C 6,4 km/h (2 Bft)
01.05.2018 01:01 9,8 °C 67 % 1008,8 hPa 0,0 mm 1,3 km/h (1 Bft) W 263 ° 0 min 0,025 mm 0,0 UV-I 0 W/m² 4,0 °C 9,8 °C 3,2 km/h (1 Bft)
01.05.2018 01:02 9,8 °C 68 % 1008,8 hPa 0,0 mm 1,8 km/h (1 Bft) W 263 ° 0 min 0,000 mm 0,0 UV-I 0 W/m² 4,2 °C 9,8 °C 3,2 km/h (1 Bft)
01.05.2018 01:03 9,8 °C 68 % 1008,8 hPa 0,0 mm 1,1 km/h (1 Bft) W 263 ° 0 min 0,000 mm 0,0 UV-I 0 W/m² 4,2 °C 9,8 °C 4,8 km/h (1 Bft)
01.05.2018 01:04 9,7 °C 68 % 1008,7 hPa 0,0 mm 5,2 km/h (1 Bft) W 263 ° 0 min 0,000 mm 0,0 UV-I 0 W/m² 4,1 °C 9,4 °C 8,0 km/h (2 Bft)
01.05.2018 01:05 9,8 °C 66 % 1008,7 hPa 0,0 mm 2,5 km/h (1 Bft) W 270 ° 0 min 0,000 mm 0,0 UV-I 0 W/m² 3,8 °C 9,8 °C 9,7 km/h (2 Bft)
01.05.2018 01:06 9,8 °C 66 % 1008,7 hPa 0,0 mm 2,8 km/h (1 Bft) W 265 ° 0 min 0,000 mm 0,0 UV-I 0 W/m² 3,8 °C 9,8 °C 6,4 km/h (2 Bft)
01.05.2018 01:07 9,8 °C 66 % 1008,7 hPa 0,0 mm 1,5 km/h (1 Bft) W 261 ° 0 min 0,000 mm 0,0 UV-I 0 W/m² 3,8 °C 9,8 °C 4,8 km/h (1 Bft)
01.05.2018 01:08 9,8 °C 68 % 1008,7 hPa 0,0 mm 2,5 km/h (1 Bft) W 262 ° 0 min 0,000 mm 0,0 UV-I 0 W/m² 4,2 °C 9,8 °C 4,8 km/h (1 Bft)
01.05.2018 01:09 9,7 °C 69 % 1008,6 hPa 0,0 mm 1,9 km/h (1 Bft) W 263 ° 0 min 0,000 mm 0,0 UV-I 0 W/m² 4,3 °C 9,7 °C 3,2 km/h (1 Bft)
01.05.2018 01:10 9,7 °C 68 % 1008,6 hPa 0,0 mm 4,3 km/h (1 Bft) W 260 ° 0 min 0,000 mm 0,0 UV-I 0 W/m² 4,1 °C 9,7 °C 6,4 km/h (2 Bft)
01.05.2018 01:11 9,7 °C 68 % 1008,6 hPa 0,0 mm 4,0 km/h (1 Bft) W 276 ° 0 min 0,000 mm 0,0 UV-I 0 W/m² 4,1 °C 9,7 °C 6,4 km/h (2 Bft)
01.05.2018 01:12 9,7 °C 67 % 1008,5 hPa 0,0 mm 1,3 km/h (1 Bft) W 276 ° 0 min 0,000 mm 0,0 UV-I 0 W/m² 3,9 °C 9,7 °C 3,2 km/h (1 Bft)
01.05.2018 01:13 9,6 °C 67 % 1008,5 hPa 0,0 mm 1,0 km/h (0 Bft) W 276 ° 0 min 0,000 mm 0,0 UV-I 0 W/m² 3,8 °C 9,6 °C 3,2 km/h (1 Bft)
01.05.2018 01:14 9,6 °C 67 % 1008,6 hPa 0,0 mm 0,9 km/h (0 Bft) W 276 ° 0 min 0,000 mm 0,0 UV-I 0 W/m² 3,8 °C 9,6 °C 1,6 km/h (1 Bft)
01.05.2018 01:15 9,6 °C 67 % 1008,6 hPa 0,0 mm 0,0 km/h (0 Bft) W 276 ° 0 min 0,000 mm 0,0 UV-I 0 W/m² 3,8 °C 9,6 °C 0,0 km/h (0 Bft)
01.05.2018 01:16 9,6 °C 67 % 1008,6 hPa 0,0 mm 0,0 km/h (0 Bft) W 276 ° 0 min 0,000 mm 0,0 UV-I 0 W/m² 3,8 °C 9,6 °C 0,0 km/h (0 Bft)
01.05.2018 01:17 9,5 °C 67 % 1008,6 hPa 0,0 mm 1,0 km/h (0 Bft) W 276 ° 0 min 0,000 mm 0,0 UV-I 0 W/m² 3,7 °C 9,5 °C 1,6 km/h (1 Bft)
01.05.2018 01:18 9,5 °C 67 % 1008,6 hPa 0,0 mm 0,4 km/h (0 Bft) W 276 ° 0 min 0,000 mm 0,0 UV-I 0 W/m² 3,7 °C 9,5 °C 1,6 km/h (1 Bft)
01.05.2018 01:19 9,4 °C 68 % 1008,6 hPa 0,0 mm 0,2 km/h (0 Bft) W 276 ° 0 min 0,000 mm 0,0 UV-I 0 W/m² 3,8 °C 9,4 °C 1,6 km/h (1 Bft)
01.05.2018 01:20 9,4 °C 69 % 1008,6 hPa 0,0 mm 0,0 km/h (0 Bft) W 276 ° 0 min 0,000 mm 0,0 UV-I 0 W/m² 4,0 °C 9,4 °C 0,0 km/h (0 Bft)
01.05.2018 01:21 9,4 °C 67 % 1008,6 hPa 0,0 mm 0,0 km/h (0 Bft) W 276 ° 0 min 0,000 mm 0,0 UV-I 0 W/m² 3,6 °C 9,4 °C 0,0 km/h (0 Bft)
01.05.2018 01:22 9,4 °C 67 % 1008,6 hPa 0,0 mm 0,0 km/h (0 Bft) W 276 ° 0 min 0,000 mm 0,0 UV-I 0 W/m² 3,6 °C 9,4 °C 0,0 km/h (0 Bft)
01.05.2018 01:23 9,4 °C 68 % 1008,6 hPa 0,0 mm 0,0 km/h (0 Bft) W 276 ° 0 min 0,000 mm 0,0 UV-I 0 W/m² 3,8 °C 9,4 °C 0,0 km/h (0 Bft)
01.05.2018 01:24 9,4 °C 68 % 1008,6 hPa 0,0 mm 0,0 km/h (0 Bft) W 276 ° 0 min 0,000 mm 0,0 UV-I 0 W/m² 3,8 °C 9,4 °C 0,0 km/h (0 Bft)
01.05.2018 01:25 9,4 °C 68 % 1008,6 hPa 0,0 mm 0,0 km/h (0 Bft) W 276 ° 0 min 0,000 mm 0,0 UV-I 0 W/m² 3,8 °C 9,4 °C 0,0 km/h (0 Bft)
01.05.2018 01:26 9,4 °C 67 % 1008,7 hPa 0,0 mm 0,0 km/h (0 Bft) W 276 ° 0 min 0,000 mm 0,0 UV-I 0 W/m² 3,6 °C 9,4 °C 0,0 km/h (0 Bft)
01.05.2018 01:27 9,4 °C 67 % 1008,7 hPa 0,0 mm 0,0 km/h (0 Bft) W 276 ° 0 min 0,000 mm 0,0 UV-I 0 W/m² 3,6 °C 9,4 °C 0,0 km/h (0 Bft)
01.05.2018 01:28 9,4 °C 69 % 1008,7 hPa 0,0 mm 0,0 km/h (0 Bft) W 276 ° 0 min 0,000 mm 0,0 UV-I 0 W/m² 4,0 °C 9,4 °C 0,0 km/h (0 Bft)
01.05.2018 01:29 9,3 °C 69 % 1008,7 hPa 0,0 mm 0,0 km/h (0 Bft) W 276 ° 0 min 0,000 mm 0,0 UV-I 0 W/m² 3,9 °C 9,3 °C 0,0 km/h (0 Bft)
01.05.2018 01:30 9,3 °C 69 % 1008,7 hPa 0,0 mm 0,0 km/h (0 Bft) W 276 ° 0 min 0,000 mm 0,0 UV-I 0 W/m² 3,9 °C 9,3 °C 0,0 km/h (0 Bft)
01.05.2018 01:31 9,3 °C 70 % 1008,7 hPa 0,0 mm 0,0 km/h (0 Bft) W 276 ° 0 min 0,000 mm 0,0 UV-I 0 W/m² 4,1 °C 9,3 °C 0,0 km/h (0 Bft)
01.05.2018 01:32 9,2 °C 72 % 1008,7 hPa 0,0 mm 0,0 km/h (0 Bft) W 276 ° 0 min 0,000 mm 0,0 UV-I 0 W/m² 4,4 °C 9,2 °C 0,0 km/h (0 Bft)
01.05.2018 01:33 9,1 °C 73 % 1008,7 hPa 0,0 mm 0,0 km/h (0 Bft) W 276 ° 0 min 0,000 mm 0,0 UV-I 0 W/m² 4,5 °C 9,1 °C 0,0 km/h (0 Bft)
01.05.2018 01:34 9,1 °C 74 % 1008,6 hPa 0,0 mm 0,0 km/h (0 Bft) W 276 ° 0 min 0,000 mm 0,0 UV-I 0 W/m² 4,7 °C 9,1 °C 0,0 km/h (0 Bft)
01.05.2018 01:35 9,1 °C 74 % 1008,6 hPa 0,0 mm 0,0 km/h (0 Bft) W 276 ° 0 min 0,000 mm 0,0 UV-I 0 W/m² 4,7 °C 9,1 °C 0,0 km/h (0 Bft)
01.05.2018 01:36 9,1 °C 74 % 1008,7 hPa 0,0 mm 0,0 km/h (0 Bft) W 276 ° 0 min 0,000 mm 0,0 UV-I 0 W/m² 4,7 °C 9,1 °C 0,0 km/h (0 Bft)
01.05.2018 01:37 9,0 °C 73 % 1008,7 hPa 0,0 mm 0,0 km/h (0 Bft) W 276 ° 0 min 0,000 mm 0,0 UV-I 0 W/m² 4,4 °C 9,0 °C 0,0 km/h (0 Bft)
01.05.2018 01:38 9,0 °C 73 % 1008,6 hPa 0,0 mm 0,0 km/h (0 Bft) W 276 ° 0 min 0,000 mm 0,0 UV-I 0 W/m² 4,4 °C 9,0 °C 0,0 km/h (0 Bft)
01.05.2018 01:39 9,1 °C 71 % 1008,6 hPa 0,0 mm 0,0 km/h (0 Bft) W 276 ° 0 min 0,000 mm 0,0 UV-I 0 W/m² 4,1 °C 9,1 °C 0,0 km/h (0 Bft)
01.05.2018 01:40 9,0 °C 71 % 1008,6 hPa 0,0 mm 0,0 km/h (0 Bft) W 276 ° 0 min 0,000 mm 0,0 UV-I 0 W/m² 4,0 °C 9,0 °C 0,0 km/h (0 Bft)
01.05.2018 01:41 9,0 °C 71 % 1008,6 hPa 0,0 mm 0,0 km/h (0 Bft) W 276 ° 0 min 0,000 mm 0,0 UV-I 0 W/m² 4,0 °C 9,0 °C 0,0 km/h (0 Bft)
01.05.2018 01:42 9,0 °C 72 % 1008,6 hPa 0,0 mm 0,0 km/h (0 Bft) W 276 ° 0 min 0,000 mm 0,0 UV-I 0 W/m² 4,2 °C 9,0 °C 0,0 km/h (0 Bft)
01.05.2018 01:43 8,9 °C 72 % 1008,5 hPa 0,0 mm 0,0 km/h (0 Bft) W 276 ° 0 min 0,000 mm 0,0 UV-I 0 W/m² 4,1 °C 8,9 °C 0,0 km/h (0 Bft)
01.05.2018 01:44 8,9 °C 72 % 1008,6 hPa 0,0 mm 0,0 km/h (0 Bft) W 276 ° 0 min 0,000 mm 0,0 UV-I 0 W/m² 4,1 °C 8,9 °C 0,0 km/h (0 Bft)
01.05.2018 01:45 8,9 °C 71 % 1008,6 hPa 0,0 mm 0,0 km/h (0 Bft) W 276 ° 0 min 0,000 mm 0,0 UV-I 0 W/m² 3,9 °C 8,9 °C 0,0 km/h (0 Bft)
01.05.2018 01:46 9,0 °C 72 % 1008,5 hPa 0,0 mm 0,0 km/h (0 Bft) W 276 ° 0 min 0,000 mm 0,0 UV-I 0 W/m² 4,2 °C 9,0 °C 0,0 km/h (0 Bft)
01.05.2018 01:47 9,0 °C 72 % 1008,5 hPa 0,0 mm 0,0 km/h (0 Bft) W 276 ° 0 min 0,000 mm 0,0 UV-I 0 W/m² 4,2 °C 9,0 °C 0,0 km/h (0 Bft)
01.05.2018 01:48 9,0 °C 71 % 1008,5 hPa 0,0 mm 0,0 km/h (0 Bft) W 276 ° 0 min 0,000 mm 0,0 UV-I 0 W/m² 4,0 °C 9,0 °C 0,0 km/h (0 Bft)
01.05.2018 01:49 8,9 °C 72 % 1008,5 hPa 0,0 mm 0,0 km/h (0 Bft) W 276 ° 0 min 0,000 mm 0,0 UV-I 0 W/m² 4,1 °C 8,9 °C 0,0 km/h (0 Bft)
01.05.2018 01:50 9,0 °C 71 % 1008,6 hPa 0,0 mm 0,0 km/h (0 Bft) W 276 ° 0 min 0,000 mm 0,0 UV-I 0 W/m² 4,0 °C 9,0 °C 0,0 km/h (0 Bft)
01.05.2018 01:51 9,0 °C 72 % 1008,6 hPa 0,0 mm 0,0 km/h (0 Bft) W 276 ° 0 min 0,000 mm 0,0 UV-I 0 W/m² 4,2 °C 9,0 °C 0,0 km/h (0 Bft)
01.05.2018 01:52 9,0 °C 70 % 1008,6 hPa 0,0 mm 0,0 km/h (0 Bft) W 276 ° 0 min 0,000 mm 0,0 UV-I 0 W/m² 3,8 °C 9,0 °C 0,0 km/h (0 Bft)
01.05.2018 01:53 9,0 °C 71 % 1008,6 hPa 0,0 mm 0,0 km/h (0 Bft) W 276 ° 0 min 0,000 mm 0,0 UV-I 0 W/m² 4,0 °C 9,0 °C 0,0 km/h (0 Bft)
01.05.2018 01:54 9,1 °C 71 % 1008,6 hPa 0,0 mm 0,0 km/h (0 Bft) W 276 ° 0 min 0,000 mm 0,0 UV-I 0 W/m² 4,1 °C 9,1 °C 0,0 km/h (0 Bft)
01.05.2018 01:55 9,1 °C 71 % 1008,6 hPa 0,0 mm 0,0 km/h (0 Bft) W 276 ° 0 min 0,000 mm 0,0 UV-I 0 W/m² 4,1 °C 9,1 °C 0,0 km/h (0 Bft)
01.05.2018 01:56 9,1 °C 71 % 1008,6 hPa 0,0 mm 0,0 km/h (0 Bft) W 276 ° 0 min 0,000 mm 0,0 UV-I 0 W/m² 4,1 °C 9,1 °C 0,0 km/h (0 Bft)
01.05.2018 01:57 9,1 °C 70 % 1008,6 hPa 0,0 mm 0,0 km/h (0 Bft) W 276 ° 0 min 0,000 mm 0,0 UV-I 0 W/m² 3,9 °C 9,1 °C 0,0 km/h (0 Bft)
01.05.2018 01:58 9,1 °C 72 % 1008,6 hPa 0,0 mm 0,0 km/h (0 Bft) W 276 ° 0 min 0,000 mm 0,0 UV-I 0 W/m² 4,3 °C 9,1 °C 0,0 km/h (0 Bft)
01.05.2018 01:59 9,1 °C 70 % 1008,6 hPa 0,0 mm 0,0 km/h (0 Bft) W 276 ° 0 min 0,000 mm 0,0 UV-I 0 W/m² 3,9 °C 9,1 °C 0,0 km/h (0 Bft)
01.05.2018 02:00 9,1 °C 73 % 1008,6 hPa 0,0 mm 0,0 km/h (0 Bft) W 276 ° 0 min 0,000 mm 0,0 UV-I 0 W/m² 4,5 °C 9,1 °C 0,0 km/h (0 Bft)
01.05.2018 02:01 9,1 °C 73 % 1008,6 hPa 0,0 mm 0,0 km/h (0 Bft) W 276 ° 0 min 0,026 mm 0,0 UV-I 0 W/m² 4,5 °C 9,1 °C 0,0 km/h (0 Bft)
01.05.2018 02:02 8,9 °C 74 % 1008,6 hPa 0,0 mm 0,0 km/h (0 Bft) W 276 ° 0 min 0,000 mm 0,0 UV-I 0 W/m² 4,5 °C 8,9 °C 0,0 km/h (0 Bft)
01.05.2018 02:03 8,9 °C 75 % 1008,6 hPa 0,0 mm 0,0 km/h (0 Bft) W 276 ° 0 min 0,000 mm 0,0 UV-I 0 W/m² 4,7 °C 8,9 °C 0,0 km/h (0 Bft)
01.05.2018 02:04 8,8 °C 74 % 1008,6 hPa 0,0 mm 0,0 km/h (0 Bft) W 276 ° 0 min 0,000 mm 0,0 UV-I 0 W/m² 4,4 °C 8,8 °C 0,0 km/h (0 Bft)
01.05.2018 02:05 8,8 °C 74 % 1008,7 hPa 0,0 mm 0,0 km/h (0 Bft) W 276 ° 0 min 0,000 mm 0,0 UV-I 0 W/m² 4,4 °C 8,8 °C 0,0 km/h (0 Bft)
01.05.2018 02:06 8,8 °C 74 % 1008,7 hPa 0,0 mm 0,0 km/h (0 Bft) W 276 ° 0 min 0,000 mm 0,0 UV-I 0 W/m² 4,4 °C 8,8 °C 0,0 km/h (0 Bft)
01.05.2018 02:07 8,8 °C 74 % 1008,7 hPa 0,0 mm 0,0 km/h (0 Bft) W 276 ° 0 min 0,000 mm 0,0 UV-I 0 W/m² 4,4 °C 8,8 °C 0,0 km/h (0 Bft)
01.05.2018 02:08 8,8 °C 73 % 1008,7 hPa 0,0 mm 0,0 km/h (0 Bft) W 276 ° 0 min 0,000 mm 0,0 UV-I 0 W/m² 4,2 °C 8,8 °C 0,0 km/h (0 Bft)
01.05.2018 02:09 8,8 °C 73 % 1008,7 hPa 0,0 mm 0,0 km/h (0 Bft) W 276 ° 0 min 0,000 mm 0,0 UV-I 0 W/m² 4,2 °C 8,8 °C 0,0 km/h (0 Bft)
01.05.2018 02:10 8,8 °C 73 % 1008,7 hPa 0,0 mm 0,0 km/h (0 Bft) W 276 ° 0 min 0,000 mm 0,0 UV-I 0 W/m² 4,2 °C 8,8 °C 0,0 km/h (0 Bft)
01.05.2018 02:11 8,8 °C 73 % 1008,7 hPa 0,0 mm 0,0 km/h (0 Bft) W 276 ° 0 min 0,000 mm 0,0 UV-I 0 W/m² 4,2 °C 8,8 °C 0,0 km/h (0 Bft)
01.05.2018 02:12 8,8 °C 73 % 1008,7 hPa 0,0 mm 0,0 km/h (0 Bft) W 276 ° 0 min 0,000 mm 0,0 UV-I 0 W/m² 4,2 °C 8,8 °C 0,0 km/h (0 Bft)
01.05.2018 02:13 8,8 °C 74 % 1008,7 hPa 0,0 mm 0,0 km/h (0 Bft) W 276 ° 0 min 0,000 mm 0,0 UV-I 0 W/m² 4,4 °C 8,8 °C 0,0 km/h (0 Bft)
01.05.2018 02:14 8,8 °C 73 % 1008,7 hPa 0,0 mm 0,0 km/h (0 Bft) W 276 ° 0 min 0,000 mm 0,0 UV-I 0 W/m² 4,2 °C 8,8 °C 0,0 km/h (0 Bft)
01.05.2018 02:15 8,9 °C 71 % 1008,7 hPa 0,0 mm 0,0 km/h (0 Bft) W 276 ° 0 min 0,000 mm 0,0 UV-I 0 W/m² 3,9 °C 8,9 °C 0,0 km/h (0 Bft)
01.05.2018 02:16 8,9 °C 71 % 1008,7 hPa 0,0 mm 0,0 km/h (0 Bft) W 276 ° 0 min 0,000 mm 0,0 UV-I 0 W/m² 3,9 °C 8,9 °C 0,0 km/h (0 Bft)
01.05.2018 02:17 8,9 °C 71 % 1008,7 hPa 0,0 mm 0,0 km/h (0 Bft) W 276 ° 0 min 0,000 mm 0,0 UV-I 0 W/m² 3,9 °C 8,9 °C 0,0 km/h (0 Bft)
01.05.2018 02:18 8,9 °C 70 % 1008,6 hPa 0,0 mm 0,3 km/h (0 Bft) W 276 ° 0 min 0,000 mm 0,0 UV-I 0 W/m² 3,7 °C 8,9 °C 1,6 km/h (1 Bft)
01.05.2018 02:19 9,0 °C 70 % 1008,6 hPa 0,0 mm 0,1 km/h (0 Bft) W 276 ° 0 min 0,000 mm 0,0 UV-I 0 W/m² 3,8 °C 9,0 °C 1,6 km/h (1 Bft)
01.05.2018 02:20 9,1 °C 70 % 1008,7 hPa 0,0 mm 0,0 km/h (0 Bft) W 276 ° 0 min 0,000 mm 0,0 UV-I 0 W/m² 3,9 °C 9,1 °C 0,0 km/h (0 Bft)
01.05.2018 02:21 9,1 °C 69 % 1008,7 hPa 0,0 mm 0,0 km/h (0 Bft) W 276 ° 0 min 0,000 mm 0,0 UV-I 0 W/m² 3,7 °C 9,1 °C 0,0 km/h (0 Bft)
01.05.2018 02:22 9,1 °C 69 % 1008,7 hPa 0,0 mm 3,3 km/h (1 Bft) W 278 ° 0 min 0,000 mm 0,0 UV-I 0 W/m² 3,7 °C 9,1 °C 6,4 km/h (2 Bft)
01.05.2018 02:23 9,1 °C 70 % 1008,7 hPa 0,0 mm 1,6 km/h (1 Bft) W 278 ° 0 min 0,000 mm 0,0 UV-I 0 W/m² 3,9 °C 9,1 °C 4,8 km/h (1 Bft)
01.05.2018 02:24 9,1 °C 70 % 1008,7 hPa 0,0 mm 1,3 km/h (1 Bft) W 278 ° 0 min 0,000 mm 0,0 UV-I 0 W/m² 3,9 °C 9,1 °C 3,2 km/h (1 Bft)
01.05.2018 02:25 9,1 °C 70 % 1008,7 hPa 0,0 mm 0,0 km/h (0 Bft) W 278 ° 0 min 0,000 mm 0,0 UV-I 0 W/m² 3,9 °C 9,1 °C 0,0 km/h (0 Bft)
01.05.2018 02:26 9,1 °C 69 % 1008,7 hPa 0,0 mm 0,0 km/h (0 Bft) W 278 ° 0 min 0,000 mm 0,0 UV-I 0 W/m² 3,7 °C 9,1 °C 0,0 km/h (0 Bft)
01.05.2018 02:27 9,1 °C 69 % 1008,7 hPa 0,0 mm 0,0 km/h (0 Bft) W 278 ° 0 min 0,000 mm 0,0 UV-I 0 W/m² 3,7 °C 9,1 °C 0,0 km/h (0 Bft)
01.05.2018 02:28 9,1 °C 69 % 1008,7 hPa 0,0 mm 0,0 km/h (0 Bft) W 278 ° 0 min 0,000 mm 0,0 UV-I 0 W/m² 3,7 °C 9,1 °C 0,0 km/h (0 Bft)
01.05.2018 02:29 9,1 °C 69 % 1008,8 hPa 0,0 mm 0,0 km/h (0 Bft) W 278 ° 0 min 0,000 mm 0,0 UV-I 0 W/m² 3,7 °C 9,1 °C 0,0 km/h (0 Bft)
01.05.2018 02:30 9,1 °C 69 % 1008,8 hPa 0,0 mm 0,0 km/h (0 Bft) W 278 ° 0 min 0,000 mm 0,0 UV-I 0 W/m² 3,7 °C 9,1 °C 0,0 km/h (0 Bft)
01.05.2018 02:31 9,1 °C 70 % 1008,7 hPa 0,0 mm 0,0 km/h (0 Bft) W 278 ° 0 min 0,000 mm 0,0 UV-I 0 W/m² 3,9 °C 9,1 °C 0,0 km/h (0 Bft)
01.05.2018 02:32 9,1 °C 70 % 1008,8 hPa 0,0 mm 0,0 km/h (0 Bft) W 278 ° 0 min 0,000 mm 0,0 UV-I 0 W/m² 3,9 °C 9,1 °C 0,0 km/h (0 Bft)
01.05.2018 02:33 9,1 °C 70 % 1008,8 hPa 0,0 mm 0,0 km/h (0 Bft) W 278 ° 0 min 0,000 mm 0,0 UV-I 0 W/m² 3,9 °C 9,1 °C 0,0 km/h (0 Bft)
01.05.2018 02:34 9,1 °C 70 % 1008,7 hPa 0,0 mm 0,0 km/h (0 Bft) W 278 ° 0 min 0,000 mm 0,0 UV-I 0 W/m² 3,9 °C 9,1 °C 0,0 km/h (0 Bft)
01.05.2018 02:35 9,1 °C 69 % 1008,8 hPa 0,0 mm 0,0 km/h (0 Bft) W 278 ° 0 min 0,000 mm 0,0 UV-I 0 W/m² 3,7 °C 9,1 °C 0,0 km/h (0 Bft)
01.05.2018 02:36 9,1 °C 69 % 1008,8 hPa 0,0 mm 0,0 km/h (0 Bft) W 278 ° 0 min 0,000 mm 0,0 UV-I 0 W/m² 3,7 °C 9,1 °C 0,0 km/h (0 Bft)
01.05.2018 02:37 9,2 °C 69 % 1008,7 hPa 0,0 mm 0,0 km/h (0 Bft) W 278 ° 0 min 0,000 mm 0,0 UV-I 0 W/m² 3,8 °C 9,2 °C 0,0 km/h (0 Bft)
01.05.2018 02:38 9,1 °C 70 % 1008,7 hPa 0,0 mm 0,0 km/h (0 Bft) W 278 ° 0 min 0,000 mm 0,0 UV-I 0 W/m² 3,9 °C 9,1 °C 0,0 km/h (0 Bft)
01.05.2018 02:39 9,1 °C 69 % 1008,7 hPa 0,0 mm 0,0 km/h (0 Bft) W 278 ° 0 min 0,000 mm 0,0 UV-I 0 W/m² 3,7 °C 9,1 °C 0,0 km/h (0 Bft)
01.05.2018 02:40 9,1 °C 71 % 1008,6 hPa 0,0 mm 0,0 km/h (0 Bft) W 278 ° 0 min 0,000 mm 0,0 UV-I 0 W/m² 4,1 °C 9,1 °C 0,0 km/h (0 Bft)
01.05.2018 02:41 9,0 °C 71 % 1008,7 hPa 0,0 mm 0,0 km/h (0 Bft) W 278 ° 0 min 0,000 mm 0,0 UV-I 0 W/m² 4,0 °C 9,0 °C 0,0 km/h (0 Bft)
01.05.2018 02:42 8,9 °C 73 % 1008,6 hPa 0,0 mm 0,0 km/h (0 Bft) W 278 ° 0 min 0,000 mm 0,0 UV-I 0 W/m² 4,3 °C 8,9 °C 0,0 km/h (0 Bft)
01.05.2018 02:43 8,8 °C 73 % 1008,6 hPa 0,0 mm 0,0 km/h (0 Bft) W 278 ° 0 min 0,000 mm 0,0 UV-I 0 W/m² 4,2 °C 8,8 °C 0,0 km/h (0 Bft)
01.05.2018 02:44 8,8 °C 74 % 1008,6 hPa 0,0 mm 0,0 km/h (0 Bft) W 278 ° 0 min 0,000 mm 0,0 UV-I 0 W/m² 4,4 °C 8,8 °C 0,0 km/h (0 Bft)
01.05.2018 02:45 8,7 °C 74 % 1008,6 hPa 0,0 mm 0,0 km/h (0 Bft) W 278 ° 0 min 0,000 mm 0,0 UV-I 0 W/m² 4,3 °C 8,7 °C 0,0 km/h (0 Bft)
01.05.2018 02:46 8,7 °C 74 % 1008,5 hPa 0,0 mm 0,0 km/h (0 Bft) W 278 ° 0 min 0,000 mm 0,0 UV-I 0 W/m² 4,3 °C 8,7 °C 0,0 km/h (0 Bft)
01.05.2018 02:47 8,7 °C 73 % 1008,5 hPa 0,0 mm 0,0 km/h (0 Bft) W 278 ° 0 min 0,000 mm 0,0 UV-I 0 W/m² 4,1 °C 8,7 °C 0,0 km/h (0 Bft)
01.05.2018 02:48 8,7 °C 73 % 1008,5 hPa 0,0 mm 0,0 km/h (0 Bft) W 278 ° 0 min 0,000 mm 0,0 UV-I 0 W/m² 4,1 °C 8,7 °C 0,0 km/h (0 Bft)
01.05.2018 02:49 8,7 °C 72 % 1008,5 hPa 0,0 mm 0,0 km/h (0 Bft) W 278 ° 0 min 0,000 mm 0,0 UV-I 0 W/m² 3,9 °C 8,7 °C 0,0 km/h (0 Bft)
01.05.2018 02:50 8,7 °C 71 % 1008,5 hPa 0,0 mm 0,0 km/h (0 Bft) W 278 ° 0 min 0,000 mm 0,0 UV-I 0 W/m² 3,7 °C 8,7 °C 0,0 km/h (0 Bft)
01.05.2018 02:51 8,8 °C 72 % 1008,5 hPa 0,0 mm 0,0 km/h (0 Bft) W 278 ° 0 min 0,000 mm 0,0 UV-I 0 W/m² 4,0 °C 8,8 °C 0,0 km/h (0 Bft)
01.05.2018 02:52 8,8 °C 72 % 1008,5 hPa 0,0 mm 0,0 km/h (0 Bft) W 278 ° 0 min 0,000 mm 0,0 UV-I 0 W/m² 4,0 °C 8,8 °C 0,0 km/h (0 Bft)
01.05.2018 02:53 8,8 °C 73 % 1008,5 hPa 0,0 mm 0,0 km/h (0 Bft) W 278 ° 0 min 0,000 mm 0,0 UV-I 0 W/m² 4,2 °C 8,8 °C 0,0 km/h (0 Bft)
01.05.2018 02:54 8,8 °C 72 % 1008,5 hPa 0,0 mm 0,0 km/h (0 Bft) W 278 ° 0 min 0,000 mm 0,0 UV-I 0 W/m² 4,0 °C 8,8 °C 0,0 km/h (0 Bft)
01.05.2018 02:55 8,8 °C 71 % 1008,6 hPa 0,0 mm 0,0 km/h (0 Bft) W 278 ° 0 min 0,000 mm 0,0 UV-I 0 W/m² 3,8 °C 8,8 °C 0,0 km/h (0 Bft)
01.05.2018 02:56 8,8 °C 72 % 1008,6 hPa 0,0 mm 0,0 km/h (0 Bft) W 278 ° 0 min 0,000 mm 0,0 UV-I 0 W/m² 4,0 °C 8,8 °C 0,0 km/h (0 Bft)
01.05.2018 02:57 8,8 °C 71 % 1008,6 hPa 0,0 mm 0,2 km/h (0 Bft) W 278 ° 0 min 0,000 mm 0,0 UV-I 0 W/m² 3,8 °C 8,8 °C 1,6 km/h (1 Bft)
01.05.2018 02:58 8,9 °C 71 % 1008,6 hPa 0,0 mm 0,0 km/h (0 Bft) W 278 ° 0 min 0,000 mm 0,0 UV-I 0 W/m² 3,9 °C 8,9 °C 0,0 km/h (0 Bft)
01.05.2018 02:59 8,8 °C 72 % 1008,7 hPa 0,0 mm 0,0 km/h (0 Bft) W 278 ° 0 min 0,000 mm 0,0 UV-I 0 W/m² 4,0 °C 8,8 °C 0,0 km/h (0 Bft)
01.05.2018 03:00 8,8 °C 73 % 1008,6 hPa 0,0 mm 0,0 km/h (0 Bft) W 278 ° 0 min 0,025 mm 0,0 UV-I 0 W/m² 4,2 °C 8,8 °C 0,0 km/h (0 Bft)
01.05.2018 03:01 8,8 °C 73 % 1008,6 hPa 0,0 mm 0,0 km/h (0 Bft) W 278 ° 0 min 0,000 mm 0,0 UV-I 0 W/m² 4,2 °C 8,8 °C 0,0 km/h (0 Bft)
01.05.2018 03:02 8,7 °C 75 % 1008,7 hPa 0,0 mm 0,0 km/h (0 Bft) W 278 ° 0 min 0,000 mm 0,0 UV-I 0 W/m² 4,5 °C 8,7 °C 0,0 km/h (0 Bft)
01.05.2018 03:03 8,7 °C 74 % 1008,7 hPa 0,0 mm 0,0 km/h (0 Bft) W 278 ° 0 min 0,000 mm 0,0 UV-I 0 W/m² 4,3 °C 8,7 °C 0,0 km/h (0 Bft)
01.05.2018 03:04 8,7 °C 74 % 1008,6 hPa 0,0 mm 0,0 km/h (0 Bft) W 278 ° 0 min 0,000 mm 0,0 UV-I 0 W/m² 4,3 °C 8,7 °C 0,0 km/h (0 Bft)
01.05.2018 03:05 8,7 °C 73 % 1008,7 hPa 0,0 mm 0,0 km/h (0 Bft) W 278 ° 0 min 0,000 mm 0,0 UV-I 0 W/m² 4,1 °C 8,7 °C 0,0 km/h (0 Bft)
01.05.2018 03:06 8,7 °C 73 % 1008,7 hPa 0,0 mm 0,0 km/h (0 Bft) W 278 ° 0 min 0,000 mm 0,0 UV-I 0 W/m² 4,1 °C 8,7 °C 0,0 km/h (0 Bft)
01.05.2018 03:07 8,7 °C 73 % 1008,7 hPa 0,0 mm 0,0 km/h (0 Bft) W 278 ° 0 min 0,000 mm 0,0 UV-I 0 W/m² 4,1 °C 8,7 °C 0,0 km/h (0 Bft)
01.05.2018 03:08 8,7 °C 73 % 1008,7 hPa 0,0 mm 0,0 km/h (0 Bft) W 278 ° 0 min 0,000 mm 0,0 UV-I 0 W/m² 4,1 °C 8,7 °C 0,0 km/h (0 Bft)
01.05.2018 03:09 8,7 °C 72 % 1008,7 hPa 0,0 mm 0,0 km/h (0 Bft) W 278 ° 0 min 0,000 mm 0,0 UV-I 0 W/m² 3,9 °C 8,7 °C 0,0 km/h (0 Bft)
01.05.2018 03:10 8,7 °C 72 % 1008,7 hPa 0,0 mm 0,0 km/h (0 Bft) W 278 ° 0 min 0,000 mm 0,0 UV-I 0 W/m² 3,9 °C 8,7 °C 0,0 km/h (0 Bft)
01.05.2018 03:11 8,7 °C 72 % 1008,8 hPa 0,0 mm 0,0 km/h (0 Bft) W 278 ° 0 min 0,000 mm 0,0 UV-I 0 W/m² 3,9 °C 8,7 °C 0,0 km/h (0 Bft)
01.05.2018 03:12 8,8 °C 72 % 1008,8 hPa 0,0 mm 0,0 km/h (0 Bft) W 278 ° 0 min 0,000 mm 0,0 UV-I 0 W/m² 4,0 °C 8,8 °C 0,0 km/h (0 Bft)
01.05.2018 03:13 8,8 °C 72 % 1008,7 hPa 0,0 mm 0,3 km/h (0 Bft) W 278 ° 0 min 0,000 mm 0,0 UV-I 0 W/m² 4,0 °C 8,8 °C 1,6 km/h (1 Bft)
01.05.2018 03:14 8,8 °C 72 % 1008,7 hPa 0,0 mm 0,7 km/h (0 Bft) W 278 ° 0 min 0,000 mm 0,0 UV-I 0 W/m² 4,0 °C 8,8 °C 1,6 km/h (1 Bft)
01.05.2018 03:15 8,8 °C 72 % 1008,7 hPa 0,0 mm 2,2 km/h (1 Bft) W 278 ° 0 min 0,000 mm 0,0 UV-I 0 W/m² 4,0 °C 8,8 °C 3,2 km/h (1 Bft)
01.05.2018 03:16 8,8 °C 71 % 1008,7 hPa 0,0 mm 0,9 km/h (0 Bft) W 278 ° 0 min 0,000 mm 0,0 UV-I 0 W/m² 3,8 °C 8,8 °C 1,6 km/h (1 Bft)
01.05.2018 03:17 8,8 °C 71 % 1008,7 hPa 0,0 mm 0,0 km/h (0 Bft) W 278 ° 0 min 0,000 mm 0,0 UV-I 0 W/m² 3,8 °C 8,8 °C 0,0 km/h (0 Bft)
01.05.2018 03:18 8,8 °C 71 % 1008,6 hPa 0,0 mm 0,0 km/h (0 Bft) W 278 ° 0 min 0,000 mm 0,0 UV-I 0 W/m² 3,8 °C 8,8 °C 0,0 km/h (0 Bft)
01.05.2018 03:19 8,8 °C 72 % 1008,6 hPa 0,0 mm 1,1 km/h (1 Bft) W 278 ° 0 min 0,000 mm 0,0 UV-I 0 W/m² 4,0 °C 8,8 °C 3,2 km/h (1 Bft)
01.05.2018 03:20 8,8 °C 71 % 1008,6 hPa 0,0 mm 0,0 km/h (0 Bft) W 278 ° 0 min 0,000 mm 0,0 UV-I 0 W/m² 3,8 °C 8,8 °C 0,0 km/h (0 Bft)
01.05.2018 03:21 8,8 °C 72 % 1008,7 hPa 0,0 mm 0,0 km/h (0 Bft) W 278 ° 0 min 0,000 mm 0,0 UV-I 0 W/m² 4,0 °C 8,8 °C 0,0 km/h (0 Bft)
01.05.2018 03:22 8,8 °C 71 % 1008,7 hPa 0,0 mm 0,0 km/h (0 Bft) W 278 ° 0 min 0,000 mm 0,0 UV-I 0 W/m² 3,8 °C 8,8 °C 0,0 km/h (0 Bft)
01.05.2018 03:23 8,8 °C 72 % 1008,7 hPa 0,0 mm 0,0 km/h (0 Bft) W 278 ° 0 min 0,000 mm 0,0 UV-I 0 W/m² 4,0 °C 8,8 °C 0,0 km/h (0 Bft)
01.05.2018 03:24 8,8 °C 71 % 1008,7 hPa 0,0 mm 0,0 km/h (0 Bft) W 278 ° 0 min 0,000 mm 0,0 UV-I 0 W/m² 3,8 °C 8,8 °C 0,0 km/h (0 Bft)
01.05.2018 03:25 8,8 °C 71 % 1008,7 hPa 0,0 mm 0,0 km/h (0 Bft) W 278 ° 0 min 0,000 mm 0,0 UV-I 0 W/m² 3,8 °C 8,8 °C 0,0 km/h (0 Bft)
01.05.2018 03:26 8,8 °C 71 % 1008,7 hPa 0,0 mm 0,1 km/h (0 Bft) W 278 ° 0 min 0,000 mm 0,0 UV-I 0 W/m² 3,8 °C 8,8 °C 1,6 km/h (1 Bft)
01.05.2018 03:27 8,8 °C 72 % 1008,7 hPa 0,0 mm 0,0 km/h (0 Bft) W 278 ° 0 min 0,000 mm 0,0 UV-I 0 W/m² 4,0 °C 8,8 °C 0,0 km/h (0 Bft)
01.05.2018 03:28 8,7 °C 72 % 1008,6 hPa 0,0 mm 0,0 km/h (0 Bft) W 278 ° 0 min 0,000 mm 0,0 UV-I 0 W/m² 3,9 °C 8,7 °C 0,0 km/h (0 Bft)
01.05.2018 03:29 8,8 °C 71 % 1008,6 hPa 0,0 mm 0,0 km/h (0 Bft) W 278 ° 0 min 0,000 mm 0,0 UV-I 0 W/m² 3,8 °C 8,8 °C 0,0 km/h (0 Bft)
01.05.2018 03:30 8,8 °C 71 % 1008,6 hPa 0,0 mm 0,0 km/h (0 Bft) W 278 ° 0 min 0,000 mm 0,0 UV-I 0 W/m² 3,8 °C 8,8 °C 0,0 km/h (0 Bft)
01.05.2018 03:31 8,7 °C 71 % 1008,7 hPa 0,0 mm 0,0 km/h (0 Bft) W 278 ° 0 min 0,000 mm 0,0 UV-I 0 W/m² 3,7 °C 8,7 °C 0,0 km/h (0 Bft)
01.05.2018 03:32 8,8 °C 71 % 1008,6 hPa 0,0 mm 0,0 km/h (0 Bft) W 278 ° 0 min 0,000 mm 0,0 UV-I 0 W/m² 3,8 °C 8,8 °C 0,0 km/h (0 Bft)
01.05.2018 03:33 8,8 °C 71 % 1008,6 hPa 0,0 mm 0,0 km/h (0 Bft) W 278 ° 0 min 0,000 mm 0,0 UV-I 0 W/m² 3,8 °C 8,8 °C 0,0 km/h (0 Bft)
01.05.2018 03:34 8,8 °C 71 % 1008,6 hPa 0,0 mm 0,0 km/h (0 Bft) W 278 ° 0 min 0,000 mm 0,0 UV-I 0 W/m² 3,8 °C 8,8 °C 0,0 km/h (0 Bft)
01.05.2018 03:35 8,8 °C 72 % 1008,6 hPa 0,0 mm 0,0 km/h (0 Bft) W 278 ° 0 min 0,000 mm 0,0 UV-I 0 W/m² 4,0 °C 8,8 °C 0,0 km/h (0 Bft)
01.05.2018 03:36 8,8 °C 71 % 1008,6 hPa 0,0 mm 0,0 km/h (0 Bft) W 278 ° 0 min 0,000 mm 0,0 UV-I 0 W/m² 3,8 °C 8,8 °C 0,0 km/h (0 Bft)
01.05.2018 03:37 8,8 °C 72 % 1008,6 hPa 0,0 mm 0,0 km/h (0 Bft) W 278 ° 0 min 0,000 mm 0,0 UV-I 0 W/m² 4,0 °C 8,8 °C 0,0 km/h (0 Bft)
01.05.2018 03:38 8,7 °C 71 % 1008,6 hPa 0,0 mm 0,0 km/h (0 Bft) W 278 ° 0 min 0,000 mm 0,0 UV-I 0 W/m² 3,7 °C 8,7 °C 0,0 km/h (0 Bft)
01.05.2018 03:39 8,8 °C 72 % 1008,6 hPa 0,0 mm 0,0 km/h (0 Bft) W 278 ° 0 min 0,000 mm 0,0 UV-I 0 W/m² 4,0 °C 8,8 °C 0,0 km/h (0 Bft)
01.05.2018 03:40 8,8 °C 71 % 1008,6 hPa 0,0 mm 0,5 km/h (0 Bft) W 278 ° 0 min 0,000 mm 0,0 UV-I 0 W/m² 3,8 °C 8,8 °C 1,6 km/h (1 Bft)
01.05.2018 03:41 8,8 °C 71 % 1008,6 hPa 0,0 mm 0,3 km/h (0 Bft) W 278 ° 0 min 0,000 mm 0,0 UV-I 0 W/m² 3,8 °C 8,8 °C 1,6 km/h (1 Bft)
01.05.2018 03:42 8,8 °C 71 % 1008,6 hPa 0,0 mm 0,0 km/h (0 Bft) W 278 ° 0 min 0,000 mm 0,0 UV-I 0 W/m² 3,8 °C 8,8 °C 0,0 km/h (0 Bft)
01.05.2018 03:43 8,8 °C 72 % 1008,7 hPa 0,0 mm 0,0 km/h (0 Bft) W 278 ° 0 min 0,000 mm 0,0 UV-I 0 W/m² 4,0 °C 8,8 °C 0,0 km/h (0 Bft)
01.05.2018 03:44 8,7 °C 72 % 1008,7 hPa 0,0 mm 0,0 km/h (0 Bft) W 278 ° 0 min 0,000 mm 0,0 UV-I 0 W/m² 3,9 °C 8,7 °C 0,0 km/h (0 Bft)
01.05.2018 03:45 8,7 °C 71 % 1008,7 hPa 0,0 mm 0,0 km/h (0 Bft) W 278 ° 0 min 0,000 mm 0,0 UV-I 0 W/m² 3,7 °C 8,7 °C 0,0 km/h (0 Bft)
01.05.2018 03:46 8,7 °C 72 % 1008,7 hPa 0,0 mm 0,0 km/h (0 Bft) W 278 ° 0 min 0,000 mm 0,0 UV-I 0 W/m² 3,9 °C 8,7 °C 0,0 km/h (0 Bft)
01.05.2018 03:47 8,7 °C 72 % 1008,7 hPa 0,0 mm 0,0 km/h (0 Bft) W 278 ° 0 min 0,000 mm 0,0 UV-I 0 W/m² 3,9 °C 8,7 °C 0,0 km/h (0 Bft)
01.05.2018 03:48 8,7 °C 72 % 1008,7 hPa 0,0 mm 0,0 km/h (0 Bft) W 278 ° 0 min 0,000 mm 0,0 UV-I 0 W/m² 3,9 °C 8,7 °C 0,0 km/h (0 Bft)
01.05.2018 03:49 8,7 °C 72 % 1008,6 hPa 0,0 mm 0,0 km/h (0 Bft) W 278 ° 0 min 0,000 mm 0,0 UV-I 0 W/m² 3,9 °C 8,7 °C 0,0 km/h (0 Bft)
01.05.2018 03:50 8,7 °C 71 % 1008,7 hPa 0,0 mm 0,2 km/h (0 Bft) W 278 ° 0 min 0,000 mm 0,0 UV-I 0 W/m² 3,7 °C 8,7 °C 1,6 km/h (1 Bft)
01.05.2018 03:51 8,7 °C 72 % 1008,7 hPa 0,0 mm 0,0 km/h (0 Bft) W 278 ° 0 min 0,000 mm 0,0 UV-I 0 W/m² 3,9 °C 8,7 °C 0,0 km/h (0 Bft)
01.05.2018 03:52 8,7 °C 72 % 1008,7 hPa 0,0 mm 0,0 km/h (0 Bft) W 278 ° 0 min 0,000 mm 0,0 UV-I 0 W/m² 3,9 °C 8,7 °C 0,0 km/h (0 Bft)
01.05.2018 03:53 8,6 °C 72 % 1008,7 hPa 0,0 mm 0,1 km/h (0 Bft) W 278 ° 0 min 0,000 mm 0,0 UV-I 0 W/m² 3,8 °C 8,6 °C 1,6 km/h (1 Bft)
01.05.2018 03:54 8,6 °C 72 % 1008,7 hPa 0,0 mm 0,0 km/h (0 Bft) W 278 ° 0 min 0,000 mm 0,0 UV-I 0 W/m² 3,8 °C 8,6 °C 0,0 km/h (0 Bft)
01.05.2018 03:55 8,7 °C 71 % 1008,6 hPa 0,0 mm 0,0 km/h (0 Bft) W 278 ° 0 min 0,000 mm 0,0 UV-I 0 W/m² 3,7 °C 8,7 °C 0,0 km/h (0 Bft)
01.05.2018 03:56 8,7 °C 71 % 1008,7 hPa 0,0 mm 0,0 km/h (0 Bft) W 278 ° 0 min 0,000 mm 0,0 UV-I 0 W/m² 3,7 °C 8,7 °C 0,0 km/h (0 Bft)
01.05.2018 03:57 8,7 °C 72 % 1008,7 hPa 0,0 mm 0,0 km/h (0 Bft) W 278 ° 0 min 0,000 mm 0,0 UV-I 0 W/m² 3,9 °C 8,7 °C 0,0 km/h (0 Bft)
01.05.2018 03:58 8,6 °C 73 % 1008,7 hPa 0,0 mm 0,0 km/h (0 Bft) W 278 ° 0 min 0,000 mm 0,0 UV-I 0 W/m² 4,0 °C 8,6 °C 0,0 km/h (0 Bft)
01.05.2018 03:59 8,6 °C 72 % 1008,7 hPa 0,0 mm 0,0 km/h (0 Bft) W 278 ° 0 min 0,000 mm 0,0 UV-I 0 W/m² 3,8 °C 8,6 °C 0,0 km/h (0 Bft)
01.05.2018 04:00 8,6 °C 72 % 1008,7 hPa 0,0 mm 0,0 km/h (0 Bft) W 278 ° 0 min 0,000 mm 0,0 UV-I 0 W/m² 3,8 °C 8,6 °C 0,0 km/h (0 Bft)
01.05.2018 04:01 8,5 °C 73 % 1008,7 hPa 0,0 mm 0,0 km/h (0 Bft) W 278 ° 0 min 0,026 mm 0,0 UV-I 0 W/m² 3,9 °C 8,5 °C 0,0 km/h (0 Bft)
01.05.2018 04:02 8,5 °C 72 % 1008,7 hPa 0,0 mm 0,0 km/h (0 Bft) W 278 ° 0 min 0,000 mm 0,0 UV-I 0 W/m² 3,7 °C 8,5 °C 0,0 km/h (0 Bft)
01.05.2018 04:03 8,4 °C 72 % 1008,7 hPa 0,0 mm 0,0 km/h (0 Bft) W 278 ° 0 min 0,000 mm 0,0 UV-I 0 W/m² 3,7 °C 8,4 °C 0,0 km/h (0 Bft)
01.05.2018 04:04 8,4 °C 73 % 1008,6 hPa 0,0 mm 0,0 km/h (0 Bft) W 278 ° 0 min 0,000 mm 0,0 UV-I 0 W/m² 3,8 °C 8,4 °C 0,0 km/h (0 Bft)
01.05.2018 04:05 8,4 °C 73 % 1008,6 hPa 0,0 mm 1,5 km/h (1 Bft) W 278 ° 0 min 0,000 mm 0,0 UV-I 0 W/m² 3,8 °C 8,4 °C 3,2 km/h (1 Bft)
01.05.2018 04:06 8,4 °C 72 % 1008,6 hPa 0,0 mm 1,7 km/h (1 Bft) W 278 ° 0 min 0,000 mm 0,0 UV-I 0 W/m² 3,7 °C 8,4 °C 3,2 km/h (1 Bft)
01.05.2018 04:07 8,4 °C 73 % 1008,6 hPa 0,0 mm 0,0 km/h (0 Bft) W 278 ° 0 min 0,000 mm 0,0 UV-I 0 W/m² 3,8 °C 8,4 °C 0,0 km/h (0 Bft)
01.05.2018 04:08 8,3 °C 73 % 1008,6 hPa 0,0 mm 0,3 km/h (0 Bft) W 278 ° 0 min 0,000 mm 0,0 UV-I 0 W/m² 3,8 °C 8,3 °C 1,6 km/h (1 Bft)
01.05.2018 04:09 8,3 °C 72 % 1008,7 hPa 0,0 mm 0,1 km/h (0 Bft) W 278 ° 0 min 0,000 mm 0,0 UV-I 0 W/m² 3,6 °C 8,3 °C 1,6 km/h (1 Bft)
01.05.2018 04:10 8,3 °C 73 % 1008,6 hPa 0,0 mm 0,8 km/h (0 Bft) W 278 ° 0 min 0,000 mm 0,0 UV-I 0 W/m² 3,8 °C 8,3 °C 3,2 km/h (1 Bft)
01.05.2018 04:11 8,2 °C 73 % 1008,7 hPa 0,0 mm 2,2 km/h (1 Bft) W 278 ° 0 min 0,000 mm 0,0 UV-I 0 W/m² 3,7 °C 8,2 °C 3,2 km/h (1 Bft)
01.05.2018 04:12 8,2 °C 73 % 1008,7 hPa 0,0 mm 0,1 km/h (0 Bft) W 278 ° 0 min 0,000 mm 0,0 UV-I 0 W/m² 3,7 °C 8,2 °C 1,6 km/h (1 Bft)
01.05.2018 04:13 8,2 °C 73 % 1008,7 hPa 0,0 mm 0,5 km/h (0 Bft) W 278 ° 0 min 0,000 mm 0,0 UV-I 0 W/m² 3,7 °C 8,2 °C 1,6 km/h (1 Bft)
01.05.2018 04:14 8,2 °C 73 % 1008,7 hPa 0,0 mm 1,5 km/h (1 Bft) W 278 ° 0 min 0,000 mm 0,0 UV-I 0 W/m² 3,7 °C 8,2 °C 3,2 km/h (1 Bft)
01.05.2018 04:15 8,3 °C 73 % 1008,7 hPa 0,0 mm 1,8 km/h (1 Bft) SW 231 ° 0 min 0,000 mm 0,0 UV-I 0 W/m² 3,8 °C 8,3 °C 3,2 km/h (1 Bft)
01.05.2018 04:16 8,3 °C 73 % 1008,7 hPa 0,0 mm 2,5 km/h (1 Bft) SW 231 ° 0 min 0,000 mm 0,0 UV-I 0 W/m² 3,8 °C 8,3 °C 4,8 km/h (1 Bft)
01.05.2018 04:17 8,3 °C 73 % 1008,7 hPa 0,0 mm 2,1 km/h (1 Bft) SW 231 ° 0 min 0,000 mm 0,0 UV-I 0 W/m² 3,8 °C 8,3 °C 6,4 km/h (2 Bft)
01.05.2018 04:18 8,3 °C 73 % 1008,7 hPa 0,0 mm 3,0 km/h (1 Bft) SW 231 ° 0 min 0,000 mm 0,0 UV-I 0 W/m² 3,8 °C 8,3 °C 4,8 km/h (1 Bft)
01.05.2018 04:19 8,3 °C 73 % 1008,8 hPa 0,0 mm 1,9 km/h (1 Bft) SW 231 ° 0 min 0,000 mm 0,0 UV-I 0 W/m² 3,8 °C 8,3 °C 4,8 km/h (1 Bft)
01.05.2018 04:20 8,3 °C 72 % 1008,7 hPa 0,0 mm 1,5 km/h (1 Bft) SW 231 ° 0 min 0,000 mm 0,0 UV-I 0 W/m² 3,6 °C 8,3 °C 4,8 km/h (1 Bft)
01.05.2018 04:21 8,4 °C 73 % 1008,7 hPa 0,0 mm 3,2 km/h (1 Bft) SW 227 ° 0 min 0,000 mm 0,0 UV-I 0 W/m² 3,8 °C 8,4 °C 4,8 km/h (1 Bft)
01.05.2018 04:22 8,4 °C 72 % 1008,7 hPa 0,0 mm 1,9 km/h (1 Bft) SW 227 ° 0 min 0,000 mm 0,0 UV-I 0 W/m² 3,7 °C 8,4 °C 3,2 km/h (1 Bft)
01.05.2018 04:23 8,4 °C 73 % 1008,7 hPa 0,0 mm 2,7 km/h (1 Bft) SW 226 ° 0 min 0,000 mm 0,0 UV-I 0 W/m² 3,8 °C 8,4 °C 4,8 km/h (1 Bft)
01.05.2018 04:24 8,4 °C 72 % 1008,6 hPa 0,0 mm 2,1 km/h (1 Bft) SW 225 ° 0 min 0,000 mm 0,0 UV-I 0 W/m² 3,7 °C 8,4 °C 4,8 km/h (1 Bft)
01.05.2018 04:25 8,4 °C 72 % 1008,6 hPa 0,0 mm 1,1 km/h (1 Bft) SW 223 ° 0 min 0,000 mm 0,0 UV-I 0 W/m² 3,7 °C 8,4 °C 6,4 km/h (2 Bft)
01.05.2018 04:26 8,4 °C 72 % 1008,6 hPa 0,0 mm 1,0 km/h (0 Bft) SW 223 ° 0 min 0,000 mm 0,0 UV-I 0 W/m² 3,7 °C 8,4 °C 4,8 km/h (1 Bft)
01.05.2018 04:27 8,4 °C 72 % 1008,7 hPa 0,0 mm 0,2 km/h (0 Bft) SW 223 ° 0 min 0,000 mm 0,0 UV-I 0 W/m² 3,7 °C 8,4 °C 1,6 km/h (1 Bft)
01.05.2018 04:28 8,4 °C 72 % 1008,7 hPa 0,0 mm 0,2 km/h (0 Bft) SW 223 ° 0 min 0,000 mm 0,0 UV-I 0 W/m² 3,7 °C 8,4 °C 1,6 km/h (1 Bft)
01.05.2018 04:29 8,4 °C 72 % 1008,7 hPa 0,0 mm 0,4 km/h (0 Bft) SW 223 ° 0 min 0,000 mm 0,0 UV-I 0 W/m² 3,7 °C 8,4 °C 1,6 km/h (1 Bft)
01.05.2018 04:30 8,4 °C 72 % 1008,7 hPa 0,0 mm 0,3 km/h (0 Bft) SW 223 ° 0 min 0,000 mm 0,0 UV-I 0 W/m² 3,7 °C 8,4 °C 1,6 km/h (1 Bft)
01.05.2018 04:31 8,4 °C 73 % 1008,7 hPa 0,0 mm 0,0 km/h (0 Bft) SW 223 ° 0 min 0,000 mm 0,0 UV-I 0 W/m² 3,8 °C 8,4 °C 0,0 km/h (0 Bft)
01.05.2018 04:32 8,4 °C 73 % 1008,7 hPa 0,0 mm 0,0 km/h (0 Bft) SW 223 ° 0 min 0,000 mm 0,0 UV-I 0 W/m² 3,8 °C 8,4 °C 0,0 km/h (0 Bft)
01.05.2018 04:33 8,4 °C 72 % 1008,7 hPa 0,0 mm 0,0 km/h (0 Bft) SW 223 ° 0 min 0,000 mm 0,0 UV-I 0 W/m² 3,7 °C 8,4 °C 0,0 km/h (0 Bft)
01.05.2018 04:34 8,4 °C 72 % 1008,7 hPa 0,0 mm 0,0 km/h (0 Bft) SW 223 ° 0 min 0,000 mm 0,0 UV-I 0 W/m² 3,7 °C 8,4 °C 0,0 km/h (0 Bft)
01.05.2018 04:35 8,3 °C 73 % 1008,7 hPa 0,0 mm 0,0 km/h (0 Bft) SW 223 ° 0 min 0,000 mm 0,0 UV-I 0 W/m² 3,8 °C 8,3 °C 0,0 km/h (0 Bft)
01.05.2018 04:36 8,3 °C 73 % 1008,7 hPa 0,0 mm 0,0 km/h (0 Bft) SW 223 ° 0 min 0,000 mm 0,0 UV-I 0 W/m² 3,8 °C 8,3 °C 0,0 km/h (0 Bft)
01.05.2018 04:37 8,3 °C 73 % 1008,7 hPa 0,0 mm 0,0 km/h (0 Bft) SW 223 ° 0 min 0,000 mm 0,0 UV-I 0 W/m² 3,8 °C 8,3 °C 0,0 km/h (0 Bft)
01.05.2018 04:38 8,3 °C 73 % 1008,7 hPa 0,0 mm 0,0 km/h (0 Bft) SW 223 ° 0 min 0,000 mm 0,0 UV-I 0 W/m² 3,8 °C 8,3 °C 0,0 km/h (0 Bft)
01.05.2018 04:39 8,2 °C 73 % 1008,7 hPa 0,0 mm 0,0 km/h (0 Bft) SW 223 ° 0 min 0,000 mm 0,0 UV-I 0 W/m² 3,7 °C 8,2 °C 0,0 km/h (0 Bft)
01.05.2018 04:40 8,2 °C 73 % 1008,7 hPa 0,0 mm 0,0 km/h (0 Bft) SW 223 ° 0 min 0,000 mm 0,0 UV-I 0 W/m² 3,7 °C 8,2 °C 0,0 km/h (0 Bft)
01.05.2018 04:41 8,2 °C 74 % 1008,7 hPa 0,0 mm 0,0 km/h (0 Bft) SW 223 ° 0 min 0,000 mm 0,0 UV-I 0 W/m² 3,8 °C 8,2 °C 0,0 km/h (0 Bft)
01.05.2018 04:42 8,2 °C 74 % 1008,7 hPa 0,0 mm 0,0 km/h (0 Bft) SW 223 ° 0 min 0,000 mm 0,0 UV-I 0 W/m² 3,8 °C 8,2 °C 0,0 km/h (0 Bft)
01.05.2018 04:43 8,1 °C 74 % 1008,7 hPa 0,0 mm 0,0 km/h (0 Bft) SW 223 ° 0 min 0,000 mm 0,0 UV-I 0 W/m² 3,8 °C 8,1 °C 0,0 km/h (0 Bft)
01.05.2018 04:44 8,1 °C 74 % 1008,7 hPa 0,0 mm 0,0 km/h (0 Bft) SW 223 ° 0 min 0,000 mm 0,0 UV-I 0 W/m² 3,8 °C 8,1 °C 0,0 km/h (0 Bft)
01.05.2018 04:45 8,1 °C 74 % 1008,7 hPa 0,0 mm 0,0 km/h (0 Bft) SW 223 ° 0 min 0,000 mm 0,0 UV-I 0 W/m² 3,8 °C 8,1 °C 0,0 km/h (0 Bft)
01.05.2018 04:46 8,1 °C 74 % 1008,7 hPa 0,0 mm 0,0 km/h (0 Bft) SW 223 ° 0 min 0,000 mm 0,0 UV-I 0 W/m² 3,8 °C 8,1 °C 0,0 km/h (0 Bft)
01.05.2018 04:47 8,1 °C 75 % 1008,7 hPa 0,0 mm 0,0 km/h (0 Bft) SW 223 ° 0 min 0,000 mm 0,0 UV-I 0 W/m² 3,9 °C 8,1 °C 0,0 km/h (0 Bft)
01.05.2018 04:48 8,1 °C 74 % 1008,7 hPa 0,0 mm 0,0 km/h (0 Bft) SW 223 ° 0 min 0,000 mm 0,0 UV-I 0 W/m² 3,8 °C 8,1 °C 0,0 km/h (0 Bft)
01.05.2018 04:49 8,0 °C 75 % 1008,6 hPa 0,0 mm 0,0 km/h (0 Bft) SW 223 ° 0 min 0,000 mm 0,0 UV-I 0 W/m² 3,8 °C 8,0 °C 0,0 km/h (0 Bft)
01.05.2018 04:50 8,0 °C 75 % 1008,6 hPa 0,0 mm 0,0 km/h (0 Bft) SW 223 ° 0 min 0,000 mm 0,0 UV-I 0 W/m² 3,8 °C 8,0 °C 0,0 km/h (0 Bft)
01.05.2018 04:51 8,0 °C 75 % 1008,6 hPa 0,0 mm 0,0 km/h (0 Bft) SW 223 ° 0 min 0,000 mm 0,0 UV-I 0 W/m² 3,8 °C 8,0 °C 0,0 km/h (0 Bft)
01.05.2018 04:52 7,9 °C 75 % 1008,6 hPa 0,0 mm 0,0 km/h (0 Bft) SW 223 ° 0 min 0,000 mm 0,0 UV-I 0 W/m² 3,7 °C 7,9 °C 0,0 km/h (0 Bft)
01.05.2018 04:53 8,0 °C 75 % 1008,6 hPa 0,0 mm 0,0 km/h (0 Bft) SW 223 ° 0 min 0,000 mm 0,0 UV-I 0 W/m² 3,8 °C 8,0 °C 0,0 km/h (0 Bft)
01.05.2018 04:54 8,0 °C 75 % 1008,5 hPa 0,0 mm 0,0 km/h (0 Bft) SW 223 ° 0 min 0,000 mm 0,0 UV-I 0 W/m² 3,8 °C 8,0 °C 0,0 km/h (0 Bft)
01.05.2018 04:55 8,0 °C 74 % 1008,6 hPa 0,0 mm 0,0 km/h (0 Bft) SW 223 ° 0 min 0,000 mm 0,0 UV-I 0 W/m² 3,7 °C 8,0 °C 0,0 km/h (0 Bft)
01.05.2018 04:56 8,1 °C 74 % 1008,6 hPa 0,0 mm 0,0 km/h (0 Bft) SW 223 ° 0 min 0,000 mm 0,0 UV-I 0 W/m² 3,8 °C 8,1 °C 0,0 km/h (0 Bft)
01.05.2018 04:57 8,1 °C 74 % 1008,5 hPa 0,0 mm 0,0 km/h (0 Bft) SW 223 ° 0 min 0,000 mm 0,0 UV-I 0 W/m² 3,8 °C 8,1 °C 0,0 km/h (0 Bft)
01.05.2018 04:58 8,1 °C 74 % 1008,5 hPa 0,0 mm 0,0 km/h (0 Bft) SW 223 ° 0 min 0,000 mm 0,0 UV-I 0 W/m² 3,8 °C 8,1 °C 0,0 km/h (0 Bft)
01.05.2018 04:59 8,2 °C 74 % 1008,5 hPa 0,0 mm 0,0 km/h (0 Bft) SW 223 ° 0 min 0,000 mm 0,0 UV-I 0 W/m² 3,8 °C 8,2 °C 0,0 km/h (0 Bft)
01.05.2018 05:00 8,2 °C 74 % 1008,5 hPa 0,0 mm 0,0 km/h (0 Bft) SW 223 ° 0 min 0,000 mm 0,0 UV-I 0 W/m² 3,8 °C 8,2 °C 0,0 km/h (0 Bft)
01.05.2018 05:01 8,2 °C 75 % 1008,6 hPa 0,0 mm 0,0 km/h (0 Bft) SW 223 ° 0 min 0,025 mm 0,0 UV-I 0 W/m² 4,0 °C 8,2 °C 0,0 km/h (0 Bft)
01.05.2018 05:02 8,1 °C 74 % 1008,6 hPa 0,0 mm 0,0 km/h (0 Bft) SW 223 ° 0 min 0,000 mm 0,0 UV-I 0 W/m² 3,8 °C 8,1 °C 0,0 km/h (0 Bft)
01.05.2018 05:03 8,1 °C 74 % 1008,5 hPa 0,0 mm 0,0 km/h (0 Bft) SW 223 ° 0 min 0,000 mm 0,0 UV-I 0 W/m² 3,8 °C 8,1 °C 0,0 km/h (0 Bft)
01.05.2018 05:04 8,1 °C 75 % 1008,6 hPa 0,0 mm 0,0 km/h (0 Bft) SW 223 ° 0 min 0,000 mm 0,0 UV-I 0 W/m² 3,9 °C 8,1 °C 0,0 km/h (0 Bft)
01.05.2018 05:05 8,1 °C 75 % 1008,5 hPa 0,0 mm 0,0 km/h (0 Bft) SW 223 ° 0 min 0,000 mm 0,0 UV-I 0 W/m² 3,9 °C 8,1 °C 0,0 km/h (0 Bft)
01.05.2018 05:06 8,1 °C 75 % 1008,5 hPa 0,0 mm 0,0 km/h (0 Bft) SW 223 ° 0 min 0,000 mm 0,0 UV-I 0 W/m² 3,9 °C 8,1 °C 0,0 km/h (0 Bft)
01.05.2018 05:07 8,1 °C 74 % 1008,5 hPa 0,0 mm 0,0 km/h (0 Bft) SW 223 ° 0 min 0,000 mm 0,0 UV-I 0 W/m² 3,8 °C 8,1 °C 0,0 km/h (0 Bft)
01.05.2018 05:08 8,1 °C 74 % 1008,5 hPa 0,0 mm 0,0 km/h (0 Bft) SW 223 ° 0 min 0,000 mm 0,0 UV-I 0 W/m² 3,8 °C 8,1 °C 0,0 km/h (0 Bft)
01.05.2018 05:09 8,2 °C 74 % 1008,5 hPa 0,0 mm 0,0 km/h (0 Bft) SW 223 ° 0 min 0,000 mm 0,0 UV-I 0 W/m² 3,8 °C 8,2 °C 0,0 km/h (0 Bft)
01.05.2018 05:10 8,2 °C 74 % 1008,5 hPa 0,0 mm 0,0 km/h (0 Bft) SW 223 ° 0 min 0,000 mm 0,0 UV-I 0 W/m² 3,8 °C 8,2 °C 0,0 km/h (0 Bft)
01.05.2018 05:11 8,2 °C 74 % 1008,5 hPa 0,0 mm 0,0 km/h (0 Bft) SW 223 ° 0 min 0,000 mm 0,0 UV-I 0 W/m² 3,8 °C 8,2 °C 0,0 km/h (0 Bft)
01.05.2018 05:12 8,2 °C 74 % 1008,5 hPa 0,0 mm 0,0 km/h (0 Bft) SW 223 ° 0 min 0,000 mm 0,0 UV-I 0 W/m² 3,8 °C 8,2 °C 0,0 km/h (0 Bft)
01.05.2018 05:13 8,2 °C 75 % 1008,5 hPa 0,0 mm 0,0 km/h (0 Bft) SW 223 ° 0 min 0,000 mm 0,0 UV-I 0 W/m² 4,0 °C 8,2 °C 0,0 km/h (0 Bft)
01.05.2018 05:14 8,2 °C 74 % 1008,5 hPa 0,0 mm 0,0 km/h (0 Bft) SW 223 ° 0 min 0,000 mm 0,0 UV-I 0 W/m² 3,8 °C 8,2 °C 0,0 km/h (0 Bft)
01.05.2018 05:15 8,2 °C 74 % 1008,5 hPa 0,0 mm 0,0 km/h (0 Bft) SW 223 ° 0 min 0,000 mm 0,0 UV-I 0 W/m² 3,8 °C 8,2 °C 0,0 km/h (0 Bft)
01.05.2018 05:16 8,2 °C 75 % 1008,5 hPa 0,0 mm 0,0 km/h (0 Bft) SW 223 ° 0 min 0,000 mm 0,0 UV-I 0 W/m² 4,0 °C 8,2 °C 0,0 km/h (0 Bft)
01.05.2018 05:17 8,2 °C 74 % 1008,5 hPa 0,0 mm 1,5 km/h (1 Bft) SW 223 ° 0 min 0,000 mm 0,0 UV-I 0 W/m² 3,8 °C 8,2 °C 3,2 km/h (1 Bft)
01.05.2018 05:18 8,2 °C 74 % 1008,5 hPa 0,0 mm 1,1 km/h (1 Bft) SW 223 ° 0 min 0,000 mm 0,0 UV-I 0 W/m² 3,8 °C 8,2 °C 3,2 km/h (1 Bft)
01.05.2018 05:19 8,2 °C 74 % 1008,6 hPa 0,0 mm 2,1 km/h (1 Bft) SW 223 ° 0 min 0,000 mm 0,0 UV-I 0 W/m² 3,8 °C 8,2 °C 3,2 km/h (1 Bft)
01.05.2018 05:20 8,2 °C 74 % 1008,5 hPa 0,0 mm 0,9 km/h (0 Bft) SW 223 ° 0 min 0,000 mm 0,0 UV-I 0 W/m² 3,8 °C 8,2 °C 3,2 km/h (1 Bft)
01.05.2018 05:21 8,2 °C 75 % 1008,6 hPa 0,0 mm 2,5 km/h (1 Bft) SW 223 ° 0 min 0,000 mm 0,0 UV-I 0 W/m² 4,0 °C 8,2 °C 3,2 km/h (1 Bft)
01.05.2018 05:22 8,2 °C 74 % 1008,5 hPa 0,0 mm 2,2 km/h (1 Bft) SW 223 ° 0 min 0,000 mm 0,0 UV-I 0 W/m² 3,8 °C 8,2 °C 3,2 km/h (1 Bft)
01.05.2018 05:23 8,2 °C 74 % 1008,6 hPa 0,0 mm 0,5 km/h (0 Bft) SW 223 ° 0 min 0,000 mm 0,0 UV-I 0 W/m² 3,8 °C 8,2 °C 1,6 km/h (1 Bft)
01.05.2018 05:24 8,2 °C 75 % 1008,6 hPa 0,0 mm 3,2 km/h (1 Bft) SW 222 ° 0 min 0,000 mm 0,0 UV-I 0 W/m² 4,0 °C 8,2 °C 6,4 km/h (2 Bft)
01.05.2018 05:25 8,2 °C 75 % 1008,6 hPa 0,0 mm 2,9 km/h (1 Bft) SW 222 ° 0 min 0,000 mm 0,0 UV-I 0 W/m² 4,0 °C 8,2 °C 4,8 km/h (1 Bft)
01.05.2018 05:26 8,2 °C 75 % 1008,5 hPa 0,0 mm 1,7 km/h (1 Bft) SW 217 ° 0 min 0,000 mm 0,0 UV-I 0 W/m² 4,0 °C 8,2 °C 4,8 km/h (1 Bft)
01.05.2018 05:27 8,2 °C 75 % 1008,5 hPa 0,0 mm 2,9 km/h (1 Bft) SW 217 ° 0 min 0,000 mm 0,0 UV-I 0 W/m² 4,0 °C 8,2 °C 4,8 km/h (1 Bft)
01.05.2018 05:28 8,2 °C 75 % 1008,5 hPa 0,0 mm 3,6 km/h (1 Bft) SW 217 ° 0 min 0,000 mm 0,0 UV-I 0 W/m² 4,0 °C 8,2 °C 4,8 km/h (1 Bft)
01.05.2018 05:29 8,2 °C 75 % 1008,5 hPa 0,0 mm 2,5 km/h (1 Bft) SW 217 ° 0 min 0,000 mm 0,0 UV-I 0 W/m² 4,0 °C 8,2 °C 3,2 km/h (1 Bft)
01.05.2018 05:30 8,1 °C 76 % 1008,6 hPa 0,0 mm 2,0 km/h (1 Bft) SW 217 ° 0 min 0,000 mm 0,0 UV-I 0 W/m² 4,1 °C 8,1 °C 3,2 km/h (1 Bft)
01.05.2018 05:31 8,1 °C 75 % 1008,5 hPa 0,0 mm 2,2 km/h (1 Bft) SW 217 ° 0 min 0,000 mm 0,0 UV-I 0 W/m² 3,9 °C 8,1 °C 3,2 km/h (1 Bft)
01.05.2018 05:32 8,1 °C 74 % 1008,5 hPa 0,0 mm 2,5 km/h (1 Bft) SW 217 ° 0 min 0,000 mm 0,0 UV-I 0 W/m² 3,8 °C 8,1 °C 3,2 km/h (1 Bft)
01.05.2018 05:33 8,2 °C 75 % 1008,5 hPa 0,0 mm 2,3 km/h (1 Bft) SW 217 ° 0 min 0,000 mm 0,0 UV-I 0 W/m² 4,0 °C 8,2 °C 3,2 km/h (1 Bft)
01.05.2018 05:34 8,2 °C 75 % 1008,5 hPa 0,0 mm 4,0 km/h (1 Bft) SW 217 ° 0 min 0,000 mm 0,0 UV-I 0 W/m² 4,0 °C 8,2 °C 4,8 km/h (1 Bft)
01.05.2018 05:35 8,2 °C 75 % 1008,5 hPa 0,0 mm 2,1 km/h (1 Bft) SW 217 ° 0 min 0,000 mm 0,0 UV-I 0 W/m² 4,0 °C 8,2 °C 3,2 km/h (1 Bft)
01.05.2018 05:36 8,2 °C 75 % 1008,5 hPa 0,0 mm 0,6 km/h (0 Bft) SW 217 ° 0 min 0,000 mm 0,0 UV-I 0 W/m² 4,0 °C 8,2 °C 1,6 km/h (1 Bft)
01.05.2018 05:37 8,2 °C 75 % 1008,6 hPa 0,0 mm 1,4 km/h (1 Bft) SW 217 ° 0 min 0,000 mm 0,0 UV-I 0 W/m² 4,0 °C 8,2 °C 3,2 km/h (1 Bft)
01.05.2018 05:38 8,2 °C 74 % 1008,6 hPa 0,0 mm 0,7 km/h (0 Bft) SW 217 ° 0 min 0,000 mm 0,0 UV-I 0 W/m² 3,8 °C 8,2 °C 3,2 km/h (1 Bft)
01.05.2018 05:39 8,2 °C 75 % 1008,6 hPa 0,0 mm 2,4 km/h (1 Bft) SW 217 ° 0 min 0,000 mm 0,0 UV-I 0 W/m² 4,0 °C 8,2 °C 3,2 km/h (1 Bft)
01.05.2018 05:40 8,2 °C 75 % 1008,6 hPa 0,0 mm 1,9 km/h (1 Bft) SW 217 ° 0 min 0,000 mm 0,0 UV-I 0 W/m² 4,0 °C 8,2 °C 3,2 km/h (1 Bft)
01.05.2018 05:41 8,2 °C 75 % 1008,6 hPa 0,0 mm 3,4 km/h (1 Bft) S-SW 213 ° 0 min 0,000 mm 0,0 UV-I 0 W/m² 4,0 °C 8,2 °C 4,8 km/h (1 Bft)
01.05.2018 05:42 8,2 °C 75 % 1008,6 hPa 0,0 mm 4,2 km/h (1 Bft) S-SW 213 ° 0 min 0,000 mm 0,0 UV-I 0 W/m² 4,0 °C 8,2 °C 4,8 km/h (1 Bft)
01.05.2018 05:43 8,2 °C 75 % 1008,6 hPa 0,0 mm 4,2 km/h (1 Bft) S-SW 212 ° 0 min 0,000 mm 0,0 UV-I 0 W/m² 4,0 °C 8,2 °C 4,8 km/h (1 Bft)
01.05.2018 05:44 8,1 °C 75 % 1008,7 hPa 0,0 mm 4,3 km/h (1 Bft) S-SW 212 ° 0 min 0,000 mm 0,0 UV-I 0 W/m² 3,9 °C 8,1 °C 4,8 km/h (1 Bft)
01.05.2018 05:45 8,1 °C 75 % 1008,7 hPa 0,0 mm 4,1 km/h (1 Bft) S-SW 212 ° 0 min 0,000 mm 0,0 UV-I 0 W/m² 3,9 °C 8,1 °C 4,8 km/h (1 Bft)
01.05.2018 05:46 8,1 °C 75 % 1008,7 hPa 0,0 mm 3,0 km/h (1 Bft) S-SW 212 ° 0 min 0,000 mm 0,0 UV-I 0 W/m² 3,9 °C 8,1 °C 4,8 km/h (1 Bft)
01.05.2018 05:47 8,1 °C 76 % 1008,7 hPa 0,0 mm 2,8 km/h (1 Bft) S-SW 211 ° 0 min 0,000 mm 0,0 UV-I 0 W/m² 4,1 °C 8,1 °C 6,4 km/h (2 Bft)
01.05.2018 05:48 8,1 °C 76 % 1008,7 hPa 0,0 mm 6,0 km/h (2 Bft) S-SW 192 ° 0 min 0,000 mm 0,0 UV-I 0 W/m² 4,1 °C 7,3 °C 6,4 km/h (2 Bft)
01.05.2018 05:49 8,1 °C 76 % 1008,8 hPa 0,0 mm 4,9 km/h (1 Bft) S-SW 196 ° 0 min 0,000 mm 0,0 UV-I 0 W/m² 4,1 °C 7,6 °C 6,4 km/h (2 Bft)
01.05.2018 05:50 8,1 °C 77 % 1008,8 hPa 0,0 mm 3,0 km/h (1 Bft) S-SW 196 ° 0 min 0,000 mm 0,0 UV-I 0 W/m² 4,3 °C 8,1 °C 4,8 km/h (1 Bft)
01.05.2018 05:51 8,0 °C 77 % 1008,8 hPa 0,0 mm 2,1 km/h (1 Bft) S-SW 196 ° 0 min 0,000 mm 0,0 UV-I 0 W/m² 4,2 °C 8,0 °C 4,8 km/h (1 Bft)
01.05.2018 05:52 7,9 °C 77 % 1008,8 hPa 0,0 mm 1,7 km/h (1 Bft) S-SW 196 ° 0 min 0,000 mm 0,0 UV-I 0 W/m² 4,1 °C 7,9 °C 3,2 km/h (1 Bft)
01.05.2018 05:53 7,9 °C 77 % 1008,8 hPa 0,0 mm 2,9 km/h (1 Bft) S-SW 196 ° 0 min 0,000 mm 0,0 UV-I 0 W/m² 4,1 °C 7,9 °C 6,4 km/h (2 Bft)
01.05.2018 05:54 7,9 °C 76 % 1008,8 hPa 0,0 mm 5,9 km/h (2 Bft) S-SW 200 ° 0 min 0,000 mm 0,0 UV-I 0 W/m² 3,9 °C 7,1 °C 8,0 km/h (2 Bft)
01.05.2018 05:55 7,9 °C 76 % 1008,9 hPa 0,0 mm 4,7 km/h (1 Bft) S-SW 198 ° 0 min 0,000 mm 0,0 UV-I 0 W/m² 3,9 °C 7,5 °C 8,0 km/h (2 Bft)
01.05.2018 05:56 8,0 °C 76 % 1008,9 hPa 0,0 mm 5,2 km/h (1 Bft) S-SW 192 ° 0 min 0,000 mm 0,0 UV-I 0 W/m² 4,0 °C 7,4 °C 8,0 km/h (2 Bft)
01.05.2018 05:57 8,0 °C 75 % 1008,9 hPa 0,0 mm 2,6 km/h (1 Bft) S-SW 209 ° 0 min 0,000 mm 0,0 UV-I 0 W/m² 3,8 °C 8,0 °C 3,2 km/h (1 Bft)
01.05.2018 05:58 8,1 °C 76 % 1008,9 hPa 0,0 mm 5,7 km/h (1 Bft) S-SW 198 ° 0 min 0,000 mm 0,0 UV-I 0 W/m² 4,1 °C 7,4 °C 8,0 km/h (2 Bft)
01.05.2018 05:59 8,0 °C 76 % 1009,0 hPa 0,0 mm 4,2 km/h (1 Bft) S-SW 194 ° 0 min 0,000 mm 0,0 UV-I 0 W/m² 4,0 °C 8,0 °C 8,0 km/h (2 Bft)
01.05.2018 06:00 8,1 °C 76 % 1009,0 hPa 0,0 mm 5,0 km/h (1 Bft) S-SW 192 ° 0 min 0,000 mm 0,0 UV-I 0 W/m² 4,1 °C 7,6 °C 6,4 km/h (2 Bft)
01.05.2018 06:01 8,1 °C 76 % 1008,9 hPa 0,0 mm 3,8 km/h (1 Bft) S 191 ° 0 min 0,000 mm 0,0 UV-I 0 W/m² 4,1 °C 8,1 °C 8,0 km/h (2 Bft)
01.05.2018 06:02 8,1 °C 76 % 1009,0 hPa 0,0 mm 4,2 km/h (1 Bft) S-SW 192 ° 0 min 0,000 mm 0,0 UV-I 0 W/m² 4,1 °C 8,1 °C 4,8 km/h (1 Bft)
01.05.2018 06:03 8,1 °C 76 % 1009,0 hPa 0,0 mm 3,8 km/h (1 Bft) S-SW 192 ° 0 min 0,000 mm 0,0 UV-I 0 W/m² 4,1 °C 8,1 °C 6,4 km/h (2 Bft)
01.05.2018 06:04 8,1 °C 76 % 1009,0 hPa 0,0 mm 4,7 km/h (1 Bft) S 190 ° 0 min 0,000 mm 0,0 UV-I 0 W/m² 4,1 °C 7,7 °C 6,4 km/h (2 Bft)
01.05.2018 06:05 8,1 °C 75 % 1009,0 hPa 0,0 mm 3,9 km/h (1 Bft) S-SW 192 ° 0 min 0,000 mm 0,0 UV-I 0 W/m² 3,9 °C 8,1 °C 4,8 km/h (1 Bft)
01.05.2018 06:06 8,1 °C 75 % 1009,0 hPa 0,0 mm 1,6 km/h (1 Bft) S-SW 192 ° 0 min 0,000 mm 0,0 UV-I 0 W/m² 3,9 °C 8,1 °C 3,2 km/h (1 Bft)
01.05.2018 06:07 8,1 °C 75 % 1009,0 hPa 0,0 mm 1,8 km/h (1 Bft) S-SW 192 ° 0 min 0,000 mm 0,0 UV-I 5 W/m² 3,9 °C 8,1 °C 3,2 km/h (1 Bft)
01.05.2018 06:08 8,2 °C 75 % 1009,0 hPa 0,0 mm 1,3 km/h (1 Bft) S-SW 192 ° 0 min 0,000 mm 0,0 UV-I 5 W/m² 4,0 °C 8,2 °C 3,2 km/h (1 Bft)
01.05.2018 06:09 8,1 °C 75 % 1008,9 hPa 0,0 mm 1,9 km/h (1 Bft) S-SW 192 ° 0 min 0,000 mm 0,0 UV-I 5 W/m² 3,9 °C 8,1 °C 4,8 km/h (1 Bft)
01.05.2018 06:10 8,2 °C 75 % 1009,0 hPa 0,0 mm 1,7 km/h (1 Bft) S-SW 192 ° 0 min 0,000 mm 0,0 UV-I 5 W/m² 4,0 °C 8,2 °C 3,2 km/h (1 Bft)
01.05.2018 06:11 8,1 °C 75 % 1008,9 hPa 0,0 mm 1,1 km/h (1 Bft) S-SW 198 ° 0 min 0,000 mm 0,0 UV-I 7 W/m² 3,9 °C 8,1 °C 3,2 km/h (1 Bft)
01.05.2018 06:12 8,2 °C 75 % 1008,9 hPa 0,0 mm 1,4 km/h (1 Bft) SW 225 ° 0 min 0,000 mm 0,0 UV-I 7 W/m² 4,0 °C 8,2 °C 3,2 km/h (1 Bft)
01.05.2018 06:13 8,2 °C 74 % 1009,0 hPa 0,0 mm 1,5 km/h (1 Bft) SW 225 ° 0 min 0,000 mm 0,0 UV-I 7 W/m² 3,8 °C 8,2 °C 3,2 km/h (1 Bft)
01.05.2018 06:14 8,2 °C 74 % 1009,0 hPa 0,0 mm 0,0 km/h (0 Bft) SW 225 ° 0 min 0,000 mm 0,0 UV-I 7 W/m² 3,8 °C 8,2 °C 0,0 km/h (0 Bft)
01.05.2018 06:15 8,2 °C 74 % 1008,9 hPa 0,0 mm 0,0 km/h (0 Bft) SW 225 ° 0 min 0,000 mm 0,0 UV-I 9 W/m² 3,8 °C 8,2 °C 0,0 km/h (0 Bft)
01.05.2018 06:16 8,2 °C 74 % 1009,0 hPa 0,0 mm 0,0 km/h (0 Bft) SW 225 ° 0 min 0,000 mm 0,0 UV-I 9 W/m² 3,8 °C 8,2 °C 0,0 km/h (0 Bft)
01.05.2018 06:17 8,2 °C 75 % 1008,9 hPa 0,0 mm 0,0 km/h (0 Bft) SW 225 ° 0 min 0,000 mm 0,0 UV-I 9 W/m² 4,0 °C 8,2 °C 0,0 km/h (0 Bft)
01.05.2018 06:18 8,2 °C 75 % 1008,9 hPa 0,0 mm 0,0 km/h (0 Bft) SW 225 ° 0 min 0,000 mm 0,0 UV-I 9 W/m² 4,0 °C 8,2 °C 0,0 km/h (0 Bft)
01.05.2018 06:19 8,2 °C 74 % 1009,0 hPa 0,0 mm 0,0 km/h (0 Bft) SW 225 ° 0 min 0,000 mm 0,0 UV-I 11 W/m² 3,8 °C 8,2 °C 0,0 km/h (0 Bft)
01.05.2018 06:20 8,1 °C 75 % 1009,0 hPa 0,0 mm 0,0 km/h (0 Bft) SW 225 ° 0 min 0,000 mm 0,0 UV-I 11 W/m² 3,9 °C 8,1 °C 0,0 km/h (0 Bft)
01.05.2018 06:21 8,1 °C 75 % 1009,0 hPa 0,0 mm 0,0 km/h (0 Bft) SW 225 ° 0 min 0,000 mm 0,0 UV-I 11 W/m² 3,9 °C 8,1 °C 0,0 km/h (0 Bft)
01.05.2018 06:22 8,1 °C 75 % 1009,0 hPa 0,0 mm 0,0 km/h (0 Bft) SW 225 ° 0 min 0,000 mm 0,0 UV-I 12 W/m² 3,9 °C 8,1 °C 0,0 km/h (0 Bft)
01.05.2018 06:23 8,1 °C 75 % 1009,0 hPa 0,0 mm 0,3 km/h (0 Bft) SW 225 ° 0 min 0,000 mm 0,0 UV-I 14 W/m² 3,9 °C 8,1 °C 1,6 km/h (1 Bft)
01.05.2018 06:24 8,1 °C 75 % 1009,0 hPa 0,0 mm 0,7 km/h (0 Bft) SW 225 ° 0 min 0,000 mm 0,0 UV-I 14 W/m² 3,9 °C 8,1 °C 3,2 km/h (1 Bft)
01.05.2018 06:25 8,0 °C 75 % 1009,0 hPa 0,0 mm 0,2 km/h (0 Bft) SW 225 ° 0 min 0,000 mm 0,0 UV-I 14 W/m² 3,8 °C 8,0 °C 1,6 km/h (1 Bft)
01.05.2018 06:26 8,0 °C 76 % 1009,1 hPa 0,0 mm 0,1 km/h (0 Bft) SW 225 ° 0 min 0,000 mm 0,0 UV-I 14 W/m² 4,0 °C 8,0 °C 1,6 km/h (1 Bft)
01.05.2018 06:27 8,0 °C 76 % 1009,1 hPa 0,0 mm 0,0 km/h (0 Bft) SW 225 ° 0 min 0,000 mm 0,0 UV-I 14 W/m² 4,0 °C 8,0 °C 0,0 km/h (0 Bft)
01.05.2018 06:28 8,0 °C 75 % 1009,1 hPa 0,0 mm 0,0 km/h (0 Bft) SW 225 ° 0 min 0,000 mm 0,0 UV-I 14 W/m² 3,8 °C 8,0 °C 0,0 km/h (0 Bft)
01.05.2018 06:29 8,0 °C 76 % 1009,3 hPa 0,0 mm 0,0 km/h (0 Bft) SW 225 ° 0 min 0,000 mm 0,0 UV-I 16 W/m² 4,0 °C 8,0 °C 0,0 km/h (0 Bft)
01.05.2018 06:30 8,0 °C 76 % 1009,3 hPa 0,0 mm 1,3 km/h (1 Bft) SW 225 ° 0 min 0,000 mm 0,0 UV-I 16 W/m² 4,0 °C 8,0 °C 3,2 km/h (1 Bft)
01.05.2018 06:31 8,0 °C 76 % 1009,3 hPa 0,0 mm 2,4 km/h (1 Bft) SW 225 ° 0 min 0,000 mm 0,0 UV-I 16 W/m² 4,0 °C 8,0 °C 3,2 km/h (1 Bft)
01.05.2018 06:32 8,0 °C 76 % 1009,3 hPa 0,0 mm 1,3 km/h (1 Bft) SW 225 ° 0 min 0,000 mm 0,0 UV-I 16 W/m² 4,0 °C 8,0 °C 1,6 km/h (1 Bft)
01.05.2018 06:33 8,0 °C 76 % 1009,4 hPa 0,0 mm 1,5 km/h (1 Bft) SW 225 ° 0 min 0,000 mm 0,0 UV-I 16 W/m² 4,0 °C 8,0 °C 1,6 km/h (1 Bft)
01.05.2018 06:34 8,1 °C 76 % 1009,4 hPa 0,0 mm 1,3 km/h (1 Bft) SW 225 ° 0 min 0,000 mm 0,0 UV-I 16 W/m² 4,1 °C 8,1 °C 4,8 km/h (1 Bft)
01.05.2018 06:35 8,1 °C 76 % 1009,3 hPa 0,0 mm 1,4 km/h (1 Bft) SW 225 ° 0 min 0,000 mm 0,0 UV-I 19 W/m² 4,1 °C 8,1 °C 1,6 km/h (1 Bft)
01.05.2018 06:36 8,1 °C 76 % 1009,3 hPa 0,0 mm 0,8 km/h (0 Bft) SW 225 ° 0 min 0,000 mm 0,0 UV-I 21 W/m² 4,1 °C 8,1 °C 1,6 km/h (1 Bft)
01.05.2018 06:37 8,0 °C 76 % 1009,4 hPa 0,0 mm 0,0 km/h (0 Bft) SW 225 ° 0 min 0,000 mm 0,0 UV-I 21 W/m² 4,0 °C 8,0 °C 0,0 km/h (0 Bft)
01.05.2018 06:38 8,0 °C 77 % 1009,4 hPa 0,0 mm 0,0 km/h (0 Bft) SW 225 ° 0 min 0,000 mm 0,0 UV-I 23 W/m² 4,2 °C 8,0 °C 0,0 km/h (0 Bft)
01.05.2018 06:39 8,0 °C 77 % 1009,3 hPa 0,0 mm 0,0 km/h (0 Bft) SW 225 ° 0 min 0,000 mm 0,0 UV-I 23 W/m² 4,2 °C 8,0 °C 0,0 km/h (0 Bft)
01.05.2018 06:40 7,9 °C 77 % 1009,4 hPa 0,0 mm 0,0 km/h (0 Bft) SW 225 ° 0 min 0,000 mm 0,0 UV-I 26 W/m² 4,1 °C 7,9 °C 0,0 km/h (0 Bft)
01.05.2018 06:41 7,9 °C 77 % 1009,4 hPa 0,0 mm 0,1 km/h (0 Bft) SW 225 ° 0 min 0,000 mm 0,0 UV-I 28 W/m² 4,1 °C 7,9 °C 1,6 km/h (1 Bft)
01.05.2018 06:42 8,0 °C 77 % 1009,4 hPa 0,0 mm 3,2 km/h (1 Bft) W 263 ° 0 min 0,000 mm 0,0 UV-I 28 W/m² 4,2 °C 8,0 °C 4,8 km/h (1 Bft)
01.05.2018 06:43 7,9 °C 79 % 1009,4 hPa 0,0 mm 1,9 km/h (1 Bft) W 263 ° 0 min 0,000 mm 0,0 UV-I 30 W/m² 4,5 °C 7,9 °C 3,2 km/h (1 Bft)
01.05.2018 06:44 7,9 °C 78 % 1009,4 hPa 0,0 mm 0,6 km/h (0 Bft) W 263 ° 0 min 0,000 mm 0,0 UV-I 32 W/m² 4,3 °C 7,9 °C 3,2 km/h (1 Bft)
01.05.2018 06:45 8,0 °C 77 % 1009,4 hPa 0,0 mm 0,1 km/h (0 Bft) W 263 ° 0 min 0,000 mm 0,0 UV-I 33 W/m² 4,2 °C 8,0 °C 1,6 km/h (1 Bft)
01.05.2018 06:46 7,9 °C 78 % 1009,4 hPa 0,0 mm 0,3 km/h (0 Bft) W 263 ° 0 min 0,000 mm 0,0 UV-I 35 W/m² 4,3 °C 7,9 °C 1,6 km/h (1 Bft)
01.05.2018 06:47 7,9 °C 79 % 1009,4 hPa 0,0 mm 0,1 km/h (0 Bft) W 263 ° 0 min 0,000 mm 0,0 UV-I 39 W/m² 4,5 °C 7,9 °C 1,6 km/h (1 Bft)
01.05.2018 06:48 7,9 °C 78 % 1009,4 hPa 0,0 mm 1,9 km/h (1 Bft) W 263 ° 0 min 0,000 mm 0,0 UV-I 40 W/m² 4,3 °C 7,9 °C 3,2 km/h (1 Bft)
01.05.2018 06:49 7,9 °C 78 % 1009,4 hPa 0,0 mm 1,1 km/h (1 Bft) W 263 ° 0 min 0,000 mm 0,0 UV-I 42 W/m² 4,3 °C 7,9 °C 3,2 km/h (1 Bft)
01.05.2018 06:50 7,9 °C 78 % 1009,5 hPa 0,0 mm 0,0 km/h (0 Bft) W 263 ° 0 min 0,000 mm 0,0 UV-I 44 W/m² 4,3 °C 7,9 °C 0,0 km/h (0 Bft)
01.05.2018 06:51 8,0 °C 78 % 1009,5 hPa 0,0 mm 0,6 km/h (0 Bft) W 263 ° 0 min 0,000 mm 0,0 UV-I 46 W/m² 4,4 °C 8,0 °C 1,6 km/h (1 Bft)
01.05.2018 06:52 8,0 °C 78 % 1009,6 hPa 0,0 mm 0,0 km/h (0 Bft) W 263 ° 0 min 0,000 mm 0,0 UV-I 47 W/m² 4,4 °C 8,0 °C 0,0 km/h (0 Bft)
01.05.2018 06:53 8,1 °C 79 % 1009,6 hPa 0,0 mm 0,0 km/h (0 Bft) W 263 ° 0 min 0,000 mm 0,0 UV-I 49 W/m² 4,7 °C 8,1 °C 0,0 km/h (0 Bft)
01.05.2018 06:54 8,1 °C 79 % 1009,5 hPa 0,0 mm 0,0 km/h (0 Bft) W 263 ° 0 min 0,000 mm 0,0 UV-I 53 W/m² 4,7 °C 8,1 °C 0,0 km/h (0 Bft)
01.05.2018 06:55 8,0 °C 80 % 1009,5 hPa 0,0 mm 2,0 km/h (1 Bft) W 263 ° 0 min 0,000 mm 0,0 UV-I 53 W/m² 4,8 °C 8,0 °C 3,2 km/h (1 Bft)
01.05.2018 06:56 8,1 °C 80 % 1009,6 hPa 0,0 mm 1,9 km/h (1 Bft) W 263 ° 0 min 0,000 mm 0,0 UV-I 54 W/m² 4,9 °C 8,1 °C 3,2 km/h (1 Bft)
01.05.2018 06:57 8,1 °C 79 % 1009,6 hPa 0,0 mm 2,2 km/h (1 Bft) W 263 ° 0 min 0,000 mm 0,0 UV-I 56 W/m² 4,7 °C 8,1 °C 3,2 km/h (1 Bft)
01.05.2018 06:58 8,1 °C 80 % 1009,6 hPa 0,0 mm 2,1 km/h (1 Bft) W 263 ° 0 min 0,000 mm 0,0 UV-I 60 W/m² 4,9 °C 8,1 °C 3,2 km/h (1 Bft)
01.05.2018 06:59 8,1 °C 79 % 1009,5 hPa 0,0 mm 0,0 km/h (0 Bft) W 263 ° 0 min 0,000 mm 0,0 UV-I 62 W/m² 4,7 °C 8,1 °C 0,0 km/h (0 Bft)
01.05.2018 07:00 8,1 °C 79 % 1009,5 hPa 0,0 mm 0,4 km/h (0 Bft) W 263 ° 0 min 0,000 mm 0,0 UV-I 65 W/m² 4,7 °C 8,1 °C 1,6 km/h (1 Bft)
01.05.2018 07:01 8,2 °C 78 % 1009,5 hPa 0,0 mm 3,5 km/h (1 Bft) W 263 ° 0 min 0,025 mm 0,0 UV-I 69 W/m² 4,6 °C 8,2 °C 4,8 km/h (1 Bft)
01.05.2018 07:02 8,2 °C 77 % 1009,5 hPa 0,0 mm 0,3 km/h (0 Bft) W 263 ° 0 min 0,000 mm 0,0 UV-I 70 W/m² 4,4 °C 8,2 °C 1,6 km/h (1 Bft)
01.05.2018 07:03 8,2 °C 77 % 1009,5 hPa 0,0 mm 0,0 km/h (0 Bft) W 263 ° 0 min 0,000 mm 0,0 UV-I 74 W/m² 4,4 °C 8,2 °C 0,0 km/h (0 Bft)
01.05.2018 07:04 8,3 °C 78 % 1009,4 hPa 0,0 mm 0,0 km/h (0 Bft) W 263 ° 0 min 0,000 mm 0,0 UV-I 76 W/m² 4,7 °C 8,3 °C 0,0 km/h (0 Bft)
01.05.2018 07:05 8,3 °C 78 % 1009,4 hPa 0,0 mm 1,5 km/h (1 Bft) W 263 ° 0 min 0,000 mm 0,0 UV-I 74 W/m² 4,7 °C 8,3 °C 3,2 km/h (1 Bft)
01.05.2018 07:06 8,3 °C 78 % 1009,3 hPa 0,0 mm 1,1 km/h (1 Bft) W 263 ° 0 min 0,000 mm 0,0 UV-I 76 W/m² 4,7 °C 8,3 °C 3,2 km/h (1 Bft)
01.05.2018 07:07 8,3 °C 77 % 1009,4 hPa 0,0 mm 0,0 km/h (0 Bft) W 263 ° 0 min 0,000 mm 0,0 UV-I 77 W/m² 4,5 °C 8,3 °C 0,0 km/h (0 Bft)
01.05.2018 07:08 8,3 °C 77 % 1009,3 hPa 0,0 mm 0,0 km/h (0 Bft) W 263 ° 0 min 0,000 mm 0,0 UV-I 77 W/m² 4,5 °C 8,3 °C 0,0 km/h (0 Bft)
01.05.2018 07:09 8,3 °C 77 % 1009,3 hPa 0,0 mm 0,0 km/h (0 Bft) W 263 ° 0 min 0,000 mm 0,0 UV-I 79 W/m² 4,5 °C 8,3 °C 0,0 km/h (0 Bft)
01.05.2018 07:10 8,3 °C 77 % 1009,3 hPa 0,0 mm 0,0 km/h (0 Bft) W 263 ° 0 min 0,000 mm 0,0 UV-I 81 W/m² 4,5 °C 8,3 °C 0,0 km/h (0 Bft)
01.05.2018 07:11 8,4 °C 76 % 1009,3 hPa 0,0 mm 0,0 km/h (0 Bft) W 263 ° 0 min 0,000 mm 0,0 UV-I 83 W/m² 4,4 °C 8,4 °C 0,0 km/h (0 Bft)
01.05.2018 07:12 8,3 °C 77 % 1009,3 hPa 0,0 mm 0,0 km/h (0 Bft) W 263 ° 0 min 0,000 mm 0,0 UV-I 84 W/m² 4,5 °C 8,3 °C 0,0 km/h (0 Bft)
01.05.2018 07:13 8,3 °C 77 % 1009,3 hPa 0,0 mm 0,0 km/h (0 Bft) W 263 ° 0 min 0,000 mm 0,0 UV-I 86 W/m² 4,5 °C 8,3 °C 0,0 km/h (0 Bft)
01.05.2018 07:14 8,3 °C 78 % 1009,3 hPa 0,0 mm 0,1 km/h (0 Bft) W 263 ° 0 min 0,000 mm 0,0 UV-I 86 W/m² 4,7 °C 8,3 °C 1,6 km/h (1 Bft)
01.05.2018 07:15 8,3 °C 78 % 1009,3 hPa 0,0 mm 0,0 km/h (0 Bft) W 263 ° 0 min 0,000 mm 0,5 UV-I 93 W/m² 4,7 °C 8,3 °C 0,0 km/h (0 Bft)
01.05.2018 07:16 8,3 °C 78 % 1009,4 hPa 0,0 mm 0,0 km/h (0 Bft) W 263 ° 0 min 0,000 mm 0,5 UV-I 97 W/m² 4,7 °C 8,3 °C 0,0 km/h (0 Bft)
01.05.2018 07:17 8,4 °C 78 % 1009,3 hPa 0,0 mm 0,0 km/h (0 Bft) W 263 ° 0 min 0,000 mm 0,5 UV-I 98 W/m² 4,8 °C 8,4 °C 0,0 km/h (0 Bft)
01.05.2018 07:18 8,6 °C 78 % 1009,3 hPa 0,0 mm 0,5 km/h (0 Bft) W 263 ° 0 min 0,000 mm 0,5 UV-I 104 W/m² 5,0 °C 8,6 °C 1,6 km/h (1 Bft)
01.05.2018 07:19 8,6 °C 76 % 1009,3 hPa 0,0 mm 0,4 km/h (0 Bft) W 263 ° 0 min 0,000 mm 0,5 UV-I 107 W/m² 4,6 °C 8,6 °C 1,6 km/h (1 Bft)
01.05.2018 07:20 8,7 °C 77 % 1009,3 hPa 0,0 mm 1,2 km/h (1 Bft) W 263 ° 0 min 0,000 mm 0,5 UV-I 111 W/m² 4,9 °C 8,7 °C 3,2 km/h (1 Bft)
01.05.2018 07:21 8,8 °C 77 % 1009,3 hPa 0,0 mm 0,7 km/h (0 Bft) W 263 ° 0 min 0,000 mm 0,5 UV-I 113 W/m² 5,0 °C 8,8 °C 1,6 km/h (1 Bft)
01.05.2018 07:22 8,8 °C 77 % 1009,3 hPa 0,0 mm 0,3 km/h (0 Bft) W 263 ° 0 min 0,000 mm 0,5 UV-I 127 W/m² 5,0 °C 8,8 °C 1,6 km/h (1 Bft)
01.05.2018 07:23 8,9 °C 77 % 1009,3 hPa 0,0 mm 2,7 km/h (1 Bft) W-NW 294 ° 0 min 0,000 mm 0,5 UV-I 132 W/m² 5,1 °C 8,9 °C 4,8 km/h (1 Bft)
01.05.2018 07:24 9,0 °C 76 % 1009,3 hPa 0,0 mm 3,2 km/h (1 Bft) W-NW 294 ° 0 min 0,000 mm 0,5 UV-I 135 W/m² 5,0 °C 9,0 °C 4,8 km/h (1 Bft)
01.05.2018 07:25 9,1 °C 75 % 1009,3 hPa 0,0 mm 3,8 km/h (1 Bft) W 278 ° 0 min 0,000 mm 0,5 UV-I 116 W/m² 4,9 °C 9,1 °C 6,4 km/h (2 Bft)
01.05.2018 07:26 9,1 °C 75 % 1009,3 hPa 0,0 mm 3,9 km/h (1 Bft) W-NW 294 ° 0 min 0,000 mm 0,5 UV-I 118 W/m² 4,9 °C 9,1 °C 6,4 km/h (2 Bft)
01.05.2018 07:27 9,1 °C 75 % 1009,4 hPa 0,0 mm 3,5 km/h (1 Bft) W-NW 293 ° 0 min 0,000 mm 0,5 UV-I 104 W/m² 4,9 °C 9,1 °C 4,8 km/h (1 Bft)
01.05.2018 07:28 9,1 °C 75 % 1009,4 hPa 0,0 mm 2,4 km/h (1 Bft) W-NW 297 ° 0 min 0,000 mm 0,5 UV-I 111 W/m² 4,9 °C 9,1 °C 4,8 km/h (1 Bft)
01.05.2018 07:29 9,1 °C 75 % 1009,3 hPa 0,0 mm 3,5 km/h (1 Bft) N-NW 329 ° 0 min 0,000 mm 0,5 UV-I 139 W/m² 4,9 °C 9,1 °C 4,8 km/h (1 Bft)
01.05.2018 07:30 9,1 °C 75 % 1009,3 hPa 0,0 mm 3,2 km/h (1 Bft) N-NW 329 ° 0 min 0,000 mm 0,5 UV-I 120 W/m² 4,9 °C 9,1 °C 6,4 km/h (2 Bft)
01.05.2018 07:31 9,1 °C 75 % 1009,3 hPa 0,0 mm 2,0 km/h (1 Bft) W-NW 290 ° 0 min 0,000 mm 0,5 UV-I 100 W/m² 4,9 °C 9,1 °C 4,8 km/h (1 Bft)
01.05.2018 07:32 9,1 °C 75 % 1009,3 hPa 0,0 mm 1,5 km/h (1 Bft) NW 314 ° 0 min 0,000 mm 0,5 UV-I 97 W/m² 4,9 °C 9,1 °C 6,4 km/h (2 Bft)
01.05.2018 07:33 9,1 °C 76 % 1009,3 hPa 0,0 mm 3,4 km/h (1 Bft) NW 315 ° 0 min 0,000 mm 0,0 UV-I 90 W/m² 5,1 °C 9,1 °C 4,8 km/h (1 Bft)
01.05.2018 07:34 9,1 °C 76 % 1009,4 hPa 0,0 mm 6,0 km/h (2 Bft) W-NW 296 ° 0 min 0,000 mm 0,0 UV-I 86 W/m² 5,1 °C 8,4 °C 8,0 km/h (2 Bft)
01.05.2018 07:35 9,1 °C 76 % 1009,4 hPa 0,0 mm 4,9 km/h (1 Bft) NW 318 ° 0 min 0,000 mm 0,0 UV-I 88 W/m² 5,1 °C 8,8 °C 8,0 km/h (2 Bft)
01.05.2018 07:36 9,0 °C 76 % 1009,4 hPa 0,0 mm 3,2 km/h (1 Bft) NW 318 ° 0 min 0,000 mm 0,0 UV-I 88 W/m² 5,0 °C 9,0 °C 6,4 km/h (2 Bft)
01.05.2018 07:37 9,0 °C 76 % 1009,4 hPa 0,0 mm 3,1 km/h (1 Bft) NW 318 ° 0 min 0,000 mm 0,0 UV-I 86 W/m² 5,0 °C 9,0 °C 4,8 km/h (1 Bft)
01.05.2018 07:38 8,9 °C 77 % 1009,4 hPa 0,0 mm 2,9 km/h (1 Bft) W-NW 288 ° 0 min 0,000 mm 0,0 UV-I 83 W/m² 5,1 °C 8,9 °C 6,4 km/h (2 Bft)
01.05.2018 07:39 8,9 °C 77 % 1009,5 hPa 0,0 mm 3,0 km/h (1 Bft) W 263 ° 0 min 0,000 mm 0,0 UV-I 74 W/m² 5,1 °C 8,9 °C 4,8 km/h (1 Bft)
01.05.2018 07:40 8,9 °C 76 % 1009,5 hPa 0,0 mm 2,0 km/h (1 Bft) W 263 ° 0 min 0,000 mm 0,0 UV-I 70 W/m² 4,9 °C 8,9 °C 3,2 km/h (1 Bft)
01.05.2018 07:41 8,9 °C 77 % 1009,5 hPa 0,0 mm 1,7 km/h (1 Bft) W-NW 286 ° 0 min 0,000 mm 0,0 UV-I 70 W/m² 5,1 °C 8,9 °C 3,2 km/h (1 Bft)
01.05.2018 07:42 8,9 °C 77 % 1009,6 hPa 0,0 mm 2,6 km/h (1 Bft) W-NW 286 ° 0 min 0,000 mm 0,0 UV-I 69 W/m² 5,1 °C 8,9 °C 3,2 km/h (1 Bft)
01.05.2018 07:43 8,9 °C 77 % 1009,6 hPa 0,0 mm 2,8 km/h (1 Bft) W-NW 286 ° 0 min 0,000 mm 0,0 UV-I 69 W/m² 5,1 °C 8,9 °C 3,2 km/h (1 Bft)
01.05.2018 07:44 8,9 °C 77 % 1009,6 hPa 0,0 mm 6,0 km/h (2 Bft) W-NW 285 ° 0 min 0,000 mm 0,0 UV-I 67 W/m² 5,1 °C 8,2 °C 9,7 km/h (2 Bft)
01.05.2018 07:45 8,9 °C 76 % 1009,7 hPa 0,0 mm 4,2 km/h (1 Bft) W-NW 284 ° 0 min 0,000 mm 0,0 UV-I 62 W/m² 4,9 °C 8,9 °C 6,4 km/h (2 Bft)
01.05.2018 07:46 8,9 °C 76 % 1009,7 hPa 0,0 mm 1,2 km/h (1 Bft) W-NW 284 ° 0 min 0,000 mm 0,0 UV-I 58 W/m² 4,9 °C 8,9 °C 3,2 km/h (1 Bft)
01.05.2018 07:47 8,9 °C 77 % 1009,7 hPa 0,0 mm 2,6 km/h (1 Bft) W-NW 286 ° 0 min 0,000 mm 0,0 UV-I 54 W/m² 5,1 °C 8,9 °C 6,4 km/h (2 Bft)
01.05.2018 07:48 8,9 °C 77 % 1009,7 hPa 0,0 mm 3,4 km/h (1 Bft) W-NW 286 ° 0 min 0,000 mm 0,0 UV-I 62 W/m² 5,1 °C 8,9 °C 4,8 km/h (1 Bft)
01.05.2018 07:49 8,8 °C 77 % 1009,7 hPa 0,0 mm 2,9 km/h (1 Bft) W-NW 286 ° 0 min 0,000 mm 0,0 UV-I 65 W/m² 5,0 °C 8,8 °C 6,4 km/h (2 Bft)
01.05.2018 07:50 8,8 °C 77 % 1009,7 hPa 0,0 mm 2,8 km/h (1 Bft) W 261 ° 0 min 0,000 mm 0,0 UV-I 69 W/m² 5,0 °C 8,8 °C 6,4 km/h (2 Bft)
01.05.2018 07:51 8,8 °C 76 % 1009,7 hPa 0,0 mm 1,3 km/h (1 Bft) W 261 ° 0 min 0,000 mm 0,0 UV-I 69 W/m² 4,8 °C 8,8 °C 3,2 km/h (1 Bft)
01.05.2018 07:52 8,8 °C 76 % 1009,7 hPa 0,0 mm 3,4 km/h (1 Bft) W 273 ° 0 min 0,000 mm 0,0 UV-I 69 W/m² 4,8 °C 8,8 °C 4,8 km/h (1 Bft)
01.05.2018 07:53 8,7 °C 77 % 1009,7 hPa 0,0 mm 3,1 km/h (1 Bft) W 273 ° 0 min 0,000 mm 0,0 UV-I 72 W/m² 4,9 °C 8,7 °C 3,2 km/h (1 Bft)
01.05.2018 07:54 8,7 °C 76 % 1009,7 hPa 0,0 mm 1,4 km/h (1 Bft) W 273 ° 0 min 0,000 mm 0,5 UV-I 77 W/m² 4,7 °C 8,7 °C 1,6 km/h (1 Bft)
01.05.2018 07:55 8,7 °C 76 % 1009,7 hPa 0,0 mm 0,5 km/h (0 Bft) W 273 ° 0 min 0,000 mm 0,5 UV-I 79 W/m² 4,7 °C 8,7 °C 1,6 km/h (1 Bft)
01.05.2018 07:56 8,7 °C 76 % 1009,7 hPa 0,0 mm 2,4 km/h (1 Bft) W 273 ° 0 min 0,000 mm 0,5 UV-I 76 W/m² 4,7 °C 8,7 °C 4,8 km/h (1 Bft)
01.05.2018 07:57 8,7 °C 77 % 1009,8 hPa 0,0 mm 3,1 km/h (1 Bft) W 278 ° 0 min 0,000 mm 0,5 UV-I 72 W/m² 4,9 °C 8,7 °C 4,8 km/h (1 Bft)
01.05.2018 07:58 8,7 °C 77 % 1009,7 hPa 0,0 mm 2,1 km/h (1 Bft) W-NW 297 ° 0 min 0,000 mm 0,5 UV-I 79 W/m² 4,9 °C 8,7 °C 6,4 km/h (2 Bft)
01.05.2018 07:59 8,7 °C 78 % 1009,7 hPa 0,0 mm 4,4 km/h (1 Bft) W-NW 303 ° 0 min 0,000 mm 0,5 UV-I 83 W/m² 5,1 °C 8,7 °C 6,4 km/h (2 Bft)
01.05.2018 08:00 8,7 °C 78 % 1009,8 hPa 0,0 mm 4,6 km/h (1 Bft) NW 322 ° 0 min 0,000 mm 0,5 UV-I 84 W/m² 5,1 °C 8,4 °C 8,0 km/h (2 Bft)
01.05.2018 08:01 8,7 °C 77 % 1009,8 hPa 0,0 mm 3,8 km/h (1 Bft) NW 322 ° 0 min 0,051 mm 0,5 UV-I 86 W/m² 4,9 °C 8,7 °C 6,4 km/h (2 Bft)
01.05.2018 08:02 8,7 °C 78 % 1009,8 hPa 0,0 mm 2,2 km/h (1 Bft) NW 322 ° 0 min 0,000 mm 0,5 UV-I 91 W/m² 5,1 °C 8,7 °C 3,2 km/h (1 Bft)
01.05.2018 08:03 8,6 °C 77 % 1009,9 hPa 0,0 mm 3,2 km/h (1 Bft) W 265 ° 0 min 0,000 mm 0,5 UV-I 93 W/m² 4,8 °C 8,6 °C 6,4 km/h (2 Bft)
01.05.2018 08:04 8,6 °C 77 % 1009,8 hPa 0,0 mm 2,5 km/h (1 Bft) W 265 ° 0 min 0,000 mm 0,5 UV-I 93 W/m² 4,8 °C 8,6 °C 4,8 km/h (1 Bft)
01.05.2018 08:05 8,6 °C 77 % 1009,9 hPa 0,0 mm 0,7 km/h (0 Bft) W 265 ° 0 min 0,000 mm 0,5 UV-I 93 W/m² 4,8 °C 8,6 °C 1,6 km/h (1 Bft)
01.05.2018 08:06 8,6 °C 77 % 1009,9 hPa 0,0 mm 1,1 km/h (1 Bft) W 265 ° 0 min 0,000 mm 0,6 UV-I 97 W/m² 4,8 °C 8,6 °C 3,2 km/h (1 Bft)
01.05.2018 08:07 8,6 °C 77 % 1009,9 hPa 0,0 mm 2,5 km/h (1 Bft) W-NW 296 ° 0 min 0,000 mm 0,6 UV-I 100 W/m² 4,8 °C 8,6 °C 4,8 km/h (1 Bft)
01.05.2018 08:08 8,6 °C 78 % 1009,9 hPa 0,0 mm 2,5 km/h (1 Bft) W-NW 296 ° 0 min 0,000 mm 0,6 UV-I 109 W/m² 5,0 °C 8,6 °C 4,8 km/h (1 Bft)
01.05.2018 08:09 8,6 °C 78 % 1009,9 hPa 0,0 mm 1,9 km/h (1 Bft) W-NW 296 ° 0 min 0,000 mm 0,6 UV-I 109 W/m² 5,0 °C 8,6 °C 3,2 km/h (1 Bft)
01.05.2018 08:10 8,6 °C 78 % 1009,9 hPa 0,0 mm 2,9 km/h (1 Bft) W 264 ° 0 min 0,000 mm 0,6 UV-I 113 W/m² 5,0 °C 8,6 °C 6,4 km/h (2 Bft)
01.05.2018 08:11 8,6 °C 77 % 1009,9 hPa 0,0 mm 3,6 km/h (1 Bft) W-NW 282 ° 0 min 0,000 mm 0,7 UV-I 116 W/m² 4,8 °C 8,6 °C 4,8 km/h (1 Bft)
01.05.2018 08:12 8,6 °C 78 % 1010,0 hPa 0,0 mm 1,5 km/h (1 Bft) W-NW 282 ° 0 min 0,000 mm 0,6 UV-I 105 W/m² 5,0 °C 8,6 °C 3,2 km/h (1 Bft)
01.05.2018 08:13 8,7 °C 78 % 1010,0 hPa 0,0 mm 0,9 km/h (0 Bft) W-NW 282 ° 0 min 0,000 mm 0,6 UV-I 95 W/m² 5,1 °C 8,7 °C 3,2 km/h (1 Bft)
01.05.2018 08:14 8,7 °C 78 % 1010,1 hPa 0,0 mm 2,1 km/h (1 Bft) W-NW 282 ° 0 min 0,000 mm 0,6 UV-I 105 W/m² 5,1 °C 8,7 °C 3,2 km/h (1 Bft)
01.05.2018 08:15 8,7 °C 78 % 1010,1 hPa 0,0 mm 3,2 km/h (1 Bft) W-NW 290 ° 0 min 0,000 mm 0,6 UV-I 114 W/m² 5,1 °C 8,7 °C 3,2 km/h (1 Bft)
01.05.2018 08:16 8,7 °C 78 % 1010,1 hPa 0,0 mm 4,3 km/h (1 Bft) W-NW 294 ° 0 min 0,000 mm 0,7 UV-I 118 W/m² 5,1 °C 8,7 °C 6,4 km/h (2 Bft)
01.05.2018 08:17 8,7 °C 79 % 1010,1 hPa 0,0 mm 3,4 km/h (1 Bft) W-NW 294 ° 0 min 0,000 mm 0,7 UV-I 121 W/m² 5,3 °C 8,7 °C 4,8 km/h (1 Bft)
01.05.2018 08:18 8,7 °C 77 % 1010,2 hPa 0,0 mm 3,6 km/h (1 Bft) W-NW 292 ° 0 min 0,000 mm 0,7 UV-I 118 W/m² 4,9 °C 8,7 °C 6,4 km/h (2 Bft)
01.05.2018 08:19 8,7 °C 77 % 1010,2 hPa 0,0 mm 6,6 km/h (2 Bft) W 280 ° 0 min 0,000 mm 0,6 UV-I 93 W/m² 4,9 °C 7,8 °C 11,3 km/h (2 Bft)
01.05.2018 08:20 8,6 °C 76 % 1010,2 hPa 0,0 mm 6,7 km/h (2 Bft) NW 326 ° 0 min 0,000 mm 0,6 UV-I 127 W/m² 4,6 °C 7,7 °C 11,3 km/h (2 Bft)
01.05.2018 08:21 8,6 °C 77 % 1010,2 hPa 0,0 mm 5,6 km/h (1 Bft) W-NW 298 ° 0 min 0,000 mm 0,7 UV-I 120 W/m² 4,8 °C 8,0 °C 8,0 km/h (2 Bft)
01.05.2018 08:22 8,6 °C 77 % 1010,2 hPa 0,0 mm 8,2 km/h (2 Bft) W-NW 290 ° 0 min 0,000 mm 0,7 UV-I 97 W/m² 4,8 °C 7,3 °C 12,9 km/h (3 Bft)
01.05.2018 08:23 8,6 °C 77 % 1010,2 hPa 0,0 mm 8,6 km/h (2 Bft) W 275 ° 0 min 0,000 mm 0,7 UV-I 100 W/m² 4,8 °C 7,2 °C 16,1 km/h (3 Bft)
01.05.2018 08:24 8,6 °C 76 % 1010,2 hPa 0,0 mm 7,4 km/h (2 Bft) W 281 ° 0 min 0,000 mm 0,7 UV-I 88 W/m² 4,6 °C 7,5 °C 11,3 km/h (2 Bft)
01.05.2018 08:25 8,6 °C 76 % 1010,2 hPa 0,0 mm 4,3 km/h (1 Bft) W-NW 282 ° 0 min 0,000 mm 0,7 UV-I 111 W/m² 4,6 °C 8,6 °C 9,7 km/h (2 Bft)
01.05.2018 08:26 8,5 °C 77 % 1010,3 hPa 0,0 mm 7,2 km/h (2 Bft) W 272 ° 0 min 0,000 mm 0,8 UV-I 148 W/m² 4,7 °C 7,4 °C 11,3 km/h (2 Bft)
01.05.2018 08:27 8,4 °C 76 % 1010,2 hPa 0,0 mm 5,5 km/h (1 Bft) W-NW 290 ° 0 min 0,000 mm 0,9 UV-I 156 W/m² 4,4 °C 7,8 °C 11,3 km/h (2 Bft)
01.05.2018 08:28 8,4 °C 76 % 1010,3 hPa 0,0 mm 3,6 km/h (1 Bft) W-NW 289 ° 0 min 0,000 mm 0,9 UV-I 156 W/m² 4,4 °C 8,4 °C 4,8 km/h (1 Bft)
01.05.2018 08:29 8,4 °C 77 % 1010,3 hPa 0,0 mm 4,1 km/h (1 Bft) W-NW 294 ° 0 min 0,000 mm 1,0 UV-I 163 W/m² 4,6 °C 8,4 °C 8,0 km/h (2 Bft)
01.05.2018 08:30 8,5 °C 78 % 1010,2 hPa 0,0 mm 6,6 km/h (2 Bft) W-NW 299 ° 0 min 0,000 mm 1,0 UV-I 155 W/m² 4,9 °C 7,6 °C 8,0 km/h (2 Bft)
01.05.2018 08:31 8,5 °C 78 % 1010,2 hPa 0,0 mm 4,6 km/h (1 Bft) W-NW 287 ° 0 min 0,000 mm 1,0 UV-I 160 W/m² 4,9 °C 8,2 °C 6,4 km/h (2 Bft)
01.05.2018 08:32 8,6 °C 78 % 1010,2 hPa 0,0 mm 2,1 km/h (1 Bft) NW 304 ° 0 min 0,000 mm 0,9 UV-I 128 W/m² 5,0 °C 8,6 °C 4,8 km/h (1 Bft)
01.05.2018 08:33 8,6 °C 78 % 1010,2 hPa 0,0 mm 1,7 km/h (1 Bft) NW 304 ° 0 min 0,000 mm 1,0 UV-I 158 W/m² 5,0 °C 8,6 °C 3,2 km/h (1 Bft)
01.05.2018 08:34 8,6 °C 78 % 1010,1 hPa 0,0 mm 0,9 km/h (0 Bft) W-NW 302 ° 0 min 0,000 mm 0,9 UV-I 121 W/m² 5,0 °C 8,6 °C 3,2 km/h (1 Bft)
01.05.2018 08:35 8,6 °C 77 % 1010,1 hPa 0,0 mm 4,2 km/h (1 Bft) W-NW 292 ° 0 min 0,000 mm 1,0 UV-I 134 W/m² 4,8 °C 8,6 °C 4,8 km/h (1 Bft)
01.05.2018 08:36 8,7 °C 78 % 1010,1 hPa 0,0 mm 4,1 km/h (1 Bft) NW 311 ° 0 min 0,000 mm 1,1 UV-I 186 W/m² 5,1 °C 8,7 °C 6,4 km/h (2 Bft)
01.05.2018 08:37 8,7 °C 78 % 1010,1 hPa 0,0 mm 2,9 km/h (1 Bft) NW 311 ° 0 min 0,000 mm 1,2 UV-I 227 W/m² 5,1 °C 8,7 °C 6,4 km/h (2 Bft)
01.05.2018 08:38 8,7 °C 78 % 1010,1 hPa 0,0 mm 4,6 km/h (1 Bft) W-NW 302 ° 0 min 0,000 mm 1,3 UV-I 232 W/m² 5,1 °C 8,4 °C 8,0 km/h (2 Bft)
01.05.2018 08:39 8,8 °C 78 % 1010,1 hPa 0,0 mm 3,5 km/h (1 Bft) W-NW 288 ° 0 min 0,000 mm 1,2 UV-I 202 W/m² 5,2 °C 8,8 °C 4,8 km/h (1 Bft)
01.05.2018 08:40 8,8 °C 79 % 1010,1 hPa 0,0 mm 3,3 km/h (1 Bft) W-NW 290 ° 0 min 0,000 mm 1,2 UV-I 229 W/m² 5,4 °C 8,8 °C 4,8 km/h (1 Bft)
01.05.2018 08:41 8,9 °C 79 % 1010,0 hPa 0,0 mm 6,0 km/h (2 Bft) W-NW 282 ° 0 min 0,000 mm 1,1 UV-I 200 W/m² 5,5 °C 8,2 °C 9,7 km/h (2 Bft)
01.05.2018 08:42 8,9 °C 77 % 1010,0 hPa 0,0 mm 5,4 km/h (1 Bft) W-NW 303 ° 0 min 0,000 mm 0,9 UV-I 127 W/m² 5,1 °C 8,4 °C 8,0 km/h (2 Bft)
01.05.2018 08:43 8,9 °C 77 % 1010,0 hPa 0,0 mm 5,0 km/h (1 Bft) NW 309 ° 0 min 0,000 mm 1,0 UV-I 158 W/m² 5,1 °C 8,5 °C 6,4 km/h (2 Bft)
01.05.2018 08:44 8,8 °C 77 % 1010,0 hPa 0,0 mm 3,3 km/h (1 Bft) W-NW 301 ° 0 min 0,000 mm 1,0 UV-I 169 W/m² 5,0 °C 8,8 °C 6,4 km/h (2 Bft)
01.05.2018 08:45 8,8 °C 77 % 1010,0 hPa 0,0 mm 3,2 km/h (1 Bft) W-NW 290 ° 0 min 0,000 mm 1,2 UV-I 185 W/m² 5,0 °C 8,8 °C 4,8 km/h (1 Bft)
01.05.2018 08:46 8,8 °C 77 % 1010,0 hPa 0,0 mm 4,3 km/h (1 Bft) NW 304 ° 0 min 0,000 mm 1,2 UV-I 204 W/m² 5,0 °C 8,8 °C 6,4 km/h (2 Bft)
01.05.2018 08:47 8,8 °C 76 % 1010,0 hPa 0,0 mm 1,6 km/h (1 Bft) NW 304 ° 0 min 0,000 mm 1,1 UV-I 179 W/m² 4,8 °C 8,8 °C 3,2 km/h (1 Bft)
01.05.2018 08:48 8,8 °C 77 % 1009,9 hPa 0,0 mm 4,3 km/h (1 Bft) W 271 ° 0 min 0,000 mm 1,1 UV-I 158 W/m² 5,0 °C 8,8 °C 6,4 km/h (2 Bft)
01.05.2018 08:49 8,8 °C 77 % 1010,0 hPa 0,0 mm 3,7 km/h (1 Bft) W-NW 292 ° 0 min 0,000 mm 1,0 UV-I 169 W/m² 5,0 °C 8,8 °C 4,8 km/h (1 Bft)
01.05.2018 08:50 8,8 °C 77 % 1009,9 hPa 0,0 mm 3,8 km/h (1 Bft) W-NW 294 ° 0 min 0,000 mm 1,2 UV-I 225 W/m² 5,0 °C 8,8 °C 6,4 km/h (2 Bft)
01.05.2018 08:51 8,9 °C 78 % 1009,9 hPa 0,0 mm 3,0 km/h (1 Bft) NW 313 ° 0 min 0,000 mm 1,4 UV-I 255 W/m² 5,3 °C 8,9 °C 4,8 km/h (1 Bft)
01.05.2018 08:52 8,9 °C 77 % 1010,0 hPa 0,0 mm 2,0 km/h (1 Bft) NW 313 ° 1 min 0,000 mm 1,6 UV-I 338 W/m² 5,1 °C 8,9 °C 3,2 km/h (1 Bft)
01.05.2018 08:53 9,0 °C 79 % 1010,0 hPa 0,0 mm 2,3 km/h (1 Bft) NW 313 ° 1 min 0,000 mm 1,6 UV-I 350 W/m² 5,6 °C 9,0 °C 4,8 km/h (1 Bft)
01.05.2018 08:54 9,1 °C 76 % 1010,0 hPa 0,0 mm 5,1 km/h (1 Bft) W-NW 287 ° 0 min 0,000 mm 1,3 UV-I 251 W/m² 5,1 °C 8,7 °C 6,4 km/h (2 Bft)
01.05.2018 08:55 9,1 °C 76 % 1010,0 hPa 0,0 mm 3,5 km/h (1 Bft) W-NW 288 ° 0 min 0,000 mm 1,1 UV-I 137 W/m² 5,1 °C 9,1 °C 4,8 km/h (1 Bft)
01.05.2018 08:56 9,0 °C 76 % 1010,0 hPa 0,0 mm 3,4 km/h (1 Bft) W-NW 289 ° 0 min 0,000 mm 1,0 UV-I 128 W/m² 5,0 °C 9,0 °C 4,8 km/h (1 Bft)
01.05.2018 08:57 9,0 °C 76 % 1010,0 hPa 0,0 mm 4,1 km/h (1 Bft) W-NW 292 ° 0 min 0,000 mm 1,0 UV-I 135 W/m² 5,0 °C 9,0 °C 6,4 km/h (2 Bft)
01.05.2018 08:58 9,0 °C 77 % 1010,0 hPa 0,0 mm 3,6 km/h (1 Bft) NW 313 ° 0 min 0,000 mm 1,1 UV-I 144 W/m² 5,2 °C 9,0 °C 4,8 km/h (1 Bft)
01.05.2018 08:59 9,0 °C 77 % 1010,0 hPa 0,0 mm 3,6 km/h (1 Bft) NW 313 ° 0 min 0,000 mm 1,1 UV-I 153 W/m² 5,2 °C 9,0 °C 4,8 km/h (1 Bft)
01.05.2018 09:00 9,0 °C 78 % 1010,0 hPa 0,0 mm 3,0 km/h (1 Bft) NW 313 ° 0 min 0,000 mm 1,3 UV-I 186 W/m² 5,4 °C 9,0 °C 4,8 km/h (1 Bft)
01.05.2018 09:01 9,0 °C 76 % 1010,0 hPa 0,0 mm 3,3 km/h (1 Bft) NW 313 ° 1 min 0,076 mm 1,6 UV-I 359 W/m² 5,0 °C 9,0 °C 4,8 km/h (1 Bft)
01.05.2018 09:02 9,1 °C 76 % 1010,0 hPa 0,0 mm 0,3 km/h (0 Bft) NW 313 ° 1 min 0,000 mm 1,3 UV-I 359 W/m² 5,1 °C 9,1 °C 1,6 km/h (1 Bft)
01.05.2018 09:03 9,1 °C 77 % 1009,9 hPa 0,0 mm 1,5 km/h (1 Bft) NW 313 ° 0 min 0,000 mm 1,2 UV-I 172 W/m² 5,3 °C 9,1 °C 3,2 km/h (1 Bft)
01.05.2018 09:04 9,1 °C 77 % 1009,9 hPa 0,0 mm 1,5 km/h (1 Bft) NW 313 ° 0 min 0,000 mm 1,3 UV-I 202 W/m² 5,3 °C 9,1 °C 3,2 km/h (1 Bft)
01.05.2018 09:05 9,1 °C 76 % 1009,9 hPa 0,0 mm 3,1 km/h (1 Bft) NW 313 ° 0 min 0,000 mm 1,3 UV-I 176 W/m² 5,1 °C 9,1 °C 4,8 km/h (1 Bft)
01.05.2018 09:06 9,0 °C 75 % 1009,9 hPa 0,0 mm 1,3 km/h (1 Bft) NW 313 ° 0 min 0,000 mm 1,5 UV-I 216 W/m² 4,8 °C 9,0 °C 3,2 km/h (1 Bft)
01.05.2018 09:07 8,9 °C 76 % 1009,9 hPa 0,0 mm 0,0 km/h (0 Bft) NW 313 ° 0 min 0,000 mm 1,5 UV-I 218 W/m² 4,9 °C 8,9 °C 0,0 km/h (0 Bft)
01.05.2018 09:08 8,9 °C 77 % 1009,9 hPa 0,0 mm 0,0 km/h (0 Bft) NW 313 ° 0 min 0,000 mm 1,4 UV-I 193 W/m² 5,1 °C 8,9 °C 0,0 km/h (0 Bft)
01.05.2018 09:09 9,0 °C 77 % 1009,9 hPa 0,0 mm 0,0 km/h (0 Bft) NW 313 ° 0 min 0,000 mm 1,6 UV-I 230 W/m² 5,2 °C 9,0 °C 0,0 km/h (0 Bft)
01.05.2018 09:10 9,0 °C 77 % 1009,8 hPa 0,0 mm 0,0 km/h (0 Bft) NW 313 ° 0 min 0,000 mm 1,6 UV-I 230 W/m² 5,2 °C 9,0 °C 0,0 km/h (0 Bft)
01.05.2018 09:11 9,1 °C 77 % 1009,9 hPa 0,0 mm 1,8 km/h (1 Bft) NW 314 ° 0 min 0,000 mm 1,7 UV-I 251 W/m² 5,3 °C 9,1 °C 4,8 km/h (1 Bft)
01.05.2018 09:12 9,2 °C 78 % 1009,8 hPa 0,0 mm 3,0 km/h (1 Bft) NW 316 ° 1 min 0,000 mm 1,9 UV-I 297 W/m² 5,6 °C 9,2 °C 4,8 km/h (1 Bft)
01.05.2018 09:13 9,2 °C 76 % 1009,9 hPa 0,0 mm 2,5 km/h (1 Bft) NW 321 ° 1 min 0,000 mm 2,1 UV-I 313 W/m² 5,2 °C 9,2 °C 4,8 km/h (1 Bft)
01.05.2018 09:14 9,3 °C 78 % 1009,9 hPa 0,0 mm 1,0 km/h (0 Bft) NW 321 ° 0 min 0,000 mm 1,7 UV-I 250 W/m² 5,7 °C 9,3 °C 3,2 km/h (1 Bft)
01.05.2018 09:15 9,3 °C 77 % 1009,9 hPa 0,0 mm 1,5 km/h (1 Bft) NW 321 ° 0 min 0,000 mm 1,7 UV-I 239 W/m² 5,5 °C 9,3 °C 1,6 km/h (1 Bft)
01.05.2018 09:16 9,4 °C 76 % 1009,9 hPa 0,0 mm 3,9 km/h (1 Bft) N-NW 338 ° 0 min 0,000 mm 1,8 UV-I 258 W/m² 5,4 °C 9,4 °C 4,8 km/h (1 Bft)
01.05.2018 09:17 9,3 °C 74 % 1009,9 hPa 0,0 mm 3,9 km/h (1 Bft) NW 318 ° 1 min 0,000 mm 1,9 UV-I 320 W/m² 4,9 °C 9,3 °C 6,4 km/h (2 Bft)
01.05.2018 09:18 9,3 °C 76 % 1010,0 hPa 0,0 mm 3,9 km/h (1 Bft) N-NW 327 ° 1 min 0,000 mm 1,8 UV-I 297 W/m² 5,3 °C 9,3 °C 6,4 km/h (2 Bft)
01.05.2018 09:19 9,3 °C 76 % 1010,1 hPa 0,0 mm 2,3 km/h (1 Bft) N-NW 327 ° 1 min 0,000 mm 1,8 UV-I 348 W/m² 5,3 °C 9,3 °C 3,2 km/h (1 Bft)
01.05.2018 09:20 9,4 °C 77 % 1010,1 hPa 0,0 mm 4,8 km/h (1 Bft) W-NW 291 ° 1 min 0,000 mm 1,6 UV-I 299 W/m² 5,6 °C 9,1 °C 6,4 km/h (2 Bft)
01.05.2018 09:21 9,4 °C 76 % 1010,1 hPa 0,0 mm 3,7 km/h (1 Bft) W-NW 300 ° 0 min 0,000 mm 1,6 UV-I 237 W/m² 5,4 °C 9,4 °C 4,8 km/h (1 Bft)
01.05.2018 09:22 9,4 °C 75 % 1010,1 hPa 0,0 mm 2,3 km/h (1 Bft) W-NW 300 ° 0 min 0,000 mm 1,3 UV-I 181 W/m² 5,2 °C 9,4 °C 4,8 km/h (1 Bft)
01.05.2018 09:23 9,3 °C 75 % 1010,1 hPa 0,0 mm 2,2 km/h (1 Bft) W-NW 300 ° 0 min 0,000 mm 1,4 UV-I 195 W/m² 5,1 °C 9,3 °C 3,2 km/h (1 Bft)
01.05.2018 09:24 9,3 °C 76 % 1010,1 hPa 0,0 mm 4,9 km/h (1 Bft) NW 308 ° 0 min 0,000 mm 1,3 UV-I 174 W/m² 5,3 °C 9,0 °C 6,4 km/h (2 Bft)
01.05.2018 09:25 9,3 °C 77 % 1010,1 hPa 0,0 mm 4,0 km/h (1 Bft) NW 311 ° 0 min 0,000 mm 1,5 UV-I 250 W/m² 5,5 °C 9,3 °C 6,4 km/h (2 Bft)
01.05.2018 09:26 9,3 °C 76 % 1010,1 hPa 0,0 mm 3,1 km/h (1 Bft) NW 311 ° 0 min 0,000 mm 1,7 UV-I 264 W/m² 5,3 °C 9,3 °C 4,8 km/h (1 Bft)
01.05.2018 09:27 9,3 °C 75 % 1010,1 hPa 0,0 mm 2,4 km/h (1 Bft) NW 311 ° 0 min 0,000 mm 1,8 UV-I 285 W/m² 5,1 °C 9,3 °C 4,8 km/h (1 Bft)
01.05.2018 09:28 9,3 °C 76 % 1010,1 hPa 0,0 mm 2,9 km/h (1 Bft) NW 311 ° 1 min 0,000 mm 1,9 UV-I 294 W/m² 5,3 °C 9,3 °C 4,8 km/h (1 Bft)
01.05.2018 09:29 9,4 °C 76 % 1010,1 hPa 0,0 mm 4,5 km/h (1 Bft) N-NW 327 ° 0 min 0,000 mm 1,7 UV-I 237 W/m² 5,4 °C 9,4 °C 6,4 km/h (2 Bft)
01.05.2018 09:30 9,3 °C 76 % 1010,1 hPa 0,0 mm 3,5 km/h (1 Bft) N-NW 333 ° 0 min 0,000 mm 1,9 UV-I 281 W/m² 5,3 °C 9,3 °C 4,8 km/h (1 Bft)
01.05.2018 09:31 9,4 °C 76 % 1010,1 hPa 0,0 mm 0,5 km/h (0 Bft) N-NW 333 ° 1 min 0,000 mm 2,0 UV-I 318 W/m² 5,4 °C 9,4 °C 1,6 km/h (1 Bft)
01.05.2018 09:32 9,4 °C 77 % 1010,1 hPa 0,0 mm 2,1 km/h (1 Bft) N-NW 333 ° 1 min 0,000 mm 2,0 UV-I 315 W/m² 5,6 °C 9,4 °C 4,8 km/h (1 Bft)
01.05.2018 09:33 9,5 °C 77 % 1010,1 hPa 0,0 mm 1,2 km/h (1 Bft) N-NW 333 ° 0 min 0,000 mm 1,9 UV-I 281 W/m² 5,7 °C 9,5 °C 4,8 km/h (1 Bft)
01.05.2018 09:34 9,5 °C 76 % 1010,1 hPa 0,0 mm 5,8 km/h (2 Bft) NW 323 ° 0 min 0,000 mm 1,7 UV-I 251 W/m² 5,5 °C 9,0 °C 8,0 km/h (2 Bft)
01.05.2018 09:35 9,6 °C 77 % 1010,1 hPa 0,0 mm 7,6 km/h (2 Bft) W 267 ° 1 min 0,000 mm 1,9 UV-I 290 W/m² 5,8 °C 8,6 °C 12,9 km/h (3 Bft)
01.05.2018 09:36 9,6 °C 76 % 1010,2 hPa 0,0 mm 4,6 km/h (1 Bft) W 271 ° 1 min 0,000 mm 2,1 UV-I 290 W/m² 5,6 °C 9,4 °C 6,4 km/h (2 Bft)
01.05.2018 09:37 9,5 °C 74 % 1010,2 hPa 0,0 mm 6,4 km/h (2 Bft) W-NW 292 ° 0 min 0,000 mm 1,7 UV-I 269 W/m² 5,1 °C 8,8 °C 11,3 km/h (2 Bft)
01.05.2018 09:38 9,5 °C 75 % 1010,2 hPa 0,0 mm 2,6 km/h (1 Bft) W-NW 292 ° 0 min 0,000 mm 1,7 UV-I 257 W/m² 5,3 °C 9,5 °C 4,8 km/h (1 Bft)
01.05.2018 09:39 9,4 °C 75 % 1010,3 hPa 0,0 mm 3,0 km/h (1 Bft) W-NW 292 ° 0 min 0,000 mm 1,7 UV-I 271 W/m² 5,2 °C 9,4 °C 4,8 km/h (1 Bft)
01.05.2018 09:40 9,4 °C 77 % 1010,3 hPa 0,0 mm 2,5 km/h (1 Bft) W 270 ° 1 min 0,000 mm 1,8 UV-I 290 W/m² 5,6 °C 9,4 °C 4,8 km/h (1 Bft)
01.05.2018 09:41 9,5 °C 77 % 1010,3 hPa 0,0 mm 4,4 km/h (1 Bft) W-NW 292 ° 1 min 0,000 mm 2,1 UV-I 350 W/m² 5,7 °C 9,5 °C 6,4 km/h (2 Bft)
01.05.2018 09:42 9,6 °C 76 % 1010,3 hPa 0,0 mm 3,5 km/h (1 Bft) W-NW 292 ° 1 min 0,000 mm 2,1 UV-I 330 W/m² 5,6 °C 9,6 °C 4,8 km/h (1 Bft)
01.05.2018 09:43 9,7 °C 76 % 1010,3 hPa 0,0 mm 3,5 km/h (1 Bft) W-NW 292 ° 1 min 0,000 mm 1,9 UV-I 301 W/m² 5,7 °C 9,7 °C 4,8 km/h (1 Bft)
01.05.2018 09:44 9,6 °C 75 % 1010,3 hPa 0,0 mm 3,3 km/h (1 Bft) W-NW 292 ° 0 min 0,000 mm 1,8 UV-I 276 W/m² 5,4 °C 9,6 °C 4,8 km/h (1 Bft)
01.05.2018 09:45 9,7 °C 76 % 1010,2 hPa 0,0 mm 2,5 km/h (1 Bft) W-NW 292 ° 1 min 0,000 mm 1,9 UV-I 290 W/m² 5,7 °C 9,7 °C 4,8 km/h (1 Bft)
01.05.2018 09:46 9,7 °C 76 % 1010,2 hPa 0,0 mm 4,6 km/h (1 Bft) NW 320 ° 1 min 0,000 mm 1,9 UV-I 302 W/m² 5,7 °C 9,5 °C 6,4 km/h (2 Bft)
01.05.2018 09:47 9,8 °C 77 % 1010,2 hPa 0,0 mm 6,9 km/h (2 Bft) NW 322 ° 1 min 0,000 mm 1,9 UV-I 302 W/m² 6,0 °C 9,0 °C 11,3 km/h (2 Bft)
01.05.2018 09:48 9,8 °C 77 % 1010,2 hPa 0,0 mm 6,1 km/h (2 Bft) NW 306 ° 0 min 0,000 mm 1,9 UV-I 288 W/m² 6,0 °C 9,2 °C 8,0 km/h (2 Bft)
01.05.2018 09:49 9,9 °C 76 % 1010,2 hPa 0,0 mm 4,8 km/h (1 Bft) W-NW 292 ° 0 min 0,000 mm 1,7 UV-I 274 W/m² 5,9 °C 9,7 °C 6,4 km/h (2 Bft)
01.05.2018 09:50 9,9 °C 76 % 1010,2 hPa 0,0 mm 4,9 km/h (1 Bft) W-NW 288 ° 0 min 0,000 mm 1,6 UV-I 244 W/m² 5,9 °C 9,7 °C 6,4 km/h (2 Bft)
01.05.2018 09:51 9,8 °C 74 % 1010,1 hPa 0,0 mm 2,7 km/h (1 Bft) W-NW 287 ° 0 min 0,000 mm 1,5 UV-I 211 W/m² 5,4 °C 9,8 °C 4,8 km/h (1 Bft)
01.05.2018 09:52 9,7 °C 75 % 1010,1 hPa 0,0 mm 4,8 km/h (1 Bft) W-NW 291 ° 0 min 0,000 mm 1,6 UV-I 232 W/m² 5,5 °C 9,5 °C 6,4 km/h (2 Bft)
01.05.2018 09:53 9,6 °C 75 % 1010,1 hPa 0,0 mm 4,9 km/h (1 Bft) W-NW 300 ° 0 min 0,000 mm 1,5 UV-I 227 W/m² 5,4 °C 9,3 °C 8,0 km/h (2 Bft)
01.05.2018 09:54 9,6 °C 75 % 1010,1 hPa 0,0 mm 6,3 km/h (2 Bft) W-NW 288 ° 0 min 0,000 mm 1,4 UV-I 146 W/m² 5,4 °C 8,9 °C 9,7 km/h (2 Bft)
01.05.2018 09:55 9,6 °C 76 % 1010,1 hPa 0,0 mm 5,7 km/h (1 Bft) W-NW 296 ° 0 min 0,000 mm 1,1 UV-I 118 W/m² 5,6 °C 9,1 °C 9,7 km/h (2 Bft)
01.05.2018 09:56 9,6 °C 77 % 1010,1 hPa 0,0 mm 5,6 km/h (1 Bft) W-NW 288 ° 0 min 0,000 mm 1,1 UV-I 118 W/m² 5,8 °C 9,1 °C 8,0 km/h (2 Bft)
01.05.2018 09:57 9,5 °C 76 % 1010,1 hPa 0,0 mm 7,5 km/h (2 Bft) W 275 ° 0 min 0,000 mm 1,2 UV-I 142 W/m² 5,5 °C 8,5 °C 12,9 km/h (3 Bft)
01.05.2018 09:58 9,4 °C 76 % 1010,1 hPa 0,0 mm 6,6 km/h (2 Bft) W-NW 300 ° 0 min 0,000 mm 1,4 UV-I 188 W/m² 5,4 °C 8,6 °C 11,3 km/h (2 Bft)
01.05.2018 09:59 9,4 °C 75 % 1010,1 hPa 0,0 mm 3,4 km/h (1 Bft) NW 305 ° 0 min 0,000 mm 1,6 UV-I 230 W/m² 5,2 °C 9,4 °C 9,7 km/h (2 Bft)
01.05.2018 10:00 9,3 °C 76 % 1010,1 hPa 0,0 mm 5,0 km/h (1 Bft) NW 319 ° 0 min 0,000 mm 1,6 UV-I 229 W/m² 5,3 °C 9,0 °C 12,9 km/h (3 Bft)
01.05.2018 10:01 9,4 °C 77 % 1010,2 hPa 0,0 mm 6,6 km/h (2 Bft) N-NW 327 ° 0 min 0,127 mm 1,4 UV-I 190 W/m² 5,6 °C 8,6 °C 8,0 km/h (2 Bft)
01.05.2018 10:02 9,4 °C 77 % 1010,2 hPa 0,0 mm 5,5 km/h (1 Bft) W-NW 298 ° 0 min 0,000 mm 1,6 UV-I 227 W/m² 5,6 °C 8,9 °C 11,3 km/h (2 Bft)
01.05.2018 10:03 9,4 °C 77 % 1010,2 hPa 0,0 mm 6,2 km/h (2 Bft) NW 319 ° 0 min 0,000 mm 1,5 UV-I 204 W/m² 5,6 °C 8,7 °C 11,3 km/h (2 Bft)
01.05.2018 10:04 9,4 °C 76 % 1010,1 hPa 0,0 mm 7,6 km/h (2 Bft) W-NW 297 ° 0 min 0,000 mm 1,4 UV-I 200 W/m² 5,4 °C 8,4 °C 11,3 km/h (2 Bft)
01.05.2018 10:05 9,4 °C 76 % 1010,1 hPa 0,0 mm 4,6 km/h (1 Bft) NW 306 ° 0 min 0,000 mm 1,4 UV-I 206 W/m² 5,4 °C 9,2 °C 11,3 km/h (2 Bft)
01.05.2018 10:06 9,4 °C 76 % 1010,1 hPa 0,0 mm 5,9 km/h (2 Bft) W-NW 284 ° 0 min 0,000 mm 1,5 UV-I 216 W/m² 5,4 °C 8,8 °C 9,7 km/h (2 Bft)
01.05.2018 10:07 9,3 °C 77 % 1010,1 hPa 0,0 mm 6,5 km/h (2 Bft) NW 321 ° 0 min 0,000 mm 1,3 UV-I 197 W/m² 5,5 °C 8,5 °C 9,7 km/h (2 Bft)
01.05.2018 10:08 9,3 °C 77 % 1010,1 hPa 0,0 mm 7,2 km/h (2 Bft) NW 319 ° 0 min 0,000 mm 1,1 UV-I 151 W/m² 5,5 °C 8,4 °C 12,9 km/h (3 Bft)
01.05.2018 10:09 9,4 °C 78 % 1010,1 hPa 0,0 mm 5,6 km/h (1 Bft) NW 323 ° 0 min 0,000 mm 1,0 UV-I 118 W/m² 5,8 °C 8,9 °C 8,0 km/h (2 Bft)
01.05.2018 10:10 9,3 °C 77 % 1010,1 hPa 0,0 mm 4,5 km/h (1 Bft) W-NW 299 ° 0 min 0,000 mm 1,1 UV-I 130 W/m² 5,5 °C 9,3 °C 8,0 km/h (2 Bft)
01.05.2018 10:11 9,3 °C 77 % 1010,1 hPa 0,0 mm 6,9 km/h (2 Bft) N-NW 340 ° 0 min 0,000 mm 1,0 UV-I 153 W/m² 5,5 °C 8,4 °C 9,7 km/h (2 Bft)
01.05.2018 10:12 9,3 °C 77 % 1010,1 hPa 0,0 mm 8,0 km/h (2 Bft) NW 316 ° 0 min 0,000 mm 1,2 UV-I 169 W/m² 5,5 °C 8,2 °C 11,3 km/h (2 Bft)
01.05.2018 10:13 9,3 °C 78 % 1010,0 hPa 0,0 mm 7,4 km/h (2 Bft) NW 311 ° 0 min 0,000 mm 1,2 UV-I 176 W/m² 5,7 °C 8,3 °C 9,7 km/h (2 Bft)
01.05.2018 10:14 9,3 °C 77 % 1010,0 hPa 0,0 mm 7,8 km/h (2 Bft) NW 321 ° 0 min 0,000 mm 1,1 UV-I 160 W/m² 5,5 °C 8,2 °C 12,9 km/h (3 Bft)
01.05.2018 10:15 9,3 °C 76 % 1009,9 hPa 0,0 mm 6,9 km/h (2 Bft) NW 309 ° 0 min 0,000 mm 0,9 UV-I 102 W/m² 5,3 °C 8,4 °C 12,9 km/h (3 Bft)
01.05.2018 10:16 9,2 °C 76 % 1009,9 hPa 0,0 mm 4,8 km/h (1 Bft) W-NW 300 ° 0 min 0,000 mm 1,0 UV-I 134 W/m² 5,2 °C 8,9 °C 6,4 km/h (2 Bft)
01.05.2018 10:17 9,2 °C 76 % 1009,9 hPa 0,0 mm 5,1 km/h (1 Bft) NW 304 ° 0 min 0,000 mm 0,9 UV-I 113 W/m² 5,2 °C 8,8 °C 9,7 km/h (2 Bft)
01.05.2018 10:18 9,1 °C 75 % 1009,9 hPa 0,0 mm 7,8 km/h (2 Bft) NW 315 ° 0 min 0,000 mm 0,7 UV-I 104 W/m² 4,9 °C 8,0 °C 11,3 km/h (2 Bft)
01.05.2018 10:19 9,1 °C 76 % 1009,9 hPa 0,0 mm 5,0 km/h (1 Bft) NW 311 ° 0 min 0,000 mm 0,7 UV-I 97 W/m² 5,1 °C 8,7 °C 8,0 km/h (2 Bft)
01.05.2018 10:20 9,0 °C 76 % 1009,9 hPa 0,0 mm 4,0 km/h (1 Bft) NW 314 ° 0 min 0,000 mm 0,6 UV-I 88 W/m² 5,0 °C 9,0 °C 6,4 km/h (2 Bft)
01.05.2018 10:21 9,0 °C 76 % 1009,9 hPa 0,0 mm 2,5 km/h (1 Bft) W-NW 287 ° 0 min 0,000 mm 0,5 UV-I 76 W/m² 5,0 °C 9,0 °C 4,8 km/h (1 Bft)
01.05.2018 10:22 9,0 °C 76 % 1010,0 hPa 0,0 mm 2,8 km/h (1 Bft) W-NW 300 ° 0 min 0,000 mm 0,5 UV-I 69 W/m² 5,0 °C 9,0 °C 4,8 km/h (1 Bft)
01.05.2018 10:23 9,0 °C 77 % 1010,0 hPa 0,0 mm 2,1 km/h (1 Bft) W-NW 297 ° 0 min 0,000 mm 0,5 UV-I 69 W/m² 5,2 °C 9,0 °C 6,4 km/h (2 Bft)
01.05.2018 10:24 8,9 °C 76 % 1010,0 hPa 0,0 mm 5,8 km/h (2 Bft) N-NW 346 ° 0 min 0,000 mm 0,5 UV-I 65 W/m² 4,9 °C 8,3 °C 9,7 km/h (2 Bft)
01.05.2018 10:25 8,9 °C 77 % 1010,0 hPa 0,0 mm 5,1 km/h (1 Bft) NW 305 ° 0 min 0,000 mm 0,0 UV-I 62 W/m² 5,1 °C 8,5 °C 6,4 km/h (2 Bft)
01.05.2018 10:26 8,9 °C 77 % 1010,0 hPa 0,0 mm 4,8 km/h (1 Bft) N-NW 327 ° 0 min 0,000 mm 0,0 UV-I 58 W/m² 5,1 °C 8,6 °C 8,0 km/h (2 Bft)
01.05.2018 10:27 8,9 °C 76 % 1010,0 hPa 0,0 mm 7,4 km/h (2 Bft) N-NW 335 ° 0 min 0,000 mm 0,0 UV-I 56 W/m² 4,9 °C 7,9 °C 11,3 km/h (2 Bft)
01.05.2018 10:28 8,8 °C 76 % 1010,0 hPa 0,0 mm 5,6 km/h (1 Bft) N-NO 25 ° 0 min 0,000 mm 0,0 UV-I 54 W/m² 4,8 °C 8,2 °C 8,0 km/h (2 Bft)
01.05.2018 10:29 8,8 °C 76 % 1010,0 hPa 0,0 mm 8,1 km/h (2 Bft) NW 313 ° 0 min 0,000 mm 0,0 UV-I 63 W/m² 4,8 °C 7,6 °C 12,9 km/h (3 Bft)
01.05.2018 10:30 8,8 °C 76 % 1010,0 hPa 0,0 mm 9,3 km/h (2 Bft) NW 325 ° 0 min 0,000 mm 0,5 UV-I 63 W/m² 4,8 °C 7,3 °C 14,5 km/h (3 Bft)
01.05.2018 10:31 8,8 °C 75 % 1010,1 hPa 0,0 mm 6,4 km/h (2 Bft) N-NW 327 ° 0 min 0,000 mm 0,5 UV-I 63 W/m² 4,6 °C 8,0 °C 9,7 km/h (2 Bft)
01.05.2018 10:32 8,7 °C 76 % 1010,1 hPa 0,0 mm 3,0 km/h (1 Bft) N-NW 332 ° 0 min 0,000 mm 0,5 UV-I 62 W/m² 4,7 °C 8,7 °C 6,4 km/h (2 Bft)
01.05.2018 10:33 8,7 °C 76 % 1010,2 hPa 0,0 mm 4,9 km/h (1 Bft) NW 315 ° 0 min 0,000 mm 0,5 UV-I 60 W/m² 4,7 °C 8,3 °C 6,4 km/h (2 Bft)
01.05.2018 10:34 8,7 °C 76 % 1010,2 hPa 0,0 mm 6,1 km/h (2 Bft) N-NW 335 ° 0 min 0,000 mm 0,0 UV-I 58 W/m² 4,7 °C 7,9 °C 9,7 km/h (2 Bft)
01.05.2018 10:35 8,7 °C 76 % 1010,2 hPa 0,0 mm 2,8 km/h (1 Bft) W-NW 294 ° 0 min 0,000 mm 0,0 UV-I 54 W/m² 4,7 °C 8,7 °C 4,8 km/h (1 Bft)
01.05.2018 10:36 8,7 °C 76 % 1010,2 hPa 0,0 mm 5,6 km/h (1 Bft) NW 315 ° 0 min 0,000 mm 0,0 UV-I 51 W/m² 4,7 °C 8,1 °C 11,3 km/h (2 Bft)
01.05.2018 10:37 8,7 °C 75 % 1010,3 hPa 0,0 mm 6,3 km/h (2 Bft) NW 324 ° 0 min 0,000 mm 0,0 UV-I 49 W/m² 4,5 °C 7,9 °C 9,7 km/h (2 Bft)
01.05.2018 10:38 8,6 °C 76 % 1010,4 hPa 0,0 mm 6,4 km/h (2 Bft) NW 321 ° 0 min 0,000 mm 0,0 UV-I 47 W/m² 4,6 °C 7,8 °C 9,7 km/h (2 Bft)
01.05.2018 10:39 8,7 °C 76 % 1010,4 hPa 0,0 mm 4,8 km/h (1 Bft) NW 323 ° 0 min 0,000 mm 0,0 UV-I 46 W/m² 4,7 °C 8,3 °C 6,4 km/h (2 Bft)
01.05.2018 10:40 8,6 °C 76 % 1010,5 hPa 0,0 mm 5,1 km/h (1 Bft) N 5 ° 0 min 0,000 mm 0,0 UV-I 44 W/m² 4,6 °C 8,1 °C 8,0 km/h (2 Bft)
01.05.2018 10:41 8,6 °C 76 % 1010,5 hPa 0,0 mm 5,1 km/h (1 Bft) W-NW 300 ° 0 min 0,000 mm 0,0 UV-I 40 W/m² 4,6 °C 8,1 °C 8,0 km/h (2 Bft)
01.05.2018 10:42 8,6 °C 76 % 1010,6 hPa 0,0 mm 3,3 km/h (1 Bft) W 263 ° 0 min 0,000 mm 0,0 UV-I 40 W/m² 4,6 °C 8,6 °C 4,8 km/h (1 Bft)
01.05.2018 10:43 8,7 °C 77 % 1010,6 hPa 0,0 mm 3,2 km/h (1 Bft) NW 307 ° 0 min 0,000 mm 0,0 UV-I 40 W/m² 4,9 °C 8,7 °C 4,8 km/h (1 Bft)
01.05.2018 10:44 8,6 °C 77 % 1010,6 hPa 0,0 mm 2,5 km/h (1 Bft) NW 307 ° 0 min 0,000 mm 0,0 UV-I 40 W/m² 4,8 °C 8,6 °C 4,8 km/h (1 Bft)
01.05.2018 10:45 8,6 °C 77 % 1010,6 hPa 0,0 mm 3,0 km/h (1 Bft) NW 306 ° 0 min 0,000 mm 0,0 UV-I 42 W/m² 4,8 °C 8,6 °C 4,8 km/h (1 Bft)
01.05.2018 10:46 8,6 °C 77 % 1010,6 hPa 0,0 mm 3,9 km/h (1 Bft) W-NW 303 ° 0 min 0,000 mm 0,0 UV-I 44 W/m² 4,8 °C 8,6 °C 9,7 km/h (2 Bft)
01.05.2018 10:47 8,6 °C 77 % 1010,5 hPa 0,0 mm 4,0 km/h (1 Bft) NW 307 ° 0 min 0,000 mm 0,0 UV-I 46 W/m² 4,8 °C 8,6 °C 6,4 km/h (2 Bft)
01.05.2018 10:48 8,6 °C 77 % 1010,6 hPa 0,0 mm 5,2 km/h (1 Bft) NW 321 ° 0 min 0,000 mm 0,0 UV-I 46 W/m² 4,8 °C 8,1 °C 8,0 km/h (2 Bft)
01.05.2018 10:49 8,6 °C 76 % 1010,6 hPa 0,0 mm 2,5 km/h (1 Bft) NW 321 ° 0 min 0,000 mm 0,0 UV-I 47 W/m² 4,6 °C 8,6 °C 4,8 km/h (1 Bft)
01.05.2018 10:50 8,6 °C 77 % 1010,6 hPa 0,0 mm 2,3 km/h (1 Bft) NW 317 ° 0 min 0,000 mm 0,0 UV-I 47 W/m² 4,8 °C 8,6 °C 3,2 km/h (1 Bft)
01.05.2018 10:51 8,6 °C 77 % 1010,7 hPa 0,0 mm 2,4 km/h (1 Bft) NW 317 ° 0 min 0,000 mm 0,0 UV-I 49 W/m² 4,8 °C 8,6 °C 4,8 km/h (1 Bft)
01.05.2018 10:52 8,6 °C 76 % 1010,7 hPa 0,0 mm 3,8 km/h (1 Bft) NW 317 ° 0 min 0,000 mm 0,0 UV-I 51 W/m² 4,6 °C 8,6 °C 4,8 km/h (1 Bft)
01.05.2018 10:53 8,6 °C 76 % 1010,7 hPa 0,0 mm 3,0 km/h (1 Bft) NW 314 ° 0 min 0,000 mm 0,0 UV-I 47 W/m² 4,6 °C 8,6 °C 4,8 km/h (1 Bft)
01.05.2018 10:54 8,6 °C 76 % 1010,8 hPa 0,0 mm 4,6 km/h (1 Bft) NW 315 ° 0 min 0,000 mm 0,0 UV-I 46 W/m² 4,6 °C 8,3 °C 6,4 km/h (2 Bft)
01.05.2018 10:55 8,6 °C 76 % 1010,8 hPa 0,0 mm 4,1 km/h (1 Bft) W 280 ° 0 min 0,000 mm 0,0 UV-I 49 W/m² 4,6 °C 8,6 °C 8,0 km/h (2 Bft)
01.05.2018 10:56 8,6 °C 76 % 1010,8 hPa 0,0 mm 1,7 km/h (1 Bft) W-NW 299 ° 0 min 0,000 mm 0,0 UV-I 49 W/m² 4,6 °C 8,6 °C 3,2 km/h (1 Bft)
01.05.2018 10:57 8,6 °C 76 % 1010,9 hPa 0,0 mm 2,1 km/h (1 Bft) W-NW 300 ° 0 min 0,000 mm 0,0 UV-I 53 W/m² 4,6 °C 8,6 °C 4,8 km/h (1 Bft)
01.05.2018 10:58 8,6 °C 77 % 1010,9 hPa 0,0 mm 3,0 km/h (1 Bft) W-NW 300 ° 0 min 0,000 mm 0,5 UV-I 62 W/m² 4,8 °C 8,6 °C 4,8 km/h (1 Bft)
01.05.2018 10:59 8,6 °C 77 % 1010,9 hPa 0,0 mm 2,2 km/h (1 Bft) W-NW 300 ° 0 min 0,000 mm 0,5 UV-I 60 W/m² 4,8 °C 8,6 °C 3,2 km/h (1 Bft)
01.05.2018 11:00 8,6 °C 77 % 1010,8 hPa 0,0 mm 2,1 km/h (1 Bft) W-NW 300 ° 0 min 0,000 mm 0,5 UV-I 62 W/m² 4,8 °C 8,6 °C 3,2 km/h (1 Bft)
01.05.2018 11:01 8,6 °C 77 % 1010,8 hPa 0,0 mm 2,7 km/h (1 Bft) W-NW 300 ° 0 min 0,051 mm 0,5 UV-I 60 W/m² 4,8 °C 8,6 °C 4,8 km/h (1 Bft)
01.05.2018 11:02 8,6 °C 76 % 1010,8 hPa 0,0 mm 3,0 km/h (1 Bft) W-NW 300 ° 0 min 0,000 mm 0,5 UV-I 60 W/m² 4,6 °C 8,6 °C 3,2 km/h (1 Bft)
01.05.2018 11:03 8,6 °C 76 % 1010,8 hPa 0,0 mm 1,5 km/h (1 Bft) W-NW 300 ° 0 min 0,000 mm 0,0 UV-I 56 W/m² 4,6 °C 8,6 °C 3,2 km/h (1 Bft)
01.05.2018 11:04 8,6 °C 75 % 1010,8 hPa 0,0 mm 1,3 km/h (1 Bft) W-NW 300 ° 0 min 0,000 mm 0,0 UV-I 54 W/m² 4,4 °C 8,6 °C 3,2 km/h (1 Bft)
01.05.2018 11:05 8,6 °C 76 % 1010,8 hPa 0,0 mm 0,5 km/h (0 Bft) W-NW 300 ° 0 min 0,000 mm 0,0 UV-I 51 W/m² 4,6 °C 8,6 °C 1,6 km/h (1 Bft)
01.05.2018 11:06 8,6 °C 76 % 1010,9 hPa 0,0 mm 2,0 km/h (1 Bft) W-NW 300 ° 0 min 0,000 mm 0,0 UV-I 47 W/m² 4,6 °C 8,6 °C 3,2 km/h (1 Bft)
01.05.2018 11:07 8,6 °C 76 % 1010,9 hPa 0,0 mm 3,9 km/h (1 Bft) NW 309 ° 0 min 0,000 mm 0,0 UV-I 49 W/m² 4,6 °C 8,6 °C 4,8 km/h (1 Bft)
01.05.2018 11:08 8,6 °C 76 % 1010,9 hPa 0,0 mm 4,1 km/h (1 Bft) NW 322 ° 0 min 0,000 mm 0,0 UV-I 35 W/m² 4,6 °C 8,6 °C 6,4 km/h (2 Bft)
01.05.2018 11:09 8,6 °C 77 % 1010,9 hPa 0,0 mm 4,4 km/h (1 Bft) N-NW 328 ° 0 min 0,000 mm 0,0 UV-I 44 W/m² 4,8 °C 8,6 °C 6,4 km/h (2 Bft)
01.05.2018 11:10 8,6 °C 76 % 1010,9 hPa 0,0 mm 2,5 km/h (1 Bft) N-NW 328 ° 0 min 0,000 mm 0,0 UV-I 46 W/m² 4,6 °C 8,6 °C 4,8 km/h (1 Bft)
01.05.2018 11:11 8,6 °C 78 % 1010,9 hPa 0,0 mm 2,1 km/h (1 Bft) N-NW 332 ° 0 min 0,000 mm 0,0 UV-I 51 W/m² 5,0 °C 8,6 °C 4,8 km/h (1 Bft)
01.05.2018 11:12 8,7 °C 78 % 1010,9 hPa 0,0 mm 3,3 km/h (1 Bft) NW 315 ° 0 min 0,000 mm 0,0 UV-I 46 W/m² 5,1 °C 8,7 °C 6,4 km/h (2 Bft)
01.05.2018 11:13 8,6 °C 76 % 1010,9 hPa 0,0 mm 1,9 km/h (1 Bft) NW 315 ° 0 min 0,000 mm 0,0 UV-I 39 W/m² 4,6 °C 8,6 °C 3,2 km/h (1 Bft)
01.05.2018 11:14 8,6 °C 76 % 1010,9 hPa 0,0 mm 3,1 km/h (1 Bft) NW 313 ° 0 min 0,000 mm 0,0 UV-I 46 W/m² 4,6 °C 8,6 °C 4,8 km/h (1 Bft)
01.05.2018 11:15 8,6 °C 77 % 1010,9 hPa 0,0 mm 4,2 km/h (1 Bft) W-NW 294 ° 0 min 0,000 mm 0,0 UV-I 47 W/m² 4,8 °C 8,6 °C 8,0 km/h (2 Bft)
01.05.2018 11:16 8,6 °C 76 % 1011,0 hPa 0,0 mm 5,8 km/h (2 Bft) W-NW 302 ° 0 min 0,000 mm 0,0 UV-I 40 W/m² 4,6 °C 7,9 °C 8,0 km/h (2 Bft)
01.05.2018 11:17 8,6 °C 77 % 1011,0 hPa 0,0 mm 6,0 km/h (2 Bft) W-NW 291 ° 0 min 0,000 mm 0,0 UV-I 39 W/m² 4,8 °C 7,9 °C 8,0 km/h (2 Bft)
01.05.2018 11:18 8,6 °C 76 % 1011,1 hPa 0,0 mm 5,7 km/h (1 Bft) W-NW 292 ° 0 min 0,000 mm 0,0 UV-I 35 W/m² 4,6 °C 7,9 °C 6,4 km/h (2 Bft)
01.05.2018 11:19 8,5 °C 76 % 1011,1 hPa 0,0 mm 3,2 km/h (1 Bft) W-NW 291 ° 0 min 0,000 mm 0,0 UV-I 33 W/m² 4,5 °C 8,5 °C 6,4 km/h (2 Bft)
01.05.2018 11:20 8,4 °C 76 % 1011,1 hPa 0,0 mm 4,8 km/h (1 Bft) NW 321 ° 0 min 0,000 mm 0,0 UV-I 32 W/m² 4,4 °C 8,0 °C 6,4 km/h (2 Bft)
01.05.2018 11:21 8,4 °C 76 % 1011,2 hPa 0,0 mm 3,4 km/h (1 Bft) NW 321 ° 0 min 0,000 mm 0,0 UV-I 35 W/m² 4,4 °C 8,4 °C 4,8 km/h (1 Bft)
01.05.2018 11:22 8,4 °C 76 % 1011,2 hPa 0,0 mm 2,0 km/h (1 Bft) NW 308 ° 0 min 0,000 mm 0,0 UV-I 42 W/m² 4,4 °C 8,4 °C 4,8 km/h (1 Bft)
01.05.2018 11:23 8,4 °C 77 % 1011,2 hPa 0,0 mm 2,1 km/h (1 Bft) NW 308 ° 0 min 0,000 mm 0,0 UV-I 44 W/m² 4,6 °C 8,4 °C 3,2 km/h (1 Bft)
01.05.2018 11:24 8,4 °C 77 % 1011,2 hPa 0,0 mm 2,7 km/h (1 Bft) W 281 ° 0 min 0,000 mm 0,0 UV-I 40 W/m² 4,6 °C 8,4 °C 4,8 km/h (1 Bft)
01.05.2018 11:25 8,4 °C 76 % 1011,1 hPa 0,0 mm 2,1 km/h (1 Bft) W 280 ° 0 min 0,000 mm 0,0 UV-I 42 W/m² 4,4 °C 8,4 °C 4,8 km/h (1 Bft)
01.05.2018 11:26 8,4 °C 76 % 1011,1 hPa 0,0 mm 4,1 km/h (1 Bft) W-NW 284 ° 0 min 0,000 mm 0,0 UV-I 47 W/m² 4,4 °C 8,4 °C 6,4 km/h (2 Bft)
01.05.2018 11:27 8,4 °C 76 % 1011,2 hPa 0,0 mm 3,5 km/h (1 Bft) W-NW 284 ° 0 min 0,000 mm 0,5 UV-I 60 W/m² 4,4 °C 8,4 °C 4,8 km/h (1 Bft)
01.05.2018 11:28 8,4 °C 76 % 1011,1 hPa 0,0 mm 2,8 km/h (1 Bft) W-NW 284 ° 0 min 0,000 mm 0,6 UV-I 65 W/m² 4,4 °C 8,4 °C 4,8 km/h (1 Bft)
01.05.2018 11:29 8,4 °C 75 % 1011,1 hPa 0,0 mm 2,9 km/h (1 Bft) W-NW 299 ° 0 min 0,000 mm 0,5 UV-I 62 W/m² 4,2 °C 8,4 °C 4,8 km/h (1 Bft)
01.05.2018 11:30 8,4 °C 75 % 1011,2 hPa 0,0 mm 2,7 km/h (1 Bft) W-NW 302 ° 0 min 0,000 mm 0,6 UV-I 67 W/m² 4,2 °C 8,4 °C 4,8 km/h (1 Bft)
01.05.2018 11:31 8,4 °C 75 % 1011,1 hPa 0,0 mm 2,7 km/h (1 Bft) W-NW 302 ° 0 min 0,000 mm 0,6 UV-I 70 W/m² 4,2 °C 8,4 °C 4,8 km/h (1 Bft)
01.05.2018 11:32 8,4 °C 75 % 1011,1 hPa 0,0 mm 2,6 km/h (1 Bft) W-NW 294 ° 0 min 0,000 mm 0,6 UV-I 70 W/m² 4,2 °C 8,4 °C 4,8 km/h (1 Bft)
01.05.2018 11:33 8,4 °C 75 % 1011,2 hPa 0,0 mm 1,9 km/h (1 Bft) W-NW 294 ° 0 min 0,000 mm 0,5 UV-I 65 W/m² 4,2 °C 8,4 °C 3,2 km/h (1 Bft)
01.05.2018 11:34 8,4 °C 76 % 1011,2 hPa 0,0 mm 2,4 km/h (1 Bft) W-NW 294 ° 0 min 0,000 mm 0,5 UV-I 65 W/m² 4,4 °C 8,4 °C 4,8 km/h (1 Bft)
01.05.2018 11:35 8,4 °C 76 % 1011,2 hPa 0,0 mm 2,1 km/h (1 Bft) W-NW 294 ° 0 min 0,000 mm 0,6 UV-I 70 W/m² 4,4 °C 8,4 °C 3,2 km/h (1 Bft)
01.05.2018 11:36 8,4 °C 76 % 1011,2 hPa 0,0 mm 3,2 km/h (1 Bft) W-NW 294 ° 0 min 0,000 mm 0,6 UV-I 77 W/m² 4,4 °C 8,4 °C 4,8 km/h (1 Bft)
01.05.2018 11:37 8,4 °C 76 % 1011,2 hPa 0,0 mm 4,3 km/h (1 Bft) W-NW 292 ° 0 min 0,000 mm 0,7 UV-I 83 W/m² 4,4 °C 8,4 °C 8,0 km/h (2 Bft)
01.05.2018 11:38 8,5 °C 75 % 1011,2 hPa 0,0 mm 4,4 km/h (1 Bft) NW 305 ° 0 min 0,000 mm 0,7 UV-I 91 W/m² 4,3 °C 8,5 °C 6,4 km/h (2 Bft)
01.05.2018 11:39 8,5 °C 75 % 1011,2 hPa 0,0 mm 3,7 km/h (1 Bft) NW 312 ° 0 min 0,000 mm 0,8 UV-I 100 W/m² 4,3 °C 8,5 °C 6,4 km/h (2 Bft)
01.05.2018 11:40 8,4 °C 75 % 1011,3 hPa 0,0 mm 3,9 km/h (1 Bft) NW 317 ° 0 min 0,000 mm 0,8 UV-I 104 W/m² 4,2 °C 8,4 °C 6,4 km/h (2 Bft)
01.05.2018 11:41 8,5 °C 75 % 1011,3 hPa 0,0 mm 2,7 km/h (1 Bft) NW 316 ° 0 min 0,000 mm 0,9 UV-I 107 W/m² 4,3 °C 8,5 °C 6,4 km/h (2 Bft)
01.05.2018 11:42 8,5 °C 75 % 1011,2 hPa 0,0 mm 3,6 km/h (1 Bft) NW 316 ° 0 min 0,000 mm 0,8 UV-I 95 W/m² 4,3 °C 8,5 °C 4,8 km/h (1 Bft)
01.05.2018 11:43 8,5 °C 75 % 1011,2 hPa 0,0 mm 4,6 km/h (1 Bft) W-NW 294 ° 0 min 0,000 mm 0,8 UV-I 90 W/m² 4,3 °C 8,2 °C 6,4 km/h (2 Bft)
01.05.2018 11:44 8,5 °C 76 % 1011,2 hPa 0,0 mm 4,1 km/h (1 Bft) NW 307 ° 0 min 0,000 mm 0,8 UV-I 91 W/m² 4,5 °C 8,5 °C 6,4 km/h (2 Bft)
01.05.2018 11:45 8,5 °C 75 % 1011,2 hPa 0,0 mm 4,2 km/h (1 Bft) NW 322 ° 0 min 0,000 mm 0,7 UV-I 90 W/m² 4,3 °C 8,5 °C 6,4 km/h (2 Bft)
01.05.2018 11:46 8,6 °C 76 % 1011,2 hPa 0,0 mm 5,0 km/h (1 Bft) NW 325 ° 0 min 0,000 mm 0,9 UV-I 105 W/m² 4,6 °C 8,2 °C 8,0 km/h (2 Bft)
01.05.2018 11:47 8,6 °C 77 % 1011,2 hPa 0,0 mm 2,2 km/h (1 Bft) NW 325 ° 0 min 0,000 mm 0,8 UV-I 93 W/m² 4,8 °C 8,6 °C 3,2 km/h (1 Bft)
01.05.2018 11:48 8,6 °C 75 % 1011,2 hPa 0,0 mm 5,8 km/h (2 Bft) W-NW 282 ° 0 min 0,000 mm 0,7 UV-I 84 W/m² 4,4 °C 7,9 °C 9,7 km/h (2 Bft)
01.05.2018 11:49 8,6 °C 75 % 1011,2 hPa 0,0 mm 6,8 km/h (2 Bft) W-NW 297 ° 0 min 0,000 mm 0,9 UV-I 102 W/m² 4,4 °C 7,6 °C 12,9 km/h (3 Bft)
01.05.2018 11:50 8,5 °C 75 % 1011,2 hPa 0,0 mm 4,3 km/h (1 Bft) NW 304 ° 0 min 0,000 mm 0,9 UV-I 109 W/m² 4,3 °C 8,5 °C 6,4 km/h (2 Bft)
01.05.2018 11:51 8,4 °C 75 % 1011,2 hPa 0,0 mm 2,2 km/h (1 Bft) NW 304 ° 0 min 0,000 mm 1,0 UV-I 134 W/m² 4,2 °C 8,4 °C 4,8 km/h (1 Bft)
01.05.2018 11:52 8,4 °C 75 % 1011,2 hPa 0,0 mm 2,7 km/h (1 Bft) NW 319 ° 0 min 0,000 mm 1,2 UV-I 139 W/m² 4,2 °C 8,4 °C 6,4 km/h (2 Bft)
01.05.2018 11:53 8,5 °C 76 % 1011,3 hPa 0,0 mm 10,6 km/h (2 Bft) W 269 ° 0 min 0,000 mm 1,1 UV-I 141 W/m² 4,5 °C 6,7 °C 12,9 km/h (3 Bft)
01.05.2018 11:54 8,5 °C 76 % 1011,3 hPa 0,0 mm 6,2 km/h (2 Bft) N-NW 331 ° 0 min 0,000 mm 1,2 UV-I 135 W/m² 4,5 °C 7,7 °C 9,7 km/h (2 Bft)
01.05.2018 11:55 8,5 °C 76 % 1011,3 hPa 0,0 mm 2,7 km/h (1 Bft) W-NW 293 ° 0 min 0,000 mm 1,2 UV-I 151 W/m² 4,5 °C 8,5 °C 6,4 km/h (2 Bft)
01.05.2018 11:56 8,5 °C 76 % 1011,4 hPa 0,0 mm 6,8 km/h (2 Bft) NW 323 ° 0 min 0,000 mm 1,3 UV-I 151 W/m² 4,5 °C 7,5 °C 9,7 km/h (2 Bft)
01.05.2018 11:57 8,5 °C 76 % 1011,4 hPa 0,0 mm 5,2 km/h (1 Bft) NW 322 ° 0 min 0,000 mm 1,3 UV-I 160 W/m² 4,5 °C 8,0 °C 8,0 km/h (2 Bft)
01.05.2018 11:58 8,5 °C 76 % 1011,4 hPa 0,0 mm 5,4 km/h (1 Bft) NW 325 ° 0 min 0,000 mm 1,3 UV-I 155 W/m² 4,5 °C 7,9 °C 8,0 km/h (2 Bft)
01.05.2018 11:59 8,4 °C 75 % 1011,4 hPa 0,0 mm 7,6 km/h (2 Bft) NW 306 ° 0 min 0,000 mm 1,2 UV-I 148 W/m² 4,2 °C 7,2 °C 11,3 km/h (2 Bft)
01.05.2018 12:00 8,4 °C 76 % 1011,4 hPa 0,0 mm 5,5 km/h (1 Bft) W 271 ° 0 min 0,000 mm 1,1 UV-I 128 W/m² 4,4 °C 7,8 °C 6,4 km/h (2 Bft)
01.05.2018 12:01 8,4 °C 76 % 1011,5 hPa 0,0 mm 3,1 km/h (1 Bft) W-NW 296 ° 0 min 0,051 mm 1,2 UV-I 139 W/m² 4,4 °C 8,4 °C 4,8 km/h (1 Bft)
01.05.2018 12:02 8,4 °C 75 % 1011,5 hPa 0,0 mm 4,6 km/h (1 Bft) W 273 ° 0 min 0,000 mm 1,1 UV-I 121 W/m² 4,2 °C 8,1 °C 6,4 km/h (2 Bft)
01.05.2018 12:03 8,4 °C 77 % 1011,6 hPa 0,0 mm 8,9 km/h (2 Bft) W-NW 297 ° 0 min 0,000 mm 1,0 UV-I 123 W/m² 4,6 °C 6,9 °C 9,7 km/h (2 Bft)
01.05.2018 12:04 8,4 °C 76 % 1011,6 hPa 0,0 mm 5,9 km/h (2 Bft) W-NW 287 ° 0 min 0,000 mm 1,1 UV-I 134 W/m² 4,4 °C 7,7 °C 8,0 km/h (2 Bft)
01.05.2018 12:05 8,4 °C 76 % 1011,6 hPa 0,0 mm 7,6 km/h (2 Bft) NW 313 ° 0 min 0,000 mm 1,2 UV-I 144 W/m² 4,4 °C 7,2 °C 11,3 km/h (2 Bft)
01.05.2018 12:06 8,4 °C 77 % 1011,5 hPa 0,0 mm 9,2 km/h (2 Bft) W-NW 289 ° 0 min 0,000 mm 1,3 UV-I 149 W/m² 4,6 °C 6,9 °C 12,9 km/h (3 Bft)
01.05.2018 12:07 8,4 °C 76 % 1011,6 hPa 0,0 mm 6,9 km/h (2 Bft) NW 318 ° 0 min 0,000 mm 1,4 UV-I 171 W/m² 4,4 °C 7,4 °C 9,7 km/h (2 Bft)
01.05.2018 12:08 8,4 °C 76 % 1011,5 hPa 0,0 mm 5,1 km/h (1 Bft) W-NW 293 ° 0 min 0,000 mm 1,6 UV-I 202 W/m² 4,4 °C 7,9 °C 11,3 km/h (2 Bft)
01.05.2018 12:09 8,4 °C 76 % 1011,5 hPa 0,0 mm 5,3 km/h (1 Bft) NW 318 ° 0 min 0,000 mm 1,7 UV-I 213 W/m² 4,4 °C 7,8 °C 8,0 km/h (2 Bft)
01.05.2018 12:10 8,6 °C 76 % 1011,5 hPa 0,0 mm 4,4 km/h (1 Bft) NW 321 ° 0 min 0,000 mm 1,9 UV-I 223 W/m² 4,6 °C 8,6 °C 4,8 km/h (1 Bft)
01.05.2018 12:11 8,6 °C 77 % 1011,5 hPa 0,0 mm 3,1 km/h (1 Bft) NW 307 ° 0 min 0,000 mm 1,8 UV-I 220 W/m² 4,8 °C 8,6 °C 4,8 km/h (1 Bft)
01.05.2018 12:12 8,7 °C 76 % 1011,5 hPa 0,0 mm 5,4 km/h (1 Bft) W-SW 252 ° 0 min 0,000 mm 1,7 UV-I 206 W/m² 4,7 °C 8,2 °C 11,3 km/h (2 Bft)
01.05.2018 12:13 8,7 °C 75 % 1011,5 hPa 0,0 mm 6,3 km/h (2 Bft) W-NW 301 ° 0 min 0,000 mm 1,7 UV-I 206 W/m² 4,5 °C 7,9 °C 11,3 km/h (2 Bft)
01.05.2018 12:14 8,7 °C 76 % 1011,5 hPa 0,0 mm 4,4 km/h (1 Bft) W 262 ° 0 min 0,000 mm 1,5 UV-I 179 W/m² 4,7 °C 8,7 °C 9,7 km/h (2 Bft)
01.05.2018 12:15 8,7 °C 77 % 1011,4 hPa 0,0 mm 3,7 km/h (1 Bft) W 272 ° 0 min 0,000 mm 1,5 UV-I 195 W/m² 4,9 °C 8,7 °C 9,7 km/h (2 Bft)
01.05.2018 12:16 8,7 °C 76 % 1011,5 hPa 0,0 mm 4,7 km/h (1 Bft) W 275 ° 0 min 0,000 mm 1,5 UV-I 195 W/m² 4,7 °C 8,4 °C 9,7 km/h (2 Bft)
01.05.2018 12:17 8,7 °C 76 % 1011,5 hPa 0,0 mm 5,5 km/h (1 Bft) W 267 ° 0 min 0,000 mm 1,5 UV-I 193 W/m² 4,7 °C 8,1 °C 8,0 km/h (2 Bft)
01.05.2018 12:18 8,7 °C 75 % 1011,5 hPa 0,0 mm 6,4 km/h (2 Bft) W-NW 288 ° 0 min 0,000 mm 1,4 UV-I 176 W/m² 4,5 °C 7,9 °C 9,7 km/h (2 Bft)
01.05.2018 12:19 8,6 °C 76 % 1011,5 hPa 0,0 mm 5,2 km/h (1 Bft) NW 306 ° 0 min 0,000 mm 1,7 UV-I 207 W/m² 4,6 °C 8,1 °C 8,0 km/h (2 Bft)
01.05.2018 12:20 8,6 °C 76 % 1011,5 hPa 0,0 mm 4,2 km/h (1 Bft) W-NW 289 ° 0 min 0,000 mm 1,7 UV-I 225 W/m² 4,6 °C 8,6 °C 4,8 km/h (1 Bft)
01.05.2018 12:21 8,7 °C 77 % 1011,5 hPa 0,0 mm 3,4 km/h (1 Bft) W 271 ° 0 min 0,000 mm 1,8 UV-I 234 W/m² 4,9 °C 8,7 °C 4,8 km/h (1 Bft)
01.05.2018 12:22 8,7 °C 77 % 1011,5 hPa 0,0 mm 4,6 km/h (1 Bft) NW 306 ° 0 min 0,000 mm 1,8 UV-I 232 W/m² 4,9 °C 8,4 °C 6,4 km/h (2 Bft)
01.05.2018 12:23 8,8 °C 77 % 1011,5 hPa 0,0 mm 5,6 km/h (1 Bft) W-NW 291 ° 0 min 0,000 mm 1,8 UV-I 237 W/m² 5,0 °C 8,2 °C 6,4 km/h (2 Bft)
01.05.2018 12:24 8,8 °C 76 % 1011,5 hPa 0,0 mm 5,1 km/h (1 Bft) W-NW 294 ° 0 min 0,000 mm 1,8 UV-I 213 W/m² 4,8 °C 8,4 °C 9,7 km/h (2 Bft)
01.05.2018 12:25 8,7 °C 75 % 1011,5 hPa 0,0 mm 6,7 km/h (2 Bft) W 278 ° 0 min 0,000 mm 1,9 UV-I 248 W/m² 4,5 °C 7,8 °C 11,3 km/h (2 Bft)
01.05.2018 12:26 8,7 °C 75 % 1011,5 hPa 0,0 mm 5,4 km/h (1 Bft) NW 315 ° 0 min 0,000 mm 1,9 UV-I 244 W/m² 4,5 °C 8,2 °C 11,3 km/h (2 Bft)
01.05.2018 12:27 8,6 °C 75 % 1011,5 hPa 0,0 mm 6,2 km/h (2 Bft) W-NW 286 ° 0 min 0,000 mm 1,9 UV-I 244 W/m² 4,4 °C 7,8 °C 9,7 km/h (2 Bft)
01.05.2018 12:28 8,6 °C 75 % 1011,5 hPa 0,0 mm 4,9 km/h (1 Bft) W-NW 294 ° 0 min 0,000 mm 2,0 UV-I 258 W/m² 4,4 °C 8,2 °C 9,7 km/h (2 Bft)
01.05.2018 12:29 8,7 °C 76 % 1011,5 hPa 0,0 mm 5,7 km/h (1 Bft) W-NW 288 ° 0 min 0,000 mm 2,1 UV-I 265 W/m² 4,7 °C 8,1 °C 11,3 km/h (2 Bft)
01.05.2018 12:30 8,7 °C 76 % 1011,5 hPa 0,0 mm 5,5 km/h (1 Bft) W 261 ° 0 min 0,000 mm 1,9 UV-I 230 W/m² 4,7 °C 8,1 °C 9,7 km/h (2 Bft)
01.05.2018 12:31 8,7 °C 76 % 1011,6 hPa 0,0 mm 7,6 km/h (2 Bft) W-SW 257 ° 0 min 0,000 mm 1,9 UV-I 246 W/m² 4,7 °C 7,6 °C 11,3 km/h (2 Bft)
01.05.2018 12:32 8,7 °C 76 % 1011,6 hPa 0,0 mm 5,5 km/h (1 Bft) W 259 ° 0 min 0,000 mm 1,9 UV-I 239 W/m² 4,7 °C 8,1 °C 11,3 km/h (2 Bft)
01.05.2018 12:33 8,8 °C 76 % 1011,6 hPa 0,0 mm 8,0 km/h (2 Bft) W 262 ° 0 min 0,000 mm 1,8 UV-I 221 W/m² 4,8 °C 7,6 °C 9,7 km/h (2 Bft)
01.05.2018 12:34 8,8 °C 76 % 1011,6 hPa 0,0 mm 3,3 km/h (1 Bft) W 262 ° 0 min 0,000 mm 1,8 UV-I 229 W/m² 4,8 °C 8,8 °C 4,8 km/h (1 Bft)
01.05.2018 12:35 8,8 °C 75 % 1011,5 hPa 0,0 mm 4,1 km/h (1 Bft) W 275 ° 0 min 0,000 mm 1,8 UV-I 230 W/m² 4,6 °C 8,8 °C 6,4 km/h (2 Bft)
01.05.2018 12:36 8,8 °C 77 % 1011,5 hPa 0,0 mm 4,9 km/h (1 Bft) W 280 ° 0 min 0,000 mm 1,6 UV-I 213 W/m² 5,0 °C 8,4 °C 6,4 km/h (2 Bft)
01.05.2018 12:37 8,8 °C 75 % 1011,5 hPa 0,0 mm 3,7 km/h (1 Bft) W 272 ° 0 min 0,000 mm 1,6 UV-I 206 W/m² 4,6 °C 8,8 °C 6,4 km/h (2 Bft)
01.05.2018 12:38 8,8 °C 75 % 1011,6 hPa 0,0 mm 6,7 km/h (2 Bft) W-SW 239 ° 0 min 0,000 mm 1,4 UV-I 183 W/m² 4,6 °C 7,9 °C 11,3 km/h (2 Bft)
01.05.2018 12:39 8,8 °C 76 % 1011,6 hPa 0,0 mm 3,0 km/h (1 Bft) W-SW 258 ° 0 min 0,000 mm 1,5 UV-I 188 W/m² 4,8 °C 8,8 °C 6,4 km/h (2 Bft)
01.05.2018 12:40 8,8 °C 75 % 1011,6 hPa 0,0 mm 4,0 km/h (1 Bft) W 274 ° 0 min 0,000 mm 1,5 UV-I 188 W/m² 4,6 °C 8,8 °C 6,4 km/h (2 Bft)
01.05.2018 12:41 8,8 °C 76 % 1011,6 hPa 0,0 mm 6,8 km/h (2 Bft) W-NW 288 ° 0 min 0,000 mm 1,4 UV-I 183 W/m² 4,8 °C 7,9 °C 12,9 km/h (3 Bft)
01.05.2018 12:42 8,8 °C 75 % 1011,6 hPa 0,0 mm 7,0 km/h (2 Bft) W 266 ° 0 min 0,000 mm 1,5 UV-I 183 W/m² 4,6 °C 7,8 °C 11,3 km/h (2 Bft)
01.05.2018 12:43 8,7 °C 74 % 1011,5 hPa 0,0 mm 6,8 km/h (2 Bft) W-SW 257 ° 0 min 0,000 mm 1,5 UV-I 199 W/m² 4,3 °C 7,8 °C 11,3 km/h (2 Bft)
01.05.2018 12:44 8,7 °C 75 % 1011,6 hPa 0,0 mm 3,6 km/h (1 Bft) W 268 ° 0 min 0,000 mm 1,5 UV-I 193 W/m² 4,5 °C 8,7 °C 6,4 km/h (2 Bft)
01.05.2018 12:45 8,7 °C 75 % 1011,5 hPa 0,0 mm 2,5 km/h (1 Bft) W-SW 254 ° 0 min 0,000 mm 1,5 UV-I 190 W/m² 4,5 °C 8,7 °C 9,7 km/h (2 Bft)
01.05.2018 12:46 8,7 °C 76 % 1011,4 hPa 0,0 mm 3,7 km/h (1 Bft) W 270 ° 0 min 0,000 mm 1,4 UV-I 183 W/m² 4,7 °C 8,7 °C 6,4 km/h (2 Bft)
01.05.2018 12:47 8,7 °C 75 % 1011,4 hPa 0,0 mm 2,5 km/h (1 Bft) W-NW 284 ° 0 min 0,000 mm 1,4 UV-I 174 W/m² 4,5 °C 8,7 °C 6,4 km/h (2 Bft)
01.05.2018 12:48 8,7 °C 76 % 1011,5 hPa 0,0 mm 4,8 km/h (1 Bft) W-SW 257 ° 0 min 0,000 mm 1,4 UV-I 181 W/m² 4,7 °C 8,3 °C 6,4 km/h (2 Bft)
01.05.2018 12:49 8,7 °C 75 % 1011,4 hPa 0,0 mm 4,6 km/h (1 Bft) W-NW 297 ° 0 min 0,000 mm 1,3 UV-I 155 W/m² 4,5 °C 8,4 °C 9,7 km/h (2 Bft)
01.05.2018 12:50 8,7 °C 75 % 1011,4 hPa 0,0 mm 4,2 km/h (1 Bft) W-SW 258 ° 0 min 0,000 mm 1,3 UV-I 176 W/m² 4,5 °C 8,7 °C 9,7 km/h (2 Bft)
01.05.2018 12:51 8,7 °C 75 % 1011,4 hPa 0,0 mm 5,8 km/h (2 Bft) W 280 ° 0 min 0,000 mm 1,4 UV-I 183 W/m² 4,5 °C 8,0 °C 11,3 km/h (2 Bft)
01.05.2018 12:52 8,8 °C 76 % 1011,4 hPa 0,0 mm 3,5 km/h (1 Bft) W-NW 292 ° 0 min 0,000 mm 1,4 UV-I 176 W/m² 4,8 °C 8,8 °C 6,4 km/h (2 Bft)
01.05.2018 12:53 8,8 °C 75 % 1011,5 hPa 0,0 mm 4,0 km/h (1 Bft) W-NW 296 ° 0 min 0,000 mm 1,4 UV-I 179 W/m² 4,6 °C 8,8 °C 6,4 km/h (2 Bft)
01.05.2018 12:54 8,8 °C 75 % 1011,4 hPa 0,0 mm 7,6 km/h (2 Bft) NW 325 ° 0 min 0,000 mm 1,4 UV-I 178 W/m² 4,6 °C 7,7 °C 12,9 km/h (3 Bft)
01.05.2018 12:55 8,8 °C 75 % 1011,4 hPa 0,0 mm 6,6 km/h (2 Bft) NW 309 ° 0 min 0,000 mm 1,3 UV-I 156 W/m² 4,6 °C 7,9 °C 9,7 km/h (2 Bft)
01.05.2018 12:56 8,8 °C 74 % 1011,3 hPa 0,0 mm 3,4 km/h (1 Bft) NW 309 ° 0 min 0,000 mm 1,3 UV-I 134 W/m² 4,4 °C 8,8 °C 6,4 km/h (2 Bft)
01.05.2018 12:57 8,8 °C 75 % 1011,4 hPa 0,0 mm 3,5 km/h (1 Bft) NW 309 ° 0 min 0,000 mm 1,1 UV-I 127 W/m² 4,6 °C 8,8 °C 4,8 km/h (1 Bft)
01.05.2018 12:58 8,8 °C 75 % 1011,5 hPa 0,0 mm 2,5 km/h (1 Bft) NW 309 ° 0 min 0,000 mm 1,2 UV-I 141 W/m² 4,6 °C 8,8 °C 4,8 km/h (1 Bft)
01.05.2018 12:59 8,8 °C 75 % 1011,4 hPa 0,0 mm 4,0 km/h (1 Bft) W-NW 300 ° 0 min 0,000 mm 1,3 UV-I 151 W/m² 4,6 °C 8,8 °C 6,4 km/h (2 Bft)
01.05.2018 13:00 8,8 °C 75 % 1011,5 hPa 0,0 mm 3,0 km/h (1 Bft) NW 304 ° 0 min 0,102 mm 1,3 UV-I 156 W/m² 4,6 °C 8,8 °C 6,4 km/h (2 Bft)
01.05.2018 13:01 8,8 °C 75 % 1011,4 hPa 0,0 mm 4,3 km/h (1 Bft) N-NW 333 ° 0 min 0,000 mm 1,3 UV-I 162 W/m² 4,6 °C 8,8 °C 4,8 km/h (1 Bft)
01.05.2018 13:02 8,9 °C 76 % 1011,5 hPa 0,0 mm 3,3 km/h (1 Bft) NW 326 ° 0 min 0,000 mm 1,3 UV-I 165 W/m² 4,9 °C 8,9 °C 4,8 km/h (1 Bft)
01.05.2018 13:03 8,9 °C 75 % 1011,5 hPa 0,0 mm 4,1 km/h (1 Bft) NW 311 ° 0 min 0,000 mm 1,3 UV-I 163 W/m² 4,7 °C 8,9 °C 6,4 km/h (2 Bft)
01.05.2018 13:04 8,8 °C 74 % 1011,5 hPa 0,0 mm 2,8 km/h (1 Bft) NW 311 ° 0 min 0,000 mm 1,3 UV-I 169 W/m² 4,4 °C 8,8 °C 4,8 km/h (1 Bft)
01.05.2018 13:05 8,8 °C 75 % 1011,4 hPa 0,0 mm 2,2 km/h (1 Bft) W 275 ° 0 min 0,000 mm 1,3 UV-I 171 W/m² 4,6 °C 8,8 °C 4,8 km/h (1 Bft)
01.05.2018 13:06 8,7 °C 75 % 1011,4 hPa 0,0 mm 4,8 km/h (1 Bft) W 271 ° 0 min 0,000 mm 1,3 UV-I 165 W/m² 4,5 °C 8,3 °C 6,4 km/h (2 Bft)
01.05.2018 13:07 8,7 °C 75 % 1011,4 hPa 0,0 mm 2,5 km/h (1 Bft) W 271 ° 0 min 0,000 mm 1,4 UV-I 183 W/m² 4,5 °C 8,7 °C 6,4 km/h (2 Bft)
01.05.2018 13:08 8,7 °C 75 % 1011,4 hPa 0,0 mm 4,7 km/h (1 Bft) W-NW 286 ° 0 min 0,000 mm 1,4 UV-I 183 W/m² 4,5 °C 8,4 °C 9,7 km/h (2 Bft)
01.05.2018 13:09 8,8 °C 77 % 1011,4 hPa 0,0 mm 3,4 km/h (1 Bft) W-NW 295 ° 0 min 0,000 mm 1,5 UV-I 185 W/m² 5,0 °C 8,8 °C 4,8 km/h (1 Bft)
01.05.2018 13:10 8,8 °C 77 % 1011,4 hPa 0,0 mm 1,9 km/h (1 Bft) W-NW 295 ° 0 min 0,000 mm 1,5 UV-I 183 W/m² 5,0 °C 8,8 °C 3,2 km/h (1 Bft)
01.05.2018 13:11 8,9 °C 77 % 1011,4 hPa 0,0 mm 0,9 km/h (0 Bft) W-NW 295 ° 0 min 0,000 mm 1,4 UV-I 181 W/m² 5,1 °C 8,9 °C 1,6 km/h (1 Bft)
01.05.2018 13:12 8,9 °C 74 % 1011,4 hPa 0,0 mm 0,1 km/h (0 Bft) W-NW 295 ° 0 min 0,000 mm 1,4 UV-I 181 W/m² 4,5 °C 8,9 °C 1,6 km/h (1 Bft)
01.05.2018 13:13 8,9 °C 74 % 1011,4 hPa 0,0 mm 0,5 km/h (0 Bft) W-NW 282 ° 0 min 0,000 mm 1,4 UV-I 176 W/m² 4,5 °C 8,9 °C 3,2 km/h (1 Bft)
01.05.2018 13:14 8,8 °C 75 % 1011,4 hPa 0,0 mm 3,4 km/h (1 Bft) W-NW 282 ° 0 min 0,000 mm 1,3 UV-I 172 W/m² 4,6 °C 8,8 °C 4,8 km/h (1 Bft)
01.05.2018 13:15 8,8 °C 75 % 1011,4 hPa 0,0 mm 2,3 km/h (1 Bft) W 273 ° 0 min 0,000 mm 1,3 UV-I 169 W/m² 4,6 °C 8,8 °C 6,4 km/h (2 Bft)
01.05.2018 13:16 8,8 °C 76 % 1011,4 hPa 0,0 mm 3,5 km/h (1 Bft) W 271 ° 0 min 0,000 mm 1,3 UV-I 163 W/m² 4,8 °C 8,8 °C 4,8 km/h (1 Bft)
01.05.2018 13:17 8,7 °C 75 % 1011,4 hPa 0,0 mm 4,3 km/h (1 Bft) W-SW 257 ° 0 min 0,000 mm 1,2 UV-I 151 W/m² 4,5 °C 8,7 °C 6,4 km/h (2 Bft)
01.05.2018 13:18 8,8 °C 77 % 1011,5 hPa 0,0 mm 3,6 km/h (1 Bft) W-SW 257 ° 0 min 0,000 mm 1,2 UV-I 146 W/m² 5,0 °C 8,8 °C 6,4 km/h (2 Bft)
01.05.2018 13:19 8,8 °C 76 % 1011,5 hPa 0,0 mm 3,3 km/h (1 Bft) W 274 ° 0 min 0,000 mm 1,2 UV-I 155 W/m² 4,8 °C 8,8 °C 4,8 km/h (1 Bft)
01.05.2018 13:20 8,8 °C 76 % 1011,6 hPa 0,0 mm 2,9 km/h (1 Bft) W-NW 292 ° 0 min 0,000 mm 1,2 UV-I 153 W/m² 4,8 °C 8,8 °C 4,8 km/h (1 Bft)
01.05.2018 13:21 8,8 °C 75 % 1011,6 hPa 0,0 mm 2,5 km/h (1 Bft) W-NW 292 ° 0 min 0,000 mm 1,2 UV-I 151 W/m² 4,6 °C 8,8 °C 4,8 km/h (1 Bft)
01.05.2018 13:22 8,8 °C 76 % 1011,6 hPa 0,0 mm 2,7 km/h (1 Bft) W-NW 292 ° 0 min 0,000 mm 1,2 UV-I 149 W/m² 4,8 °C 8,8 °C 4,8 km/h (1 Bft)
01.05.2018 13:23 8,8 °C 74 % 1011,6 hPa 0,0 mm 3,0 km/h (1 Bft) W-NW 292 ° 0 min 0,000 mm 1,2 UV-I 151 W/m² 4,4 °C 8,8 °C 3,2 km/h (1 Bft)
01.05.2018 13:24 8,7 °C 75 % 1011,6 hPa 0,0 mm 1,6 km/h (1 Bft) W-NW 292 ° 0 min 0,000 mm 1,3 UV-I 153 W/m² 4,5 °C 8,7 °C 3,2 km/h (1 Bft)
01.05.2018 13:25 8,8 °C 76 % 1011,6 hPa 0,0 mm 2,5 km/h (1 Bft) W-NW 292 ° 0 min 0,000 mm 1,3 UV-I 155 W/m² 4,8 °C 8,8 °C 4,8 km/h (1 Bft)
01.05.2018 13:26 8,7 °C 75 % 1011,6 hPa 0,0 mm 0,0 km/h (0 Bft) W-NW 292 ° 0 min 0,000 mm 1,3 UV-I 153 W/m² 4,5 °C 8,7 °C 0,0 km/h (0 Bft)
01.05.2018 13:27 8,7 °C 74 % 1011,6 hPa 0,0 mm 0,6 km/h (0 Bft) W-NW 292 ° 0 min 0,000 mm 1,3 UV-I 153 W/m² 4,3 °C 8,7 °C 1,6 km/h (1 Bft)
01.05.2018 13:28 8,7 °C 76 % 1011,6 hPa 0,0 mm 0,6 km/h (0 Bft) W-NW 292 ° 0 min 0,000 mm 1,3 UV-I 151 W/m² 4,7 °C 8,7 °C 3,2 km/h (1 Bft)
01.05.2018 13:29 8,8 °C 76 % 1011,6 hPa 0,0 mm 0,5 km/h (0 Bft) W-NW 292 ° 0 min 0,000 mm 1,3 UV-I 151 W/m² 4,8 °C 8,8 °C 1,6 km/h (1 Bft)
01.05.2018 13:30 8,7 °C 74 % 1011,6 hPa 0,0 mm 1,3 km/h (1 Bft) W-NW 292 ° 0 min 0,000 mm 1,3 UV-I 153 W/m² 4,3 °C 8,7 °C 1,6 km/h (1 Bft)
01.05.2018 13:31 8,7 °C 74 % 1011,6 hPa 0,0 mm 1,8 km/h (1 Bft) W-NW 292 ° 0 min 0,000 mm 1,3 UV-I 155 W/m² 4,3 °C 8,7 °C 3,2 km/h (1 Bft)
01.05.2018 13:32 8,8 °C 75 % 1011,6 hPa 0,0 mm 1,7 km/h (1 Bft) W-NW 292 ° 0 min 0,000 mm 1,3 UV-I 151 W/m² 4,6 °C 8,8 °C 3,2 km/h (1 Bft)
01.05.2018 13:33 8,8 °C 77 % 1011,6 hPa 0,0 mm 1,5 km/h (1 Bft) W-NW 292 ° 0 min 0,000 mm 1,2 UV-I 146 W/m² 5,0 °C 8,8 °C 3,2 km/h (1 Bft)
01.05.2018 13:34 8,8 °C 74 % 1011,6 hPa 0,0 mm 1,2 km/h (1 Bft) W-NW 292 ° 0 min 0,000 mm 1,2 UV-I 146 W/m² 4,4 °C 8,8 °C 3,2 km/h (1 Bft)
01.05.2018 13:35 8,8 °C 75 % 1011,6 hPa 0,0 mm 1,2 km/h (1 Bft) W-NW 292 ° 0 min 0,000 mm 1,2 UV-I 137 W/m² 4,6 °C 8,8 °C 1,6 km/h (1 Bft)
01.05.2018 13:36 8,8 °C 74 % 1011,6 hPa 0,0 mm 0,0 km/h (0 Bft) W-NW 292 ° 0 min 0,000 mm 1,1 UV-I 139 W/m² 4,4 °C 8,8 °C 0,0 km/h (0 Bft)
01.05.2018 13:37 8,8 °C 74 % 1011,7 hPa 0,0 mm 0,0 km/h (0 Bft) W-NW 292 ° 0 min 0,000 mm 1,1 UV-I 139 W/m² 4,4 °C 8,8 °C 0,0 km/h (0 Bft)
01.05.2018 13:38 8,8 °C 74 % 1011,7 hPa 0,0 mm 0,0 km/h (0 Bft) W-NW 292 ° 0 min 0,000 mm 1,2 UV-I 141 W/m² 4,4 °C 8,8 °C 0,0 km/h (0 Bft)
01.05.2018 13:39 8,8 °C 75 % 1011,7 hPa 0,0 mm 0,1 km/h (0 Bft) W-NW 292 ° 0 min 0,000 mm 1,2 UV-I 148 W/m² 4,6 °C 8,8 °C 1,6 km/h (1 Bft)
01.05.2018 13:40 8,7 °C 74 % 1011,7 hPa 0,0 mm 1,0 km/h (0 Bft) W-NW 292 ° 0 min 0,000 mm 1,3 UV-I 155 W/m² 4,3 °C 8,7 °C 3,2 km/h (1 Bft)
01.05.2018 13:41 8,7 °C 74 % 1011,6 hPa 0,0 mm 1,7 km/h (1 Bft) W-NW 292 ° 0 min 0,000 mm 1,3 UV-I 156 W/m² 4,3 °C 8,7 °C 3,2 km/h (1 Bft)
01.05.2018 13:42 8,7 °C 74 % 1011,7 hPa 0,0 mm 1,0 km/h (0 Bft) W-NW 292 ° 0 min 0,000 mm 1,3 UV-I 160 W/m² 4,3 °C 8,7 °C 3,2 km/h (1 Bft)
01.05.2018 13:43 8,7 °C 76 % 1011,7 hPa 0,0 mm 0,0 km/h (0 Bft) W-NW 292 ° 0 min 0,000 mm 1,3 UV-I 163 W/m² 4,7 °C 8,7 °C 0,0 km/h (0 Bft)
01.05.2018 13:44 8,7 °C 74 % 1011,7 hPa 0,0 mm 0,0 km/h (0 Bft) W-NW 292 ° 0 min 0,000 mm 1,3 UV-I 167 W/m² 4,3 °C 8,7 °C 0,0 km/h (0 Bft)
01.05.2018 13:45 8,8 °C 76 % 1011,7 hPa 0,0 mm 0,0 km/h (0 Bft) W-NW 292 ° 0 min 0,000 mm 1,3 UV-I 167 W/m² 4,8 °C 8,8 °C 0,0 km/h (0 Bft)
01.05.2018 13:46 8,8 °C 77 % 1011,7 hPa 0,0 mm 0,0 km/h (0 Bft) W-NW 292 ° 0 min 0,000 mm 1,3 UV-I 165 W/m² 5,0 °C 8,8 °C 0,0 km/h (0 Bft)
01.05.2018 13:47 8,9 °C 77 % 1011,7 hPa 0,0 mm 0,0 km/h (0 Bft) W-NW 292 ° 0 min 0,000 mm 1,3 UV-I 162 W/m² 5,1 °C 8,9 °C 0,0 km/h (0 Bft)
01.05.2018 13:48 8,9 °C 77 % 1011,6 hPa 0,0 mm 1,2 km/h (1 Bft) W-NW 292 ° 0 min 0,000 mm 1,3 UV-I 163 W/m² 5,1 °C 8,9 °C 3,2 km/h (1 Bft)
01.05.2018 13:49 9,0 °C 76 % 1011,5 hPa 0,0 mm 0,4 km/h (0 Bft) W-NW 292 ° 0 min 0,000 mm 1,3 UV-I 167 W/m² 5,0 °C 9,0 °C 1,6 km/h (1 Bft)
01.05.2018 13:50 9,0 °C 75 % 1011,6 hPa 0,0 mm 1,0 km/h (0 Bft) W-NW 292 ° 0 min 0,000 mm 1,3 UV-I 167 W/m² 4,8 °C 9,0 °C 3,2 km/h (1 Bft)
01.05.2018 13:51 9,0 °C 75 % 1011,6 hPa 0,0 mm 0,0 km/h (0 Bft) W-NW 292 ° 0 min 0,000 mm 1,4 UV-I 169 W/m² 4,8 °C 9,0 °C 0,0 km/h (0 Bft)
01.05.2018 13:52 9,0 °C 75 % 1011,6 hPa 0,0 mm 0,1 km/h (0 Bft) W-NW 292 ° 0 min 0,000 mm 1,3 UV-I 169 W/m² 4,8 °C 9,0 °C 1,6 km/h (1 Bft)
01.05.2018 13:53 8,9 °C 75 % 1011,7 hPa 0,0 mm 1,3 km/h (1 Bft) W-NW 292 ° 0 min 0,000 mm 1,3 UV-I 156 W/m² 4,7 °C 8,9 °C 3,2 km/h (1 Bft)
01.05.2018 13:54 8,9 °C 75 % 1011,6 hPa 0,0 mm 0,0 km/h (0 Bft) W-NW 292 ° 0 min 0,000 mm 1,3 UV-I 171 W/m² 4,7 °C 8,9 °C 0,0 km/h (0 Bft)
01.05.2018 13:55 8,9 °C 75 % 1011,6 hPa 0,0 mm 0,0 km/h (0 Bft) W-NW 292 ° 0 min 0,000 mm 1,4 UV-I 171 W/m² 4,7 °C 8,9 °C 0,0 km/h (0 Bft)
01.05.2018 13:56 8,9 °C 75 % 1011,6 hPa 0,0 mm 0,0 km/h (0 Bft) W-NW 292 ° 0 min 0,000 mm 1,4 UV-I 172 W/m² 4,7 °C 8,9 °C 0,0 km/h (0 Bft)
01.05.2018 13:57 8,9 °C 75 % 1011,6 hPa 0,0 mm 0,1 km/h (0 Bft) W-NW 292 ° 0 min 0,000 mm 1,4 UV-I 172 W/m² 4,7 °C 8,9 °C 1,6 km/h (1 Bft)
01.05.2018 13:58 8,9 °C 77 % 1011,6 hPa 0,0 mm 0,0 km/h (0 Bft) W-NW 292 ° 0 min 0,000 mm 1,3 UV-I 172 W/m² 5,1 °C 8,9 °C 0,0 km/h (0 Bft)
01.05.2018 13:59 8,9 °C 77 % 1011,6 hPa 0,0 mm 0,3 km/h (0 Bft) W-NW 292 ° 0 min 0,000 mm 1,3 UV-I 169 W/m² 5,1 °C 8,9 °C 3,2 km/h (1 Bft)
01.05.2018 14:00 8,9 °C 76 % 1011,7 hPa 0,0 mm 2,7 km/h (1 Bft) W-NW 292 ° 0 min 0,000 mm 1,3 UV-I 165 W/m² 4,9 °C 8,9 °C 4,8 km/h (1 Bft)
01.05.2018 14:01 8,9 °C 75 % 1011,6 hPa 0,0 mm 1,5 km/h (1 Bft) W-NW 292 ° 0 min 0,076 mm 1,3 UV-I 163 W/m² 4,7 °C 8,9 °C 3,2 km/h (1 Bft)
01.05.2018 14:02 8,9 °C 75 % 1011,6 hPa 0,0 mm 0,7 km/h (0 Bft) W-NW 292 ° 0 min 0,000 mm 1,3 UV-I 163 W/m² 4,7 °C 8,9 °C 3,2 km/h (1 Bft)
01.05.2018 14:03 8,9 °C 77 % 1011,6 hPa 0,0 mm 0,0 km/h (0 Bft) W-NW 292 ° 0 min 0,000 mm 1,3 UV-I 163 W/m² 5,1 °C 8,9 °C 0,0 km/h (0 Bft)
01.05.2018 14:04 8,9 °C 75 % 1011,5 hPa 0,0 mm 0,0 km/h (0 Bft) W-NW 292 ° 0 min 0,000 mm 1,3 UV-I 163 W/m² 4,7 °C 8,9 °C 0,0 km/h (0 Bft)
01.05.2018 14:05 8,9 °C 76 % 1011,6 hPa 0,0 mm 0,4 km/h (0 Bft) W-NW 292 ° 0 min 0,000 mm 1,3 UV-I 162 W/m² 4,9 °C 8,9 °C 1,6 km/h (1 Bft)
01.05.2018 14:06 8,9 °C 76 % 1011,6 hPa 0,0 mm 0,0 km/h (0 Bft) W-NW 292 ° 0 min 0,000 mm 1,3 UV-I 165 W/m² 4,9 °C 8,9 °C 0,0 km/h (0 Bft)
01.05.2018 14:07 8,9 °C 77 % 1011,6 hPa 0,0 mm 0,7 km/h (0 Bft) W-NW 292 ° 0 min 0,000 mm 1,3 UV-I 169 W/m² 5,1 °C 8,9 °C 1,6 km/h (1 Bft)
01.05.2018 14:08 8,9 °C 77 % 1011,6 hPa 0,0 mm 0,3 km/h (0 Bft) W-NW 292 ° 0 min 0,000 mm 1,4 UV-I 176 W/m² 5,1 °C 8,9 °C 1,6 km/h (1 Bft)
01.05.2018 14:09 8,9 °C 75 % 1011,6 hPa 0,0 mm 0,7 km/h (0 Bft) W-NW 292 ° 0 min 0,000 mm 1,4 UV-I 181 W/m² 4,7 °C 8,9 °C 1,6 km/h (1 Bft)
01.05.2018 14:10 8,9 °C 75 % 1011,5 hPa 0,0 mm 0,2 km/h (0 Bft) W-NW 292 ° 0 min 0,000 mm 1,4 UV-I 183 W/m² 4,7 °C 8,9 °C 1,6 km/h (1 Bft)
01.05.2018 14:11 8,9 °C 76 % 1011,5 hPa 0,0 mm 0,8 km/h (0 Bft) W-NW 292 ° 0 min 0,000 mm 1,4 UV-I 172 W/m² 4,9 °C 8,9 °C 1,6 km/h (1 Bft)
01.05.2018 14:12 8,9 °C 76 % 1011,6 hPa 0,0 mm 0,0 km/h (0 Bft) W-NW 292 ° 0 min 0,000 mm 1,4 UV-I 181 W/m² 4,9 °C 8,9 °C 0,0 km/h (0 Bft)
01.05.2018 14:13 8,9 °C 76 % 1011,6 hPa 0,0 mm 0,1 km/h (0 Bft) W-NW 292 ° 0 min 0,000 mm 1,4 UV-I 181 W/m² 4,9 °C 8,9 °C 1,6 km/h (1 Bft)
01.05.2018 14:14 9,0 °C 75 % 1011,6 hPa 0,0 mm 0,3 km/h (0 Bft) W-NW 292 ° 0 min 0,000 mm 1,4 UV-I 172 W/m² 4,8 °C 9,0 °C 1,6 km/h (1 Bft)
01.05.2018 14:15 9,1 °C 76 % 1011,6 hPa 0,0 mm 1,1 km/h (1 Bft) W-NW 292 ° 0 min 0,000 mm 1,4 UV-I 169 W/m² 5,1 °C 9,1 °C 3,2 km/h (1 Bft)
01.05.2018 14:16 9,1 °C 77 % 1011,6 hPa 0,0 mm 0,9 km/h (0 Bft) W-NW 292 ° 0 min 0,000 mm 1,5 UV-I 186 W/m² 5,3 °C 9,1 °C 3,2 km/h (1 Bft)
01.05.2018 14:17 9,1 °C 75 % 1011,6 hPa 0,0 mm 0,6 km/h (0 Bft) W-NW 292 ° 0 min 0,000 mm 1,5 UV-I 200 W/m² 4,9 °C 9,1 °C 3,2 km/h (1 Bft)
01.05.2018 14:18 9,1 °C 76 % 1011,6 hPa 0,0 mm 0,0 km/h (0 Bft) W-NW 292 ° 0 min 0,000 mm 1,5 UV-I 197 W/m² 5,1 °C 9,1 °C 0,0 km/h (0 Bft)
01.05.2018 14:19 9,1 °C 75 % 1011,6 hPa 0,0 mm 0,0 km/h (0 Bft) W-NW 292 ° 0 min 0,000 mm 1,4 UV-I 190 W/m² 4,9 °C 9,1 °C 0,0 km/h (0 Bft)
01.05.2018 14:20 9,1 °C 75 % 1011,7 hPa 0,0 mm 2,4 km/h (1 Bft) N 350 ° 0 min 0,000 mm 1,4 UV-I 181 W/m² 4,9 °C 9,1 °C 4,8 km/h (1 Bft)
01.05.2018 14:21 9,2 °C 77 % 1011,7 hPa 0,0 mm 1,1 km/h (1 Bft) N 350 ° 0 min 0,000 mm 1,3 UV-I 178 W/m² 5,4 °C 9,2 °C 4,8 km/h (1 Bft)
01.05.2018 14:22 9,2 °C 74 % 1011,7 hPa 0,0 mm 0,3 km/h (0 Bft) N 350 ° 0 min 0,000 mm 1,3 UV-I 176 W/m² 4,8 °C 9,2 °C 1,6 km/h (1 Bft)
01.05.2018 14:23 9,2 °C 75 % 1011,8 hPa 0,0 mm 1,1 km/h (1 Bft) N-NO 18 ° 0 min 0,000 mm 1,3 UV-I 178 W/m² 5,0 °C 9,2 °C 4,8 km/h (1 Bft)
01.05.2018 14:24 9,2 °C 76 % 1011,7 hPa 0,0 mm 3,6 km/h (1 Bft) N-NO 24 ° 0 min 0,000 mm 1,4 UV-I 181 W/m² 5,2 °C 9,2 °C 6,4 km/h (2 Bft)
01.05.2018 14:25 9,3 °C 77 % 1011,7 hPa 0,0 mm 0,6 km/h (0 Bft) N-NO 24 ° 0 min 0,000 mm 1,5 UV-I 195 W/m² 5,5 °C 9,3 °C 3,2 km/h (1 Bft)
01.05.2018 14:26 9,3 °C 77 % 1011,7 hPa 0,0 mm 1,3 km/h (1 Bft) NO 39 ° 0 min 0,000 mm 1,6 UV-I 213 W/m² 5,5 °C 9,3 °C 3,2 km/h (1 Bft)
01.05.2018 14:27 9,3 °C 75 % 1011,7 hPa 0,0 mm 1,0 km/h (0 Bft) NO 39 ° 0 min 0,000 mm 1,6 UV-I 206 W/m² 5,1 °C 9,3 °C 3,2 km/h (1 Bft)
01.05.2018 14:28 9,3 °C 74 % 1011,7 hPa 0,0 mm 0,0 km/h (0 Bft) NO 39 ° 0 min 0,000 mm 1,6 UV-I 197 W/m² 4,9 °C 9,3 °C 0,0 km/h (0 Bft)
01.05.2018 14:29 9,3 °C 75 % 1011,7 hPa 0,0 mm 0,0 km/h (0 Bft) NO 39 ° 0 min 0,000 mm 1,6 UV-I 206 W/m² 5,1 °C 9,3 °C 0,0 km/h (0 Bft)
01.05.2018 14:30 9,2 °C 74 % 1011,7 hPa 0,0 mm 0,0 km/h (0 Bft) NO 39 ° 0 min 0,000 mm 1,4 UV-I 186 W/m² 4,8 °C 9,2 °C 0,0 km/h (0 Bft)
01.05.2018 14:31 9,2 °C 74 % 1011,7 hPa 0,0 mm 0,0 km/h (0 Bft) NO 39 ° 0 min 0,000 mm 1,2 UV-I 151 W/m² 4,8 °C 9,2 °C 0,0 km/h (0 Bft)
01.05.2018 14:32 9,3 °C 75 % 1011,8 hPa 0,0 mm 0,0 km/h (0 Bft) NO 39 ° 0 min 0,000 mm 1,1 UV-I 139 W/m² 5,1 °C 9,3 °C 0,0 km/h (0 Bft)
01.05.2018 14:33 9,3 °C 75 % 1011,7 hPa 0,0 mm 0,0 km/h (0 Bft) NO 39 ° 0 min 0,000 mm 1,1 UV-I 134 W/m² 5,1 °C 9,3 °C 0,0 km/h (0 Bft)
01.05.2018 14:34 9,2 °C 74 % 1011,7 hPa 0,0 mm 0,0 km/h (0 Bft) NO 39 ° 0 min 0,000 mm 1,1 UV-I 146 W/m² 4,8 °C 9,2 °C 0,0 km/h (0 Bft)
01.05.2018 14:35 9,3 °C 75 % 1011,6 hPa 0,0 mm 0,0 km/h (0 Bft) NO 39 ° 0 min 0,000 mm 1,3 UV-I 190 W/m² 5,1 °C 9,3 °C 0,0 km/h (0 Bft)
01.05.2018 14:36 9,3 °C 76 % 1011,6 hPa 0,0 mm 0,0 km/h (0 Bft) NO 39 ° 0 min 0,000 mm 1,6 UV-I 202 W/m² 5,3 °C 9,3 °C 0,0 km/h (0 Bft)
01.05.2018 14:37 9,3 °C 74 % 1011,5 hPa 0,0 mm 0,0 km/h (0 Bft) NO 39 ° 0 min 0,000 mm 1,6 UV-I 204 W/m² 4,9 °C 9,3 °C 0,0 km/h (0 Bft)
01.05.2018 14:38 9,3 °C 75 % 1011,5 hPa 0,0 mm 0,0 km/h (0 Bft) NO 39 ° 0 min 0,000 mm 1,8 UV-I 220 W/m² 5,1 °C 9,3 °C 0,0 km/h (0 Bft)
01.05.2018 14:39 9,4 °C 78 % 1011,4 hPa 0,0 mm 0,0 km/h (0 Bft) NO 39 ° 0 min 0,000 mm 2,0 UV-I 250 W/m² 5,8 °C 9,4 °C 0,0 km/h (0 Bft)
01.05.2018 14:40 9,6 °C 78 % 1011,4 hPa 0,0 mm 0,3 km/h (0 Bft) NO 39 ° 0 min 0,000 mm 2,0 UV-I 250 W/m² 6,0 °C 9,6 °C 1,6 km/h (1 Bft)
01.05.2018 14:41 9,7 °C 76 % 1011,5 hPa 0,0 mm 1,3 km/h (1 Bft) NO 39 ° 0 min 0,000 mm 1,9 UV-I 248 W/m² 5,7 °C 9,7 °C 3,2 km/h (1 Bft)
01.05.2018 14:42 9,7 °C 75 % 1011,5 hPa 0,0 mm 1,4 km/h (1 Bft) NO 50 ° 0 min 0,000 mm 2,0 UV-I 258 W/m² 5,5 °C 9,7 °C 4,8 km/h (1 Bft)
01.05.2018 14:43 9,7 °C 74 % 1011,5 hPa 0,0 mm 5,2 km/h (1 Bft) O-SO 105 ° 0 min 0,000 mm 2,0 UV-I 262 W/m² 5,3 °C 9,4 °C 9,7 km/h (2 Bft)
01.05.2018 14:44 9,6 °C 73 % 1011,5 hPa 0,0 mm 3,7 km/h (1 Bft) O-SO 111 ° 0 min 0,000 mm 2,0 UV-I 272 W/m² 5,0 °C 9,6 °C 4,8 km/h (1 Bft)
01.05.2018 14:45 9,5 °C 73 % 1011,5 hPa 0,0 mm 4,0 km/h (1 Bft) O-SO 111 ° 0 min 0,000 mm 2,1 UV-I 281 W/m² 4,9 °C 9,5 °C 4,8 km/h (1 Bft)
01.05.2018 14:46 9,4 °C 73 % 1011,5 hPa 0,0 mm 1,8 km/h (1 Bft) O-SO 110 ° 0 min 0,000 mm 1,9 UV-I 258 W/m² 4,8 °C 9,4 °C 3,2 km/h (1 Bft)
01.05.2018 14:47 9,4 °C 74 % 1011,5 hPa 0,0 mm 1,2 km/h (1 Bft) O 80 ° 0 min 0,000 mm 1,9 UV-I 287 W/m² 5,0 °C 9,4 °C 3,2 km/h (1 Bft)
01.05.2018 14:48 9,4 °C 73 % 1011,5 hPa 0,0 mm 0,0 km/h (0 Bft) O 80 ° 1 min 0,000 mm 2,2 UV-I 308 W/m² 4,8 °C 9,4 °C 0,0 km/h (0 Bft)
01.05.2018 14:49 9,4 °C 75 % 1011,5 hPa 0,0 mm 0,0 km/h (0 Bft) O 80 ° 1 min 0,000 mm 2,2 UV-I 306 W/m² 5,2 °C 9,4 °C 0,0 km/h (0 Bft)
01.05.2018 14:50 9,4 °C 74 % 1011,4 hPa 0,0 mm 0,1 km/h (0 Bft) O 80 ° 1 min 0,000 mm 2,3 UV-I 308 W/m² 5,0 °C 9,4 °C 1,6 km/h (1 Bft)
01.05.2018 14:51 9,6 °C 76 % 1011,4 hPa 0,0 mm 1,7 km/h (1 Bft) NO 53 ° 0 min 0,000 mm 2,1 UV-I 281 W/m² 5,6 °C 9,6 °C 6,4 km/h (2 Bft)
01.05.2018 14:52 9,6 °C 74 % 1011,4 hPa 0,0 mm 2,7 km/h (1 Bft) NO 53 ° 0 min 0,000 mm 2,0 UV-I 258 W/m² 5,2 °C 9,6 °C 8,0 km/h (2 Bft)
01.05.2018 14:53 9,6 °C 73 % 1011,4 hPa 0,0 mm 2,7 km/h (1 Bft) N-NO 28 ° 0 min 0,000 mm 2,0 UV-I 264 W/m² 5,0 °C 9,6 °C 4,8 km/h (1 Bft)
01.05.2018 14:54 9,7 °C 74 % 1011,5 hPa 0,0 mm 3,3 km/h (1 Bft) N-NO 28 ° 0 min 0,000 mm 2,0 UV-I 262 W/m² 5,3 °C 9,7 °C 6,4 km/h (2 Bft)
01.05.2018 14:55 9,7 °C 76 % 1011,5 hPa 0,0 mm 2,7 km/h (1 Bft) N-NO 28 ° 0 min 0,000 mm 2,1 UV-I 262 W/m² 5,7 °C 9,7 °C 3,2 km/h (1 Bft)
01.05.2018 14:56 9,7 °C 73 % 1011,4 hPa 0,0 mm 4,0 km/h (1 Bft) N-NO 26 ° 0 min 0,000 mm 2,2 UV-I 285 W/m² 5,1 °C 9,7 °C 4,8 km/h (1 Bft)
01.05.2018 14:57 9,7 °C 74 % 1011,4 hPa 0,0 mm 3,6 km/h (1 Bft) N-NO 26 ° 1 min 0,000 mm 2,3 UV-I 304 W/m² 5,3 °C 9,7 °C 6,4 km/h (2 Bft)
01.05.2018 14:58 9,7 °C 76 % 1011,4 hPa 0,0 mm 1,7 km/h (1 Bft) N-NO 26 ° 1 min 0,000 mm 2,3 UV-I 323 W/m² 5,7 °C 9,7 °C 3,2 km/h (1 Bft)
01.05.2018 14:59 9,8 °C 75 % 1011,4 hPa 0,0 mm 1,5 km/h (1 Bft) N-NO 26 ° 1 min 0,000 mm 2,4 UV-I 345 W/m² 5,6 °C 9,8 °C 1,6 km/h (1 Bft)
01.05.2018 15:00 9,8 °C 74 % 1011,4 hPa 0,0 mm 0,5 km/h (0 Bft) N-NO 26 ° 1 min 0,000 mm 2,5 UV-I 353 W/m² 5,4 °C 9,8 °C 1,6 km/h (1 Bft)
01.05.2018 15:01 9,8 °C 74 % 1011,4 hPa 0,0 mm 1,0 km/h (0 Bft) O 98 ° 1 min 0,101 mm 2,6 UV-I 352 W/m² 5,4 °C 9,8 °C 3,2 km/h (1 Bft)
01.05.2018 15:02 9,8 °C 73 % 1011,4 hPa 0,0 mm 0,3 km/h (0 Bft) O 98 ° 1 min 0,000 mm 2,6 UV-I 357 W/m² 5,2 °C 9,8 °C 1,6 km/h (1 Bft)
01.05.2018 15:03 9,8 °C 73 % 1011,4 hPa 0,0 mm 0,6 km/h (0 Bft) O 98 ° 1 min 0,000 mm 2,6 UV-I 355 W/m² 5,2 °C 9,8 °C 1,6 km/h (1 Bft)
01.05.2018 15:04 9,8 °C 73 % 1011,4 hPa 0,0 mm 0,4 km/h (0 Bft) O 98 ° 1 min 0,000 mm 2,5 UV-I 311 W/m² 5,2 °C 9,8 °C 1,6 km/h (1 Bft)
01.05.2018 15:05 9,8 °C 74 % 1011,4 hPa 0,0 mm 0,9 km/h (0 Bft) O 98 ° 1 min 0,000 mm 2,3 UV-I 292 W/m² 5,4 °C 9,8 °C 1,6 km/h (1 Bft)
01.05.2018 15:06 9,9 °C 73 % 1011,4 hPa 0,0 mm 2,4 km/h (1 Bft) O-NO 65 ° 1 min 0,000 mm 2,4 UV-I 297 W/m² 5,3 °C 9,9 °C 3,2 km/h (1 Bft)
01.05.2018 15:07 9,9 °C 74 % 1011,4 hPa 0,0 mm 0,4 km/h (0 Bft) O-NO 65 ° 1 min 0,000 mm 2,5 UV-I 309 W/m² 5,5 °C 9,9 °C 1,6 km/h (1 Bft)
01.05.2018 15:08 10,0 °C 74 % 1011,4 hPa 0,0 mm 1,7 km/h (1 Bft) NO 49 ° 1 min 0,000 mm 2,6 UV-I 327 W/m² 5,6 °C 10,0 °C 3,2 km/h (1 Bft)
01.05.2018 15:09 10,1 °C 76 % 1011,4 hPa 0,0 mm 3,9 km/h (1 Bft) NO 47 ° 1 min 0,000 mm 2,6 UV-I 339 W/m² 6,1 °C 10,1 °C 4,8 km/h (1 Bft)
01.05.2018 15:10 10,2 °C 74 % 1011,3 hPa 0,0 mm 3,7 km/h (1 Bft) NO 45 ° 1 min 0,000 mm 2,6 UV-I 323 W/m² 5,8 °C 10,2 °C 4,8 km/h (1 Bft)
01.05.2018 15:11 10,2 °C 72 % 1011,3 hPa 0,0 mm 1,4 km/h (1 Bft) NO 45 ° 1 min 0,000 mm 2,7 UV-I 327 W/m² 5,4 °C 10,2 °C 3,2 km/h (1 Bft)
01.05.2018 15:12 10,2 °C 72 % 1011,3 hPa 0,0 mm 2,3 km/h (1 Bft) NO 45 ° 1 min 0,000 mm 2,8 UV-I 353 W/m² 5,4 °C 10,2 °C 4,8 km/h (1 Bft)
01.05.2018 15:13 10,2 °C 73 % 1011,2 hPa 0,0 mm 2,3 km/h (1 Bft) NO 36 ° 1 min 0,000 mm 2,9 UV-I 373 W/m² 5,6 °C 10,2 °C 4,8 km/h (1 Bft)
01.05.2018 15:14 10,1 °C 72 % 1011,1 hPa 0,0 mm 2,0 km/h (1 Bft) NO 36 ° 1 min 0,000 mm 3,0 UV-I 380 W/m² 5,3 °C 10,1 °C 3,2 km/h (1 Bft)
01.05.2018 15:15 10,1 °C 73 % 1011,2 hPa 0,0 mm 3,7 km/h (1 Bft) N 355 ° 1 min 0,000 mm 3,0 UV-I 390 W/m² 5,5 °C 10,1 °C 4,8 km/h (1 Bft)
01.05.2018 15:16 10,1 °C 74 % 1011,1 hPa 0,0 mm 5,5 km/h (1 Bft) N-NW 335 ° 1 min 0,000 mm 2,8 UV-I 334 W/m² 5,7 °C 10,1 °C 8,0 km/h (2 Bft)
01.05.2018 15:17 10,1 °C 72 % 1011,1 hPa 0,0 mm 1,9 km/h (1 Bft) N-NW 334 ° 1 min 0,000 mm 3,0 UV-I 381 W/m² 5,3 °C 10,1 °C 3,2 km/h (1 Bft)
01.05.2018 15:18 10,1 °C 73 % 1011,1 hPa 0,0 mm 2,7 km/h (1 Bft) NW 304 ° 1 min 0,000 mm 3,1 UV-I 410 W/m² 5,5 °C 10,1 °C 4,8 km/h (1 Bft)
01.05.2018 15:19 10,2 °C 74 % 1011,1 hPa 0,0 mm 3,6 km/h (1 Bft) NW 304 ° 1 min 0,000 mm 3,1 UV-I 429 W/m² 5,8 °C 10,2 °C 4,8 km/h (1 Bft)
01.05.2018 15:20 10,2 °C 74 % 1011,2 hPa 0,0 mm 3,2 km/h (1 Bft) W-NW 301 ° 1 min 0,000 mm 3,2 UV-I 487 W/m² 5,8 °C 10,2 °C 4,8 km/h (1 Bft)
01.05.2018 15:21 10,3 °C 73 % 1011,2 hPa 0,0 mm 1,2 km/h (1 Bft) W-NW 301 ° 1 min 0,000 mm 2,6 UV-I 487 W/m² 5,7 °C 10,3 °C 3,2 km/h (1 Bft)
01.05.2018 15:22 10,3 °C 73 % 1011,2 hPa 0,0 mm 2,5 km/h (1 Bft) W-NW 301 ° 1 min 0,000 mm 2,7 UV-I 385 W/m² 5,7 °C 10,3 °C 4,8 km/h (1 Bft)
01.05.2018 15:23 10,3 °C 72 % 1011,2 hPa 0,0 mm 3,2 km/h (1 Bft) W-NW 301 ° 1 min 0,000 mm 3,0 UV-I 404 W/m² 5,5 °C 10,3 °C 4,8 km/h (1 Bft)
01.05.2018 15:24 10,3 °C 74 % 1011,1 hPa 0,0 mm 2,1 km/h (1 Bft) N-NO 17 ° 1 min 0,000 mm 3,1 UV-I 420 W/m² 5,9 °C 10,3 °C 4,8 km/h (1 Bft)
01.05.2018 15:25 10,3 °C 72 % 1011,1 hPa 0,0 mm 1,3 km/h (1 Bft) N-NO 17 ° 1 min 0,000 mm 3,1 UV-I 404 W/m² 5,5 °C 10,3 °C 3,2 km/h (1 Bft)
01.05.2018 15:26 10,4 °C 73 % 1011,1 hPa 0,0 mm 0,3 km/h (0 Bft) N-NO 17 ° 1 min 0,000 mm 3,0 UV-I 381 W/m² 5,8 °C 10,4 °C 1,6 km/h (1 Bft)
01.05.2018 15:27 10,4 °C 75 % 1011,0 hPa 0,0 mm 1,6 km/h (1 Bft) N-NO 12 ° 1 min 0,000 mm 3,1 UV-I 429 W/m² 6,2 °C 10,4 °C 3,2 km/h (1 Bft)
01.05.2018 15:28 10,5 °C 73 % 1011,0 hPa 0,0 mm 1,6 km/h (1 Bft) N-NO 12 ° 1 min 0,000 mm 3,3 UV-I 469 W/m² 5,9 °C 10,5 °C 3,2 km/h (1 Bft)
01.05.2018 15:29 10,6 °C 74 % 1011,0 hPa 0,0 mm 0,0 km/h (0 Bft) N-NO 12 ° 1 min 0,000 mm 3,0 UV-I 469 W/m² 6,2 °C 10,6 °C 0,0 km/h (0 Bft)
01.05.2018 15:30 10,6 °C 75 % 1011,0 hPa 0,0 mm 1,2 km/h (1 Bft) N-NO 12 ° 1 min 0,000 mm 2,9 UV-I 357 W/m² 6,4 °C 10,6 °C 1,6 km/h (1 Bft)
01.05.2018 15:31 10,7 °C 74 % 1011,0 hPa 0,0 mm 0,1 km/h (0 Bft) N-NO 12 ° 1 min 0,000 mm 3,1 UV-I 441 W/m² 6,3 °C 10,7 °C 1,6 km/h (1 Bft)
01.05.2018 15:32 10,7 °C 73 % 1011,0 hPa 0,0 mm 1,0 km/h (0 Bft) N-NO 12 ° 1 min 0,000 mm 2,8 UV-I 341 W/m² 6,1 °C 10,7 °C 3,2 km/h (1 Bft)
01.05.2018 15:33 10,8 °C 74 % 1011,0 hPa 0,0 mm 3,1 km/h (1 Bft) N-NO 12 ° 1 min 0,000 mm 2,9 UV-I 387 W/m² 6,4 °C 10,8 °C 3,2 km/h (1 Bft)
01.05.2018 15:34 10,8 °C 70 % 1011,0 hPa 0,0 mm 1,7 km/h (1 Bft) N-NO 12 ° 1 min 0,000 mm 3,1 UV-I 462 W/m² 5,6 °C 10,8 °C 4,8 km/h (1 Bft)
01.05.2018 15:35 10,8 °C 73 % 1011,1 hPa 0,0 mm 1,5 km/h (1 Bft) N-NO 12 ° 1 min 0,000 mm 2,5 UV-I 383 W/m² 6,2 °C 10,8 °C 4,8 km/h (1 Bft)
01.05.2018 15:36 10,9 °C 73 % 1011,1 hPa 0,0 mm 1,2 km/h (1 Bft) N-NO 15 ° 1 min 0,000 mm 2,2 UV-I 327 W/m² 6,3 °C 10,9 °C 3,2 km/h (1 Bft)
01.05.2018 15:37 10,9 °C 71 % 1011,1 hPa 0,0 mm 2,1 km/h (1 Bft) N-NO 21 ° 1 min 0,000 mm 2,1 UV-I 302 W/m² 5,9 °C 10,9 °C 4,8 km/h (1 Bft)
01.05.2018 15:38 10,8 °C 69 % 1011,1 hPa 0,0 mm 0,0 km/h (0 Bft) N-NO 21 ° 1 min 0,000 mm 2,1 UV-I 295 W/m² 5,3 °C 10,8 °C 0,0 km/h (0 Bft)
01.05.2018 15:39 10,8 °C 70 % 1011,1 hPa 0,0 mm 0,9 km/h (0 Bft) N-NO 21 ° 0 min 0,000 mm 2,0 UV-I 285 W/m² 5,6 °C 10,8 °C 3,2 km/h (1 Bft)
01.05.2018 15:40 10,7 °C 69 % 1011,1 hPa 0,0 mm 1,5 km/h (1 Bft) N-NO 21 ° 0 min 0,000 mm 1,9 UV-I 227 W/m² 5,2 °C 10,7 °C 3,2 km/h (1 Bft)
01.05.2018 15:41 10,7 °C 69 % 1011,1 hPa 0,0 mm 3,3 km/h (1 Bft) N-NO 22 ° 0 min 0,000 mm 1,7 UV-I 223 W/m² 5,2 °C 10,7 °C 4,8 km/h (1 Bft)
01.05.2018 15:42 10,6 °C 70 % 1011,0 hPa 0,0 mm 5,0 km/h (1 Bft) O-NO 57 ° 0 min 0,000 mm 1,7 UV-I 223 W/m² 5,4 °C 10,6 °C 6,4 km/h (2 Bft)
01.05.2018 15:43 10,6 °C 70 % 1011,0 hPa 0,0 mm 2,6 km/h (1 Bft) O-NO 57 ° 0 min 0,000 mm 1,6 UV-I 214 W/m² 5,4 °C 10,6 °C 4,8 km/h (1 Bft)
01.05.2018 15:44 10,4 °C 70 % 1011,0 hPa 0,0 mm 0,3 km/h (0 Bft) O-NO 57 ° 0 min 0,000 mm 1,6 UV-I 218 W/m² 5,2 °C 10,4 °C 1,6 km/h (1 Bft)
01.05.2018 15:45 10,4 °C 71 % 1010,9 hPa 0,0 mm 4,0 km/h (1 Bft) NW 315 ° 0 min 0,000 mm 1,7 UV-I 241 W/m² 5,4 °C 10,4 °C 6,4 km/h (2 Bft)
01.05.2018 15:46 10,5 °C 73 % 1010,9 hPa 0,0 mm 4,2 km/h (1 Bft) NW 319 ° 0 min 0,000 mm 1,8 UV-I 257 W/m² 5,9 °C 10,5 °C 6,4 km/h (2 Bft)
01.05.2018 15:47 10,6 °C 73 % 1010,9 hPa 0,0 mm 4,5 km/h (1 Bft) N-NW 333 ° 0 min 0,000 mm 1,9 UV-I 265 W/m² 6,0 °C 10,6 °C 8,0 km/h (2 Bft)
01.05.2018 15:48 10,6 °C 74 % 1010,9 hPa 0,0 mm 2,1 km/h (1 Bft) N-NW 333 ° 0 min 0,000 mm 1,9 UV-I 267 W/m² 6,2 °C 10,6 °C 4,8 km/h (1 Bft)
01.05.2018 15:49 10,7 °C 72 % 1010,9 hPa 0,0 mm 4,6 km/h (1 Bft) N-NO 16 ° 0 min 0,000 mm 1,9 UV-I 269 W/m² 5,9 °C 10,7 °C 6,4 km/h (2 Bft)
01.05.2018 15:50 10,8 °C 71 % 1010,9 hPa 0,0 mm 2,7 km/h (1 Bft) N-NO 14 ° 0 min 0,000 mm 1,9 UV-I 272 W/m² 5,8 °C 10,8 °C 4,8 km/h (1 Bft)
01.05.2018 15:51 10,7 °C 71 % 1010,8 hPa 0,0 mm 1,4 km/h (1 Bft) N-NO 14 ° 0 min 0,000 mm 1,9 UV-I 267 W/m² 5,7 °C 10,7 °C 3,2 km/h (1 Bft)
01.05.2018 15:52 10,7 °C 71 % 1010,8 hPa 0,0 mm 2,9 km/h (1 Bft) N-NO 13 ° 0 min 0,000 mm 1,9 UV-I 260 W/m² 5,7 °C 10,7 °C 4,8 km/h (1 Bft)
01.05.2018 15:53 10,8 °C 72 % 1010,8 hPa 0,0 mm 2,1 km/h (1 Bft) N-NO 13 ° 0 min 0,000 mm 1,9 UV-I 253 W/m² 6,0 °C 10,8 °C 3,2 km/h (1 Bft)
01.05.2018 15:54 10,9 °C 73 % 1010,8 hPa 0,0 mm 0,8 km/h (0 Bft) N-NO 13 ° 0 min 0,000 mm 1,9 UV-I 253 W/m² 6,3 °C 10,9 °C 3,2 km/h (1 Bft)
01.05.2018 15:55 11,0 °C 74 % 1010,8 hPa 0,0 mm 0,5 km/h (0 Bft) N-NO 13 ° 0 min 0,000 mm 1,9 UV-I 255 W/m² 6,5 °C 11,0 °C 1,6 km/h (1 Bft)
01.05.2018 15:56 11,1 °C 73 % 1010,7 hPa 0,0 mm 1,9 km/h (1 Bft) N-NO 22 ° 0 min 0,000 mm 2,0 UV-I 267 W/m² 6,4 °C 11,1 °C 4,8 km/h (1 Bft)
01.05.2018 15:57 11,0 °C 71 % 1010,7 hPa 0,0 mm 4,3 km/h (1 Bft) NO 38 ° 0 min 0,000 mm 2,1 UV-I 288 W/m² 5,9 °C 11,0 °C 6,4 km/h (2 Bft)
01.05.2018 15:58 10,9 °C 70 % 1010,7 hPa 0,0 mm 4,1 km/h (1 Bft) O-NO 69 ° 0 min 0,000 mm 2,0 UV-I 274 W/m² 5,6 °C 10,9 °C 6,4 km/h (2 Bft)
01.05.2018 15:59 10,9 °C 70 % 1010,8 hPa 0,0 mm 5,2 km/h (1 Bft) O 99 ° 0 min 0,000 mm 2,0 UV-I 281 W/m² 5,6 °C 10,9 °C 6,4 km/h (2 Bft)
01.05.2018 16:00 10,8 °C 71 % 1010,8 hPa 0,0 mm 1,8 km/h (1 Bft) O 99 ° 1 min 0,000 mm 2,0 UV-I 294 W/m² 5,8 °C 10,8 °C 4,8 km/h (1 Bft)
01.05.2018 16:01 10,7 °C 70 % 1010,8 hPa 0,0 mm 0,3 km/h (0 Bft) O 99 ° 0 min 0,153 mm 1,9 UV-I 278 W/m² 5,5 °C 10,7 °C 1,6 km/h (1 Bft)
01.05.2018 16:02 10,6 °C 70 % 1010,8 hPa 0,0 mm 0,0 km/h (0 Bft) O 99 ° 0 min 0,000 mm 1,9 UV-I 278 W/m² 5,4 °C 10,6 °C 0,0 km/h (0 Bft)
01.05.2018 16:03 10,5 °C 71 % 1010,7 hPa 0,0 mm 0,0 km/h (0 Bft) O 99 ° 0 min 0,000 mm 2,0 UV-I 279 W/m² 5,5 °C 10,5 °C 0,0 km/h (0 Bft)
01.05.2018 16:04 10,6 °C 75 % 1010,7 hPa 0,0 mm 1,2 km/h (1 Bft) NO 49 ° 0 min 0,000 mm 2,0 UV-I 279 W/m² 6,4 °C 10,6 °C 3,2 km/h (1 Bft)
01.05.2018 16:05 10,7 °C 72 % 1010,8 hPa 0,0 mm 2,6 km/h (1 Bft) NO 39 ° 0 min 0,000 mm 2,0 UV-I 281 W/m² 5,9 °C 10,7 °C 4,8 km/h (1 Bft)
01.05.2018 16:06 10,8 °C 73 % 1010,8 hPa 0,0 mm 0,1 km/h (0 Bft) NO 39 ° 0 min 0,000 mm 2,0 UV-I 279 W/m² 6,2 °C 10,8 °C 1,6 km/h (1 Bft)
01.05.2018 16:07 10,8 °C 71 % 1010,8 hPa 0,0 mm 3,7 km/h (1 Bft) N-NO 33 ° 0 min 0,000 mm 1,9 UV-I 279 W/m² 5,8 °C 10,8 °C 6,4 km/h (2 Bft)
01.05.2018 16:08 10,8 °C 70 % 1010,8 hPa 0,0 mm 4,4 km/h (1 Bft) N-NO 14 ° 0 min 0,000 mm 1,9 UV-I 276 W/m² 5,6 °C 10,8 °C 6,4 km/h (2 Bft)
01.05.2018 16:09 10,8 °C 71 % 1010,8 hPa 0,0 mm 0,0 km/h (0 Bft) N-NO 14 ° 0 min 0,000 mm 1,8 UV-I 276 W/m² 5,8 °C 10,8 °C 0,0 km/h (0 Bft)
01.05.2018 16:10 10,8 °C 70 % 1010,8 hPa 0,0 mm 0,0 km/h (0 Bft) N-NO 14 ° 0 min 0,000 mm 1,8 UV-I 278 W/m² 5,6 °C 10,8 °C 0,0 km/h (0 Bft)
01.05.2018 16:11 10,7 °C 70 % 1010,7 hPa 0,0 mm 2,6 km/h (1 Bft) N-NO 14 ° 0 min 0,000 mm 1,7 UV-I 267 W/m² 5,5 °C 10,7 °C 4,8 km/h (1 Bft)
01.05.2018 16:12 10,8 °C 72 % 1010,7 hPa 0,0 mm 4,0 km/h (1 Bft) NO 50 ° 0 min 0,000 mm 1,7 UV-I 255 W/m² 6,0 °C 10,8 °C 4,8 km/h (1 Bft)
01.05.2018 16:13 10,9 °C 71 % 1010,8 hPa 0,0 mm 6,7 km/h (2 Bft) O-NO 78 ° 0 min 0,000 mm 1,6 UV-I 239 W/m² 5,9 °C 10,9 °C 9,7 km/h (2 Bft)
01.05.2018 16:14 10,8 °C 71 % 1010,8 hPa 0,0 mm 3,7 km/h (1 Bft) O-NO 78 ° 0 min 0,000 mm 1,6 UV-I 229 W/m² 5,8 °C 10,8 °C 6,4 km/h (2 Bft)
01.05.2018 16:15 10,8 °C 71 % 1010,7 hPa 0,0 mm 4,4 km/h (1 Bft) O-NO 78 ° 0 min 0,000 mm 1,6 UV-I 225 W/m² 5,8 °C 10,8 °C 6,4 km/h (2 Bft)
01.05.2018 16:16 10,7 °C 70 % 1010,7 hPa 0,0 mm 4,2 km/h (1 Bft) NO 55 ° 0 min 0,000 mm 1,5 UV-I 220 W/m² 5,5 °C 10,7 °C 6,4 km/h (2 Bft)
01.05.2018 16:17 10,6 °C 70 % 1010,7 hPa 0,0 mm 4,2 km/h (1 Bft) NO 55 ° 0 min 0,000 mm 1,4 UV-I 213 W/m² 5,4 °C 10,6 °C 6,4 km/h (2 Bft)
01.05.2018 16:18 10,6 °C 71 % 1010,7 hPa 0,0 mm 2,1 km/h (1 Bft) NO 55 ° 0 min 0,000 mm 1,4 UV-I 202 W/m² 5,6 °C 10,6 °C 3,2 km/h (1 Bft)
01.05.2018 16:19 10,6 °C 71 % 1010,7 hPa 0,0 mm 2,3 km/h (1 Bft) NO 55 ° 0 min 0,000 mm 1,3 UV-I 192 W/m² 5,6 °C 10,6 °C 3,2 km/h (1 Bft)
01.05.2018 16:20 10,5 °C 72 % 1010,6 hPa 0,0 mm 0,8 km/h (0 Bft) NO 51 ° 0 min 0,000 mm 1,2 UV-I 169 W/m² 5,7 °C 10,5 °C 1,6 km/h (1 Bft)
01.05.2018 16:21 10,6 °C 71 % 1010,7 hPa 0,0 mm 4,1 km/h (1 Bft) NO 34 ° 0 min 0,000 mm 1,1 UV-I 158 W/m² 5,6 °C 10,6 °C 6,4 km/h (2 Bft)
01.05.2018 16:22 10,6 °C 70 % 1010,7 hPa 0,0 mm 1,2 km/h (1 Bft) NO 34 ° 0 min 0,000 mm 1,0 UV-I 148 W/m² 5,4 °C 10,6 °C 1,6 km/h (1 Bft)
01.05.2018 16:23 10,6 °C 71 % 1010,7 hPa 0,0 mm 0,7 km/h (0 Bft) NO 34 ° 0 min 0,000 mm 0,9 UV-I 137 W/m² 5,6 °C 10,6 °C 1,6 km/h (1 Bft)
01.05.2018 16:24 10,6 °C 72 % 1010,8 hPa 0,0 mm 0,1 km/h (0 Bft) NO 34 ° 0 min 0,000 mm 0,9 UV-I 132 W/m² 5,8 °C 10,6 °C 1,6 km/h (1 Bft)
01.05.2018 16:25 10,6 °C 71 % 1010,8 hPa 0,0 mm 0,1 km/h (0 Bft) NO 34 ° 0 min 0,000 mm 0,9 UV-I 128 W/m² 5,6 °C 10,6 °C 1,6 km/h (1 Bft)
01.05.2018 16:26 10,6 °C 71 % 1010,8 hPa 0,0 mm 1,4 km/h (1 Bft) NO 34 ° 0 min 0,000 mm 0,8 UV-I 123 W/m² 5,6 °C 10,6 °C 3,2 km/h (1 Bft)
01.05.2018 16:27 10,6 °C 70 % 1010,8 hPa 0,0 mm 1,1 km/h (1 Bft) NO 34 ° 0 min 0,000 mm 0,8 UV-I 121 W/m² 5,4 °C 10,6 °C 1,6 km/h (1 Bft)
01.05.2018 16:28 10,6 °C 71 % 1010,8 hPa 0,0 mm 0,5 km/h (0 Bft) NO 34 ° 0 min 0,000 mm 0,8 UV-I 120 W/m² 5,6 °C 10,6 °C 1,6 km/h (1 Bft)
01.05.2018 16:29 10,5 °C 71 % 1010,7 hPa 0,0 mm 0,0 km/h (0 Bft) NO 34 ° 0 min 0,000 mm 0,8 UV-I 121 W/m² 5,5 °C 10,5 °C 0,0 km/h (0 Bft)
01.05.2018 16:30 10,4 °C 71 % 1010,8 hPa 0,0 mm 0,0 km/h (0 Bft) NO 34 ° 0 min 0,000 mm 0,8 UV-I 121 W/m² 5,4 °C 10,4 °C 0,0 km/h (0 Bft)
01.05.2018 16:31 10,4 °C 71 % 1010,8 hPa 0,0 mm 0,0 km/h (0 Bft) NO 35 ° 0 min 0,000 mm 0,8 UV-I 118 W/m² 5,4 °C 10,4 °C 0,0 km/h (0 Bft)
01.05.2018 16:32 10,4 °C 72 % 1010,9 hPa 0,0 mm 0,0 km/h (0 Bft) NO 34 ° 0 min 0,000 mm 0,8 UV-I 114 W/m² 5,6 °C 10,4 °C 0,0 km/h (0 Bft)
01.05.2018 16:33 10,4 °C 73 % 1010,9 hPa 0,0 mm 0,0 km/h (0 Bft) NO 34 ° 0 min 0,000 mm 0,8 UV-I 113 W/m² 5,8 °C 10,4 °C 0,0 km/h (0 Bft)
01.05.2018 16:34 10,4 °C 73 % 1010,8 hPa 0,0 mm 0,0 km/h (0 Bft) NO 34 ° 0 min 0,000 mm 0,7 UV-I 113 W/m² 5,8 °C 10,4 °C 0,0 km/h (0 Bft)
01.05.2018 16:35 10,4 °C 74 % 1010,9 hPa 0,0 mm 0,0 km/h (0 Bft) NO 34 ° 0 min 0,000 mm 0,7 UV-I 113 W/m² 6,0 °C 10,4 °C 0,0 km/h (0 Bft)
01.05.2018 16:36 10,5 °C 72 % 1010,9 hPa 0,0 mm 0,7 km/h (0 Bft) NO 34 ° 0 min 0,000 mm 0,7 UV-I 111 W/m² 5,7 °C 10,5 °C 1,6 km/h (1 Bft)
01.05.2018 16:37 10,4 °C 71 % 1010,9 hPa 0,0 mm 1,0 km/h (0 Bft) NO 35 ° 0 min 0,000 mm 0,7 UV-I 109 W/m² 5,4 °C 10,4 °C 3,2 km/h (1 Bft)
01.05.2018 16:38 10,4 °C 71 % 1010,8 hPa 0,0 mm 3,3 km/h (1 Bft) NO 35 ° 0 min 0,000 mm 0,7 UV-I 107 W/m² 5,4 °C 10,4 °C 4,8 km/h (1 Bft)
01.05.2018 16:39 10,4 °C 72 % 1010,8 hPa 0,0 mm 1,6 km/h (1 Bft) NO 35 ° 0 min 0,000 mm 0,7 UV-I 107 W/m² 5,6 °C 10,4 °C 3,2 km/h (1 Bft)
01.05.2018 16:40 10,4 °C 72 % 1010,8 hPa 0,0 mm 4,0 km/h (1 Bft) O-SO 118 ° 0 min 0,000 mm 0,7 UV-I 105 W/m² 5,6 °C 10,4 °C 4,8 km/h (1 Bft)
01.05.2018 16:41 10,4 °C 72 % 1010,8 hPa 0,0 mm 0,4 km/h (0 Bft) O-SO 118 ° 0 min 0,000 mm 0,7 UV-I 102 W/m² 5,6 °C 10,4 °C 1,6 km/h (1 Bft)
01.05.2018 16:42 10,5 °C 73 % 1010,8 hPa 0,0 mm 2,5 km/h (1 Bft) O 94 ° 0 min 0,000 mm 0,7 UV-I 97 W/m² 5,9 °C 10,5 °C 4,8 km/h (1 Bft)
01.05.2018 16:43 10,6 °C 74 % 1010,8 hPa 0,0 mm 3,6 km/h (1 Bft) O 80 ° 0 min 0,000 mm 0,6 UV-I 90 W/m² 6,2 °C 10,6 °C 4,8 km/h (1 Bft)
01.05.2018 16:44 10,6 °C 72 % 1010,8 hPa 0,0 mm 0,3 km/h (0 Bft) O 80 ° 0 min 0,000 mm 0,6 UV-I 79 W/m² 5,8 °C 10,6 °C 3,2 km/h (1 Bft)
01.05.2018 16:45 10,5 °C 72 % 1010,8 hPa 0,0 mm 3,7 km/h (1 Bft) O 80 ° 0 min 0,000 mm 0,5 UV-I 81 W/m² 5,7 °C 10,5 °C 4,8 km/h (1 Bft)
01.05.2018 16:46 10,5 °C 72 % 1010,8 hPa 0,0 mm 3,6 km/h (1 Bft) O-NO 72 ° 0 min 0,000 mm 0,6 UV-I 84 W/m² 5,7 °C 10,5 °C 4,8 km/h (1 Bft)
01.05.2018 16:47 10,5 °C 72 % 1010,8 hPa 0,0 mm 1,3 km/h (1 Bft) O-NO 72 ° 0 min 0,000 mm 0,6 UV-I 84 W/m² 5,7 °C 10,5 °C 3,2 km/h (1 Bft)
01.05.2018 16:48 10,6 °C 73 % 1010,9 hPa 0,0 mm 2,9 km/h (1 Bft) N-NO 19 ° 0 min 0,000 mm 0,5 UV-I 77 W/m² 6,0 °C 10,6 °C 4,8 km/h (1 Bft)
01.05.2018 16:49 10,6 °C 73 % 1010,8 hPa 0,0 mm 0,3 km/h (0 Bft) N-NO 19 ° 0 min 0,000 mm 0,5 UV-I 74 W/m² 6,0 °C 10,6 °C 1,6 km/h (1 Bft)
01.05.2018 16:50 10,6 °C 72 % 1010,8 hPa 0,0 mm 0,5 km/h (0 Bft) N-NO 19 ° 0 min 0,000 mm 0,5 UV-I 81 W/m² 5,8 °C 10,6 °C 3,2 km/h (1 Bft)
01.05.2018 16:51 10,6 °C 72 % 1010,8 hPa 0,0 mm 1,7 km/h (1 Bft) N-NO 19 ° 0 min 0,000 mm 0,5 UV-I 76 W/m² 5,8 °C 10,6 °C 3,2 km/h (1 Bft)
01.05.2018 16:52 10,6 °C 72 % 1010,8 hPa 0,0 mm 0,9 km/h (0 Bft) N-NO 19 ° 0 min 0,000 mm 0,5 UV-I 67 W/m² 5,8 °C 10,6 °C 1,6 km/h (1 Bft)
01.05.2018 16:53 10,6 °C 72 % 1010,8 hPa 0,0 mm 2,4 km/h (1 Bft) N-NO 19 ° 0 min 0,000 mm 0,5 UV-I 69 W/m² 5,8 °C 10,6 °C 4,8 km/h (1 Bft)
01.05.2018 16:54 10,6 °C 72 % 1010,8 hPa 0,0 mm 0,9 km/h (0 Bft) N-NO 19 ° 0 min 0,000 mm 0,6 UV-I 81 W/m² 5,8 °C 10,6 °C 3,2 km/h (1 Bft)
01.05.2018 16:55 10,7 °C 73 % 1010,7 hPa 0,0 mm 0,0 km/h (0 Bft) N-NO 19 ° 0 min 0,000 mm 0,7 UV-I 118 W/m² 6,1 °C 10,7 °C 0,0 km/h (0 Bft)
01.05.2018 16:56 10,6 °C 74 % 1010,8 hPa 0,0 mm 1,2 km/h (1 Bft) N-NO 19 ° 0 min 0,000 mm 0,8 UV-I 128 W/m² 6,2 °C 10,6 °C 3,2 km/h (1 Bft)
01.05.2018 16:57 10,6 °C 72 % 1010,8 hPa 0,0 mm 2,1 km/h (1 Bft) N-NO 19 ° 0 min 0,000 mm 0,8 UV-I 137 W/m² 5,8 °C 10,6 °C 3,2 km/h (1 Bft)
01.05.2018 16:58 10,4 °C 72 % 1010,8 hPa 0,0 mm 0,3 km/h (0 Bft) N-NO 19 ° 0 min 0,000 mm 0,9 UV-I 144 W/m² 5,6 °C 10,4 °C 1,6 km/h (1 Bft)
01.05.2018 16:59 10,4 °C 72 % 1010,8 hPa 0,0 mm 0,6 km/h (0 Bft) N-NO 19 ° 0 min 0,000 mm 0,9 UV-I 148 W/m² 5,6 °C 10,4 °C 3,2 km/h (1 Bft)
01.05.2018 17:00 10,4 °C 73 % 1010,7 hPa 0,0 mm 3,4 km/h (1 Bft) N-NO 20 ° 0 min 0,000 mm 0,9 UV-I 148 W/m² 5,8 °C 10,4 °C 4,8 km/h (1 Bft)
01.05.2018 17:01 10,4 °C 72 % 1010,7 hPa 0,0 mm 1,9 km/h (1 Bft) N-NO 20 ° 0 min 0,076 mm 0,9 UV-I 137 W/m² 5,6 °C 10,4 °C 3,2 km/h (1 Bft)
01.05.2018 17:02 10,4 °C 73 % 1010,7 hPa 0,0 mm 0,9 km/h (0 Bft) N-NO 20 ° 0 min 0,000 mm 0,8 UV-I 125 W/m² 5,8 °C 10,4 °C 3,2 km/h (1 Bft)
01.05.2018 17:03 10,4 °C 73 % 1010,8 hPa 0,0 mm 2,1 km/h (1 Bft) N-NO 20 ° 0 min 0,000 mm 0,8 UV-I 118 W/m² 5,8 °C 10,4 °C 3,2 km/h (1 Bft)
01.05.2018 17:04 10,4 °C 74 % 1010,7 hPa 0,0 mm 1,9 km/h (1 Bft) N-NO 20 ° 0 min 0,000 mm 0,8 UV-I 118 W/m² 6,0 °C 10,4 °C 3,2 km/h (1 Bft)
01.05.2018 17:05 10,5 °C 73 % 1010,7 hPa 0,0 mm 0,7 km/h (0 Bft) NO 37 ° 0 min 0,000 mm 0,8 UV-I 121 W/m² 5,9 °C 10,5 °C 3,2 km/h (1 Bft)
01.05.2018 17:06 10,5 °C 73 % 1010,8 hPa 0,0 mm 3,2 km/h (1 Bft) NO 44 ° 0 min 0,000 mm 0,8 UV-I 125 W/m² 5,9 °C 10,5 °C 4,8 km/h (1 Bft)
01.05.2018 17:07 10,5 °C 74 % 1010,7 hPa 0,0 mm 2,2 km/h (1 Bft) NO 44 ° 0 min 0,000 mm 0,8 UV-I 120 W/m² 6,1 °C 10,5 °C 3,2 km/h (1 Bft)
01.05.2018 17:08 10,4 °C 72 % 1010,8 hPa 0,0 mm 0,6 km/h (0 Bft) NO 44 ° 0 min 0,000 mm 0,7 UV-I 114 W/m² 5,6 °C 10,4 °C 3,2 km/h (1 Bft)
01.05.2018 17:09 10,4 °C 72 % 1010,7 hPa 0,0 mm 0,7 km/h (0 Bft) NO 44 ° 0 min 0,000 mm 0,7 UV-I 109 W/m² 5,6 °C 10,4 °C 3,2 km/h (1 Bft)
01.05.2018 17:10 10,4 °C 73 % 1010,7 hPa 0,0 mm 2,3 km/h (1 Bft) NO 44 ° 0 min 0,000 mm 0,7 UV-I 102 W/m² 5,8 °C 10,4 °C 3,2 km/h (1 Bft)
01.05.2018 17:11 10,4 °C 71 % 1010,7 hPa 0,0 mm 0,0 km/h (0 Bft) NO 44 ° 0 min 0,000 mm 0,7 UV-I 98 W/m² 5,4 °C 10,4 °C 0,0 km/h (0 Bft)
01.05.2018 17:12 10,4 °C 72 % 1010,7 hPa 0,0 mm 0,0 km/h (0 Bft) NO 44 ° 0 min 0,000 mm 0,6 UV-I 95 W/m² 5,6 °C 10,4 °C 0,0 km/h (0 Bft)
01.05.2018 17:13 10,4 °C 72 % 1010,7 hPa 0,0 mm 0,0 km/h (0 Bft) NO 44 ° 0 min 0,000 mm 0,6 UV-I 93 W/m² 5,6 °C 10,4 °C 0,0 km/h (0 Bft)
01.05.2018 17:14 10,4 °C 73 % 1010,7 hPa 0,0 mm 0,0 km/h (0 Bft) NO 44 ° 0 min 0,000 mm 0,7 UV-I 98 W/m² 5,8 °C 10,4 °C 0,0 km/h (0 Bft)
01.05.2018 17:15 10,4 °C 73 % 1010,7 hPa 0,0 mm 0,0 km/h (0 Bft) NO 44 ° 0 min 0,000 mm 0,6 UV-I 93 W/m² 5,8 °C 10,4 °C 0,0 km/h (0 Bft)
01.05.2018 17:16 10,4 °C 75 % 1010,7 hPa 0,0 mm 0,4 km/h (0 Bft) NO 44 ° 0 min 0,000 mm 0,6 UV-I 86 W/m² 6,2 °C 10,4 °C 3,2 km/h (1 Bft)
01.05.2018 17:17 10,4 °C 73 % 1010,7 hPa 0,0 mm 3,6 km/h (1 Bft) NO 49 ° 0 min 0,000 mm 0,6 UV-I 84 W/m² 5,8 °C 10,4 °C 4,8 km/h (1 Bft)
01.05.2018 17:18 10,4 °C 73 % 1010,7 hPa 0,0 mm 2,7 km/h (1 Bft) NO 49 ° 0 min 0,000 mm 0,6 UV-I 84 W/m² 5,8 °C 10,4 °C 3,2 km/h (1 Bft)
01.05.2018 17:19 10,4 °C 74 % 1010,7 hPa 0,0 mm 2,1 km/h (1 Bft) NO 49 ° 0 min 0,000 mm 0,6 UV-I 76 W/m² 6,0 °C 10,4 °C 3,2 km/h (1 Bft)
01.05.2018 17:20 10,4 °C 74 % 1010,7 hPa 0,0 mm 2,7 km/h (1 Bft) NO 49 ° 0 min 0,000 mm 0,6 UV-I 81 W/m² 6,0 °C 10,4 °C 4,8 km/h (1 Bft)
01.05.2018 17:21 10,4 °C 74 % 1010,8 hPa 0,0 mm 1,5 km/h (1 Bft) NO 49 ° 0 min 0,000 mm 0,6 UV-I 86 W/m² 6,0 °C 10,4 °C 3,2 km/h (1 Bft)
01.05.2018 17:22 10,4 °C 74 % 1010,8 hPa 0,0 mm 0,0 km/h (0 Bft) NO 49 ° 0 min 0,000 mm 0,5 UV-I 83 W/m² 6,0 °C 10,4 °C 0,0 km/h (0 Bft)
01.05.2018 17:23 10,4 °C 73 % 1010,7 hPa 0,0 mm 0,0 km/h (0 Bft) NO 49 ° 0 min 0,000 mm 0,5 UV-I 79 W/m² 5,8 °C 10,4 °C 0,0 km/h (0 Bft)
01.05.2018 17:24 10,4 °C 73 % 1010,7 hPa 0,0 mm 0,0 km/h (0 Bft) NO 49 ° 0 min 0,000 mm 0,5 UV-I 77 W/m² 5,8 °C 10,4 °C 0,0 km/h (0 Bft)
01.05.2018 17:25 10,4 °C 75 % 1010,7 hPa 0,0 mm 1,7 km/h (1 Bft) NO 49 ° 0 min 0,000 mm 0,5 UV-I 88 W/m² 6,2 °C 10,4 °C 6,4 km/h (2 Bft)
01.05.2018 17:26 10,4 °C 76 % 1010,7 hPa 0,0 mm 1,6 km/h (1 Bft) NO 50 ° 0 min 0,000 mm 0,6 UV-I 91 W/m² 6,4 °C 10,4 °C 4,8 km/h (1 Bft)
01.05.2018 17:27 10,4 °C 73 % 1010,7 hPa 0,0 mm 0,6 km/h (0 Bft) NO 50 ° 0 min 0,000 mm 0,5 UV-I 90 W/m² 5,8 °C 10,4 °C 1,6 km/h (1 Bft)
01.05.2018 17:28 10,4 °C 73 % 1010,7 hPa 0,0 mm 0,3 km/h (0 Bft) NO 50 ° 0 min 0,000 mm 0,5 UV-I 86 W/m² 5,8 °C 10,4 °C 1,6 km/h (1 Bft)
01.05.2018 17:29 10,4 °C 73 % 1010,7 hPa 0,0 mm 0,0 km/h (0 Bft) NO 50 ° 0 min 0,000 mm 0,5 UV-I 88 W/m² 5,8 °C 10,4 °C 0,0 km/h (0 Bft)
01.05.2018 17:30 10,4 °C 73 % 1010,7 hPa 0,0 mm 0,0 km/h (0 Bft) NO 50 ° 0 min 0,000 mm 0,5 UV-I 84 W/m² 5,8 °C 10,4 °C 0,0 km/h (0 Bft)
01.05.2018 17:31 10,4 °C 73 % 1010,7 hPa 0,0 mm 0,0 km/h (0 Bft) NO 50 ° 0 min 0,000 mm 0,5 UV-I 81 W/m² 5,8 °C 10,4 °C 0,0 km/h (0 Bft)
01.05.2018 17:32 10,4 °C 73 % 1010,7 hPa 0,0 mm 0,0 km/h (0 Bft) NO 50 ° 0 min 0,000 mm 0,5 UV-I 81 W/m² 5,8 °C 10,4 °C 0,0 km/h (0 Bft)
01.05.2018 17:33 10,4 °C 73 % 1010,7 hPa 0,0 mm 0,0 km/h (0 Bft) NO 50 ° 0 min 0,000 mm 0,5 UV-I 79 W/m² 5,8 °C 10,4 °C 0,0 km/h (0 Bft)
01.05.2018 17:34 10,4 °C 73 % 1010,7 hPa 0,0 mm 0,0 km/h (0 Bft) NO 50 ° 0 min 0,000 mm 0,5 UV-I 77 W/m² 5,8 °C 10,4 °C 0,0 km/h (0 Bft)
01.05.2018 17:35 10,4 °C 74 % 1010,7 hPa 0,0 mm 0,9 km/h (0 Bft) NO 50 ° 0 min 0,000 mm 0,5 UV-I 74 W/m² 6,0 °C 10,4 °C 3,2 km/h (1 Bft)
01.05.2018 17:36 10,4 °C 74 % 1010,6 hPa 0,0 mm 1,0 km/h (0 Bft) NO 50 ° 0 min 0,000 mm 0,5 UV-I 74 W/m² 6,0 °C 10,4 °C 1,6 km/h (1 Bft)
01.05.2018 17:37 10,5 °C 73 % 1010,7 hPa 0,0 mm 1,3 km/h (1 Bft) NO 50 ° 0 min 0,000 mm 0,5 UV-I 74 W/m² 5,9 °C 10,5 °C 3,2 km/h (1 Bft)
01.05.2018 17:38 10,4 °C 73 % 1010,7 hPa 0,0 mm 1,1 km/h (1 Bft) NO 50 ° 0 min 0,000 mm 0,5 UV-I 74 W/m² 5,8 °C 10,4 °C 3,2 km/h (1 Bft)
01.05.2018 17:39 10,4 °C 73 % 1010,7 hPa 0,0 mm 0,0 km/h (0 Bft) NO 50 ° 0 min 0,000 mm 0,5 UV-I 72 W/m² 5,8 °C 10,4 °C 0,0 km/h (0 Bft)
01.05.2018 17:40 10,4 °C 73 % 1010,7 hPa 0,0 mm 0,2 km/h (0 Bft) NO 50 ° 0 min 0,000 mm 0,5 UV-I 74 W/m² 5,8 °C 10,4 °C 1,6 km/h (1 Bft)
01.05.2018 17:41 10,4 °C 73 % 1010,6 hPa 0,0 mm 0,0 km/h (0 Bft) NO 50 ° 0 min 0,000 mm 0,5 UV-I 76 W/m² 5,8 °C 10,4 °C 0,0 km/h (0 Bft)
01.05.2018 17:42 10,4 °C 74 % 1010,7 hPa 0,0 mm 0,0 km/h (0 Bft) NO 50 ° 0 min 0,000 mm 0,5 UV-I 74 W/m² 6,0 °C 10,4 °C 0,0 km/h (0 Bft)
01.05.2018 17:43 10,4 °C 76 % 1010,7 hPa 0,0 mm 0,0 km/h (0 Bft) NO 50 ° 0 min 0,000 mm 0,5 UV-I 77 W/m² 6,4 °C 10,4 °C 0,0 km/h (0 Bft)
01.05.2018 17:44 10,4 °C 73 % 1010,6 hPa 0,0 mm 0,0 km/h (0 Bft) NO 50 ° 0 min 0,000 mm 0,5 UV-I 84 W/m² 5,8 °C 10,4 °C 0,0 km/h (0 Bft)
01.05.2018 17:45 10,4 °C 73 % 1010,6 hPa 0,0 mm 0,0 km/h (0 Bft) NO 50 ° 0 min 0,000 mm 0,5 UV-I 86 W/m² 5,8 °C 10,4 °C 0,0 km/h (0 Bft)
01.05.2018 17:46 10,4 °C 74 % 1010,6 hPa 0,0 mm 0,0 km/h (0 Bft) NO 50 ° 0 min 0,000 mm 0,5 UV-I 86 W/m² 6,0 °C 10,4 °C 0,0 km/h (0 Bft)
01.05.2018 17:47 10,3 °C 74 % 1010,6 hPa 0,0 mm 0,0 km/h (0 Bft) NO 50 ° 0 min 0,000 mm 0,5 UV-I 86 W/m² 5,9 °C 10,3 °C 0,0 km/h (0 Bft)
01.05.2018 17:48 10,4 °C 75 % 1010,6 hPa 0,0 mm 0,0 km/h (0 Bft) NO 50 ° 0 min 0,000 mm 0,5 UV-I 84 W/m² 6,2 °C 10,4 °C 0,0 km/h (0 Bft)
01.05.2018 17:49 10,4 °C 75 % 1010,6 hPa 0,0 mm 0,0 km/h (0 Bft) NO 50 ° 0 min 0,000 mm 0,5 UV-I 83 W/m² 6,2 °C 10,4 °C 0,0 km/h (0 Bft)
01.05.2018 17:50 10,4 °C 74 % 1010,6 hPa 0,0 mm 0,0 km/h (0 Bft) NO 50 ° 0 min 0,000 mm 0,5 UV-I 79 W/m² 6,0 °C 10,4 °C 0,0 km/h (0 Bft)
01.05.2018 17:51 10,4 °C 75 % 1010,6 hPa 0,0 mm 0,0 km/h (0 Bft) NO 50 ° 0 min 0,000 mm 0,5 UV-I 77 W/m² 6,2 °C 10,4 °C 0,0 km/h (0 Bft)
01.05.2018 17:52 10,4 °C 76 % 1010,6 hPa 0,0 mm 0,0 km/h (0 Bft) NO 50 ° 0 min 0,000 mm 0,5 UV-I 74 W/m² 6,4 °C 10,4 °C 0,0 km/h (0 Bft)
01.05.2018 17:53 10,4 °C 76 % 1010,6 hPa 0,0 mm 0,0 km/h (0 Bft) NO 50 ° 0 min 0,000 mm 0,5 UV-I 72 W/m² 6,4 °C 10,4 °C 0,0 km/h (0 Bft)
01.05.2018 17:54 10,4 °C 75 % 1010,6 hPa 0,0 mm 0,0 km/h (0 Bft) NO 50 ° 0 min 0,000 mm 0,5 UV-I 74 W/m² 6,2 °C 10,4 °C 0,0 km/h (0 Bft)
01.05.2018 17:55 10,4 °C 75 % 1010,6 hPa 0,0 mm 0,0 km/h (0 Bft) NO 50 ° 0 min 0,000 mm 0,5 UV-I 76 W/m² 6,2 °C 10,4 °C 0,0 km/h (0 Bft)
01.05.2018 17:56 10,3 °C 74 % 1010,6 hPa 0,0 mm 0,0 km/h (0 Bft) NO 50 ° 0 min 0,000 mm 0,5 UV-I 77 W/m² 5,9 °C 10,3 °C 0,0 km/h (0 Bft)
01.05.2018 17:57 10,3 °C 73 % 1010,6 hPa 0,0 mm 0,0 km/h (0 Bft) NO 50 ° 0 min 0,000 mm 0,5 UV-I 79 W/m² 5,7 °C 10,3 °C 0,0 km/h (0 Bft)
01.05.2018 17:58 10,4 °C 74 % 1010,6 hPa 0,0 mm 2,0 km/h (1 Bft) NO 50 ° 0 min 0,000 mm 0,5 UV-I 79 W/m² 6,0 °C 10,4 °C 3,2 km/h (1 Bft)
01.05.2018 17:59 10,4 °C 74 % 1010,6 hPa 0,0 mm 2,0 km/h (1 Bft) NO 50 ° 0 min 0,000 mm 0,5 UV-I 79 W/m² 6,0 °C 10,4 °C 3,2 km/h (1 Bft)
01.05.2018 18:00 10,4 °C 75 % 1010,6 hPa 0,0 mm 0,9 km/h (0 Bft) NO 50 ° 0 min 0,000 mm 0,0 UV-I 74 W/m² 6,2 °C 10,4 °C 1,6 km/h (1 Bft)
01.05.2018 18:01 10,4 °C 76 % 1010,6 hPa 0,0 mm 0,0 km/h (0 Bft) NO 50 ° 0 min 0,051 mm 0,0 UV-I 70 W/m² 6,4 °C 10,4 °C 0,0 km/h (0 Bft)
01.05.2018 18:02 10,4 °C 76 % 1010,7 hPa 0,0 mm 0,0 km/h (0 Bft) NO 50 ° 0 min 0,000 mm 0,0 UV-I 67 W/m² 6,4 °C 10,4 °C 0,0 km/h (0 Bft)
01.05.2018 18:03 10,4 °C 79 % 1010,6 hPa 0,0 mm 0,3 km/h (0 Bft) NO 50 ° 0 min 0,000 mm 0,0 UV-I 65 W/m² 6,9 °C 10,4 °C 1,6 km/h (1 Bft)
01.05.2018 18:04 10,4 °C 76 % 1010,6 hPa 0,0 mm 0,0 km/h (0 Bft) NO 50 ° 0 min 0,000 mm 0,0 UV-I 65 W/m² 6,4 °C 10,4 °C 0,0 km/h (0 Bft)
01.05.2018 18:05 10,3 °C 77 % 1010,7 hPa 0,0 mm 0,0 km/h (0 Bft) NO 50 ° 0 min 0,000 mm 0,0 UV-I 65 W/m² 6,4 °C 10,3 °C 0,0 km/h (0 Bft)
01.05.2018 18:06 10,3 °C 78 % 1010,6 hPa 0,0 mm 0,0 km/h (0 Bft) NO 50 ° 0 min 0,000 mm 0,0 UV-I 69 W/m² 6,6 °C 10,3 °C 0,0 km/h (0 Bft)
01.05.2018 18:07 10,3 °C 77 % 1010,6 hPa 0,0 mm 0,0 km/h (0 Bft) NO 50 ° 0 min 0,000 mm 0,0 UV-I 69 W/m² 6,4 °C 10,3 °C 0,0 km/h (0 Bft)
01.05.2018 18:08 10,3 °C 77 % 1010,6 hPa 0,0 mm 0,2 km/h (0 Bft) NO 50 ° 0 min 0,000 mm 0,0 UV-I 70 W/m² 6,4 °C 10,3 °C 1,6 km/h (1 Bft)
01.05.2018 18:09 10,3 °C 77 % 1010,6 hPa 0,0 mm 0,0 km/h (0 Bft) NO 50 ° 0 min 0,000 mm 0,0 UV-I 69 W/m² 6,4 °C 10,3 °C 0,0 km/h (0 Bft)
01.05.2018 18:10 10,3 °C 76 % 1010,6 hPa 0,0 mm 0,0 km/h (0 Bft) NO 50 ° 0 min 0,000 mm 0,0 UV-I 69 W/m² 6,3 °C 10,3 °C 0,0 km/h (0 Bft)
01.05.2018 18:11 10,3 °C 76 % 1010,6 hPa 0,0 mm 0,0 km/h (0 Bft) NO 50 ° 0 min 0,000 mm 0,0 UV-I 67 W/m² 6,3 °C 10,3 °C 0,0 km/h (0 Bft)
01.05.2018 18:12 10,3 °C 75 % 1010,6 hPa 0,0 mm 0,1 km/h (0 Bft) NO 50 ° 0 min 0,000 mm 0,0 UV-I 63 W/m² 6,1 °C 10,3 °C 1,6 km/h (1 Bft)
01.05.2018 18:13 10,3 °C 74 % 1010,6 hPa 0,0 mm 0,1 km/h (0 Bft) NO 50 ° 0 min 0,000 mm 0,0 UV-I 63 W/m² 5,9 °C 10,3 °C 1,6 km/h (1 Bft)
01.05.2018 18:14 10,3 °C 74 % 1010,6 hPa 0,0 mm 0,4 km/h (0 Bft) NO 50 ° 0 min 0,000 mm 0,0 UV-I 65 W/m² 5,9 °C 10,3 °C 1,6 km/h (1 Bft)
01.05.2018 18:15 10,3 °C 76 % 1010,6 hPa 0,0 mm 0,0 km/h (0 Bft) NO 50 ° 0 min 0,000 mm 0,0 UV-I 65 W/m² 6,3 °C 10,3 °C 0,0 km/h (0 Bft)
01.05.2018 18:16 10,3 °C 74 % 1010,6 hPa 0,0 mm 0,1 km/h (0 Bft) NO 50 ° 0 min 0,000 mm 0,0 UV-I 67 W/m² 5,9 °C 10,3 °C 1,6 km/h (1 Bft)
01.05.2018 18:17 10,3 °C 74 % 1010,6 hPa 0,0 mm 0,0 km/h (0 Bft) NO 50 ° 0 min 0,000 mm 0,0 UV-I 70 W/m² 5,9 °C 10,3 °C 0,0 km/h (0 Bft)
01.05.2018 18:18 10,3 °C 75 % 1010,6 hPa 0,0 mm 0,0 km/h (0 Bft) NO 50 ° 0 min 0,000 mm 0,0 UV-I 70 W/m² 6,1 °C 10,3 °C 0,0 km/h (0 Bft)
01.05.2018 18:19 10,3 °C 76 % 1010,6 hPa 0,0 mm 0,0 km/h (0 Bft) NO 50 ° 0 min 0,000 mm 0,0 UV-I 70 W/m² 6,3 °C 10,3 °C 0,0 km/h (0 Bft)
01.05.2018 18:20 10,3 °C 77 % 1010,6 hPa 0,0 mm 0,0 km/h (0 Bft) NO 50 ° 0 min 0,000 mm 0,0 UV-I 70 W/m² 6,4 °C 10,3 °C 0,0 km/h (0 Bft)
01.05.2018 18:21 10,3 °C 77 % 1010,6 hPa 0,0 mm 0,0 km/h (0 Bft) NO 50 ° 0 min 0,000 mm 0,0 UV-I 70 W/m² 6,4 °C 10,3 °C 0,0 km/h (0 Bft)
01.05.2018 18:22 10,3 °C 78 % 1010,7 hPa 0,0 mm 1,5 km/h (1 Bft) NO 50 ° 0 min 0,000 mm 0,0 UV-I 69 W/m² 6,6 °C 10,3 °C 3,2 km/h (1 Bft)
01.05.2018 18:23 10,3 °C 76 % 1010,7 hPa 0,0 mm 0,9 km/h (0 Bft) NO 50 ° 0 min 0,000 mm 0,0 UV-I 67 W/m² 6,3 °C 10,3 °C 3,2 km/h (1 Bft)
01.05.2018 18:24 10,3 °C 74 % 1010,7 hPa 0,0 mm 0,3 km/h (0 Bft) NO 50 ° 0 min 0,000 mm 0,0 UV-I 65 W/m² 5,9 °C 10,3 °C 1,6 km/h (1 Bft)
01.05.2018 18:25 10,3 °C 74 % 1010,7 hPa 0,0 mm 0,0 km/h (0 Bft) NO 50 ° 0 min 0,000 mm 0,0 UV-I 65 W/m² 5,9 °C 10,3 °C 0,0 km/h (0 Bft)
01.05.2018 18:26 10,3 °C 74 % 1010,7 hPa 0,0 mm 0,0 km/h (0 Bft) NO 50 ° 0 min 0,000 mm 0,0 UV-I 63 W/m² 5,9 °C 10,3 °C 0,0 km/h (0 Bft)
01.05.2018 18:27 10,3 °C 73 % 1010,6 hPa 0,0 mm 0,0 km/h (0 Bft) NO 50 ° 0 min 0,000 mm 0,0 UV-I 63 W/m² 5,7 °C 10,3 °C 0,0 km/h (0 Bft)
01.05.2018 18:28 10,3 °C 74 % 1010,6 hPa 0,0 mm 0,0 km/h (0 Bft) NO 50 ° 0 min 0,000 mm 0,0 UV-I 62 W/m² 5,9 °C 10,3 °C 0,0 km/h (0 Bft)
01.05.2018 18:29 10,3 °C 75 % 1010,6 hPa 0,0 mm 0,0 km/h (0 Bft) NO 50 ° 0 min 0,000 mm 0,0 UV-I 56 W/m² 6,1 °C 10,3 °C 0,0 km/h (0 Bft)
01.05.2018 18:30 10,3 °C 74 % 1010,6 hPa 0,0 mm 0,0 km/h (0 Bft) NO 50 ° 0 min 0,000 mm 0,0 UV-I 54 W/m² 5,9 °C 10,3 °C 0,0 km/h (0 Bft)
01.05.2018 18:31 10,3 °C 74 % 1010,6 hPa 0,0 mm 0,0 km/h (0 Bft) NO 50 ° 0 min 0,000 mm 0,0 UV-I 53 W/m² 5,9 °C 10,3 °C 0,0 km/h (0 Bft)
01.05.2018 18:32 10,3 °C 74 % 1010,6 hPa 0,0 mm 0,0 km/h (0 Bft) NO 50 ° 0 min 0,000 mm 0,0 UV-I 49 W/m² 5,9 °C 10,3 °C 0,0 km/h (0 Bft)
01.05.2018 18:33 10,3 °C 74 % 1010,6 hPa 0,0 mm 0,0 km/h (0 Bft) NO 50 ° 0 min 0,000 mm 0,0 UV-I 49 W/m² 5,9 °C 10,3 °C 0,0 km/h (0 Bft)
01.05.2018 18:34 10,3 °C 76 % 1010,7 hPa 0,0 mm 0,0 km/h (0 Bft) NO 50 ° 0 min 0,000 mm 0,0 UV-I 47 W/m² 6,3 °C 10,3 °C 0,0 km/h (0 Bft)
01.05.2018 18:35 10,3 °C 75 % 1010,6 hPa 0,0 mm 0,0 km/h (0 Bft) NO 50 ° 0 min 0,000 mm 0,0 UV-I 42 W/m² 6,1 °C 10,3 °C 0,0 km/h (0 Bft)
01.05.2018 18:36 10,3 °C 76 % 1010,7 hPa 0,0 mm 0,3 km/h (0 Bft) NO 50 ° 0 min 0,000 mm 0,0 UV-I 39 W/m² 6,3 °C 10,3 °C 1,6 km/h (1 Bft)
01.05.2018 18:37 10,3 °C 76 % 1010,7 hPa 0,0 mm 0,2 km/h (0 Bft) NO 50 ° 0 min 0,000 mm 0,0 UV-I 37 W/m² 6,3 °C 10,3 °C 1,6 km/h (1 Bft)
01.05.2018 18:38 10,3 °C 76 % 1010,7 hPa 0,0 mm 0,0 km/h (0 Bft) NO 50 ° 0 min 0,000 mm 0,0 UV-I 35 W/m² 6,3 °C 10,3 °C 0,0 km/h (0 Bft)
01.05.2018 18:39 10,2 °C 77 % 1010,7 hPa 0,0 mm 0,0 km/h (0 Bft) NO 50 ° 0 min 0,000 mm 0,0 UV-I 33 W/m² 6,4 °C 10,2 °C 0,0 km/h (0 Bft)
01.05.2018 18:40 10,2 °C 78 % 1010,7 hPa 0,0 mm 0,0 km/h (0 Bft) NO 50 ° 0 min 0,000 mm 0,0 UV-I 33 W/m² 6,5 °C 10,2 °C 0,0 km/h (0 Bft)
01.05.2018 18:41 10,2 °C 77 % 1010,7 hPa 0,0 mm 0,0 km/h (0 Bft) NO 50 ° 0 min 0,000 mm 0,0 UV-I 32 W/m² 6,4 °C 10,2 °C 0,0 km/h (0 Bft)
01.05.2018 18:42 10,2 °C 75 % 1010,7 hPa 0,0 mm 0,0 km/h (0 Bft) NO 50 ° 0 min 0,000 mm 0,0 UV-I 30 W/m² 6,0 °C 10,2 °C 0,0 km/h (0 Bft)
01.05.2018 18:43 10,2 °C 77 % 1010,7 hPa 0,0 mm 0,0 km/h (0 Bft) NO 50 ° 0 min 0,000 mm 0,0 UV-I 30 W/m² 6,4 °C 10,2 °C 0,0 km/h (0 Bft)
01.05.2018 18:44 10,2 °C 77 % 1010,7 hPa 0,0 mm 0,0 km/h (0 Bft) NO 50 ° 0 min 0,000 mm 0,0 UV-I 32 W/m² 6,4 °C 10,2 °C 0,0 km/h (0 Bft)
01.05.2018 18:45 10,1 °C 76 % 1010,7 hPa 0,0 mm 0,0 km/h (0 Bft) NO 50 ° 0 min 0,000 mm 0,0 UV-I 33 W/m² 6,1 °C 10,1 °C 0,0 km/h (0 Bft)
01.05.2018 18:46 10,1 °C 76 % 1010,7 hPa 0,0 mm 0,0 km/h (0 Bft) NO 50 ° 0 min 0,000 mm 0,0 UV-I 35 W/m² 6,1 °C 10,1 °C 0,0 km/h (0 Bft)
01.05.2018 18:47 10,1 °C 77 % 1010,7 hPa 0,0 mm 0,0 km/h (0 Bft) NO 50 ° 0 min 0,000 mm 0,0 UV-I 37 W/m² 6,3 °C 10,1 °C 0,0 km/h (0 Bft)
01.05.2018 18:48 10,1 °C 78 % 1010,7 hPa 0,0 mm 0,0 km/h (0 Bft) NO 50 ° 0 min 0,000 mm 0,0 UV-I 37 W/m² 6,4 °C 10,1 °C 0,0 km/h (0 Bft)
01.05.2018 18:49 10,0 °C 79 % 1010,8 hPa 0,0 mm 0,0 km/h (0 Bft) NO 50 ° 0 min 0,000 mm 0,0 UV-I 39 W/m² 6,5 °C 10,0 °C 0,0 km/h (0 Bft)
01.05.2018 18:50 10,0 °C 78 % 1010,7 hPa 0,0 mm 0,0 km/h (0 Bft) NO 50 ° 0 min 0,000 mm 0,0 UV-I 40 W/m² 6,3 °C 10,0 °C 0,0 km/h (0 Bft)
01.05.2018 18:51 9,9 °C 79 % 1010,7 hPa 0,0 mm 0,0 km/h (0 Bft) NO 50 ° 0 min 0,000 mm 0,0 UV-I 42 W/m² 6,4 °C 9,9 °C 0,0 km/h (0 Bft)
01.05.2018 18:52 9,9 °C 78 % 1010,7 hPa 0,0 mm 0,0 km/h (0 Bft) NO 50 ° 0 min 0,000 mm 0,0 UV-I 44 W/m² 6,2 °C 9,9 °C 0,0 km/h (0 Bft)
01.05.2018 18:53 9,9 °C 78 % 1010,8 hPa 0,0 mm 0,0 km/h (0 Bft) NO 50 ° 0 min 0,000 mm 0,0 UV-I 42 W/m² 6,2 °C 9,9 °C 0,0 km/h (0 Bft)
01.05.2018 18:54 9,9 °C 77 % 1010,8 hPa 0,0 mm 0,0 km/h (0 Bft) NO 50 ° 0 min 0,000 mm 0,0 UV-I 40 W/m² 6,1 °C 9,9 °C 0,0 km/h (0 Bft)
01.05.2018 18:55 9,9 °C 78 % 1010,8 hPa 0,0 mm 0,0 km/h (0 Bft) NO 50 ° 0 min 0,000 mm 0,0 UV-I 40 W/m² 6,2 °C 9,9 °C 0,0 km/h (0 Bft)
01.05.2018 18:56 9,9 °C 78 % 1010,8 hPa 0,0 mm 0,0 km/h (0 Bft) NO 50 ° 0 min 0,000 mm 0,0 UV-I 40 W/m² 6,2 °C 9,9 °C 0,0 km/h (0 Bft)
01.05.2018 18:57 10,0 °C 78 % 1010,8 hPa 0,0 mm 0,0 km/h (0 Bft) NO 50 ° 0 min 0,000 mm 0,0 UV-I 39 W/m² 6,3 °C 10,0 °C 0,0 km/h (0 Bft)
01.05.2018 18:58 10,0 °C 78 % 1010,8 hPa 0,0 mm 0,0 km/h (0 Bft) NO 50 ° 0 min 0,000 mm 0,0 UV-I 37 W/m² 6,3 °C 10,0 °C 0,0 km/h (0 Bft)
01.05.2018 18:59 10,0 °C 78 % 1010,7 hPa 0,0 mm 0,0 km/h (0 Bft) NO 50 ° 0 min 0,000 mm 0,0 UV-I 33 W/m² 6,3 °C 10,0 °C 0,0 km/h (0 Bft)
01.05.2018 19:00 10,0 °C 78 % 1010,7 hPa 0,0 mm 0,0 km/h (0 Bft) NO 50 ° 0 min 0,000 mm 0,0 UV-I 32 W/m² 6,3 °C 10,0 °C 0,0 km/h (0 Bft)
01.05.2018 19:01 10,0 °C 79 % 1010,8 hPa 0,0 mm 0,0 km/h (0 Bft) NO 50 ° 0 min 0,025 mm 0,0 UV-I 32 W/m² 6,5 °C 10,0 °C 0,0 km/h (0 Bft)
01.05.2018 19:02 10,0 °C 80 % 1010,7 hPa 0,0 mm 0,0 km/h (0 Bft) NO 50 ° 0 min 0,000 mm 0,0 UV-I 32 W/m² 6,7 °C 10,0 °C 0,0 km/h (0 Bft)
01.05.2018 19:03 10,0 °C 80 % 1010,7 hPa 0,0 mm 0,0 km/h (0 Bft) NO 50 ° 0 min 0,000 mm 0,0 UV-I 30 W/m² 6,7 °C 10,0 °C 0,0 km/h (0 Bft)
01.05.2018 19:04 9,9 °C 81 % 1010,7 hPa 0,0 mm 0,0 km/h (0 Bft) NO 50 ° 0 min 0,000 mm 0,0 UV-I 30 W/m² 6,8 °C 9,9 °C 0,0 km/h (0 Bft)
01.05.2018 19:05 9,9 °C 80 % 1010,7 hPa 0,0 mm 0,0 km/h (0 Bft) NO 50 ° 0 min 0,000 mm 0,0 UV-I 28 W/m² 6,6 °C 9,9 °C 0,0 km/h (0 Bft)
01.05.2018 19:06 9,9 °C 80 % 1010,7 hPa 0,0 mm 0,0 km/h (0 Bft) NO 50 ° 0 min 0,000 mm 0,0 UV-I 26 W/m² 6,6 °C 9,9 °C 0,0 km/h (0 Bft)
01.05.2018 19:07 9,9 °C 79 % 1010,7 hPa 0,0 mm 0,0 km/h (0 Bft) NO 50 ° 0 min 0,000 mm 0,0 UV-I 26 W/m² 6,4 °C 9,9 °C 0,0 km/h (0 Bft)
01.05.2018 19:08 9,9 °C 79 % 1010,7 hPa 0,0 mm 0,0 km/h (0 Bft) NO 50 ° 0 min 0,000 mm 0,0 UV-I 25 W/m² 6,4 °C 9,9 °C 0,0 km/h (0 Bft)
01.05.2018 19:09 9,9 °C 79 % 1010,8 hPa 0,0 mm 0,0 km/h (0 Bft) NO 50 ° 0 min 0,000 mm 0,0 UV-I 23 W/m² 6,4 °C 9,9 °C 0,0 km/h (0 Bft)
01.05.2018 19:10 9,9 °C 79 % 1010,8 hPa 0,0 mm 0,0 km/h (0 Bft) NO 50 ° 0 min 0,000 mm 0,0 UV-I 19 W/m² 6,4 °C 9,9 °C 0,0 km/h (0 Bft)
01.05.2018 19:11 9,9 °C 80 % 1010,8 hPa 0,0 mm 0,0 km/h (0 Bft) NO 50 ° 0 min 0,000 mm 0,0 UV-I 19 W/m² 6,6 °C 9,9 °C 0,0 km/h (0 Bft)
01.05.2018 19:12 9,9 °C 80 % 1010,8 hPa 0,0 mm 0,0 km/h (0 Bft) NO 50 ° 0 min 0,000 mm 0,0 UV-I 18 W/m² 6,6 °C 9,9 °C 0,0 km/h (0 Bft)
01.05.2018 19:13 9,9 °C 79 % 1010,8 hPa 0,0 mm 0,0 km/h (0 Bft) NO 50 ° 0 min 0,000 mm 0,0 UV-I 18 W/m² 6,4 °C 9,9 °C 0,0 km/h (0 Bft)
01.05.2018 19:14 9,9 °C 80 % 1010,8 hPa 0,0 mm 0,0 km/h (0 Bft) NO 50 ° 0 min 0,000 mm 0,0 UV-I 16 W/m² 6,6 °C 9,9 °C 0,0 km/h (0 Bft)
01.05.2018 19:15 9,9 °C 80 % 1010,8 hPa 0,0 mm 0,0 km/h (0 Bft) NO 50 ° 0 min 0,000 mm 0,0 UV-I 16 W/m² 6,6 °C 9,9 °C 0,0 km/h (0 Bft)
01.05.2018 19:16 9,9 °C 80 % 1010,7 hPa 0,0 mm 0,0 km/h (0 Bft) NO 50 ° 0 min 0,000 mm 0,0 UV-I 14 W/m² 6,6 °C 9,9 °C 0,0 km/h (0 Bft)
01.05.2018 19:17 9,9 °C 79 % 1010,8 hPa 0,0 mm 0,0 km/h (0 Bft) NO 50 ° 0 min 0,000 mm 0,0 UV-I 14 W/m² 6,4 °C 9,9 °C 0,0 km/h (0 Bft)
01.05.2018 19:18 9,8 °C 79 % 1010,8 hPa 0,0 mm 0,0 km/h (0 Bft) NO 50 ° 0 min 0,000 mm 0,0 UV-I 14 W/m² 6,3 °C 9,8 °C 0,0 km/h (0 Bft)
01.05.2018 19:19 9,8 °C 79 % 1010,8 hPa 0,0 mm 0,0 km/h (0 Bft) NO 50 ° 0 min 0,000 mm 0,0 UV-I 14 W/m² 6,3 °C 9,8 °C 0,0 km/h (0 Bft)
01.05.2018 19:20 9,8 °C 80 % 1010,8 hPa 0,0 mm 0,0 km/h (0 Bft) NO 50 ° 0 min 0,000 mm 0,0 UV-I 14 W/m² 6,5 °C 9,8 °C 0,0 km/h (0 Bft)
01.05.2018 19:21 9,8 °C 81 % 1010,9 hPa 0,0 mm 0,0 km/h (0 Bft) NO 50 ° 0 min 0,000 mm 0,0 UV-I 14 W/m² 6,7 °C 9,8 °C 0,0 km/h (0 Bft)
01.05.2018 19:22 9,7 °C 80 % 1010,9 hPa 0,0 mm 0,0 km/h (0 Bft) NO 50 ° 0 min 0,000 mm 0,0 UV-I 14 W/m² 6,4 °C 9,7 °C 0,0 km/h (0 Bft)
01.05.2018 19:23 9,7 °C 80 % 1010,9 hPa 0,0 mm 0,0 km/h (0 Bft) NO 50 ° 0 min 0,000 mm 0,0 UV-I 14 W/m² 6,4 °C 9,7 °C 0,0 km/h (0 Bft)
01.05.2018 19:24 9,7 °C 80 % 1010,9 hPa 0,0 mm 0,0 km/h (0 Bft) NO 50 ° 0 min 0,000 mm 0,0 UV-I 14 W/m² 6,4 °C 9,7 °C 0,0 km/h (0 Bft)
01.05.2018 19:25 9,7 °C 80 % 1010,9 hPa 0,0 mm 0,0 km/h (0 Bft) NO 50 ° 0 min 0,000 mm 0,0 UV-I 14 W/m² 6,4 °C 9,7 °C 0,0 km/h (0 Bft)
01.05.2018 19:26 9,7 °C 80 % 1010,9 hPa 0,0 mm 0,0 km/h (0 Bft) NO 50 ° 0 min 0,000 mm 0,0 UV-I 14 W/m² 6,4 °C 9,7 °C 0,0 km/h (0 Bft)
01.05.2018 19:27 9,7 °C 80 % 1011,0 hPa 0,0 mm 0,0 km/h (0 Bft) NO 50 ° 0 min 0,000 mm 0,0 UV-I 14 W/m² 6,4 °C 9,7 °C 0,0 km/h (0 Bft)
01.05.2018 19:28 9,6 °C 81 % 1011,0 hPa 0,0 mm 0,0 km/h (0 Bft) NO 50 ° 0 min 0,000 mm 0,0 UV-I 12 W/m² 6,5 °C 9,6 °C 0,0 km/h (0 Bft)
01.05.2018 19:29 9,6 °C 82 % 1011,1 hPa 0,0 mm 0,0 km/h (0 Bft) NO 50 ° 0 min 0,000 mm 0,0 UV-I 12 W/m² 6,7 °C 9,6 °C 0,0 km/h (0 Bft)
01.05.2018 19:30 9,6 °C 82 % 1011,1 hPa 0,0 mm 0,0 km/h (0 Bft) NO 50 ° 0 min 0,000 mm 0,0 UV-I 12 W/m² 6,7 °C 9,6 °C 0,0 km/h (0 Bft)
01.05.2018 19:31 9,6 °C 82 % 1011,1 hPa 0,0 mm 0,0 km/h (0 Bft) NO 50 ° 0 min 0,000 mm 0,0 UV-I 12 W/m² 6,7 °C 9,6 °C 0,0 km/h (0 Bft)
01.05.2018 19:32 9,5 °C 82 % 1011,1 hPa 0,0 mm 0,0 km/h (0 Bft) NO 50 ° 0 min 0,000 mm 0,0 UV-I 12 W/m² 6,6 °C 9,5 °C 0,0 km/h (0 Bft)
01.05.2018 19:33 9,6 °C 83 % 1011,1 hPa 0,0 mm 0,0 km/h (0 Bft) NO 50 ° 0 min 0,000 mm 0,0 UV-I 12 W/m² 6,9 °C 9,6 °C 0,0 km/h (0 Bft)
01.05.2018 19:34 9,5 °C 83 % 1011,1 hPa 0,0 mm 0,0 km/h (0 Bft) NO 50 ° 0 min 0,000 mm 0,0 UV-I 14 W/m² 6,8 °C 9,5 °C 0,0 km/h (0 Bft)
01.05.2018 19:35 9,4 °C 83 % 1011,1 hPa 0,0 mm 0,0 km/h (0 Bft) NO 50 ° 0 min 0,000 mm 0,0 UV-I 14 W/m² 6,7 °C 9,4 °C 0,0 km/h (0 Bft)
01.05.2018 19:36 9,5 °C 82 % 1011,1 hPa 0,0 mm 0,0 km/h (0 Bft) NO 50 ° 0 min 0,000 mm 0,0 UV-I 14 W/m² 6,6 °C 9,5 °C 0,0 km/h (0 Bft)
01.05.2018 19:37 9,4 °C 82 % 1011,1 hPa 0,0 mm 0,0 km/h (0 Bft) NO 50 ° 0 min 0,000 mm 0,0 UV-I 14 W/m² 6,5 °C 9,4 °C 0,0 km/h (0 Bft)
01.05.2018 19:38 9,4 °C 81 % 1011,0 hPa 0,0 mm 0,0 km/h (0 Bft) NO 50 ° 0 min 0,000 mm 0,0 UV-I 14 W/m² 6,3 °C 9,4 °C 0,0 km/h (0 Bft)
01.05.2018 19:39 9,4 °C 81 % 1011,0 hPa 0,0 mm 0,0 km/h (0 Bft) NO 50 ° 0 min 0,000 mm 0,0 UV-I 14 W/m² 6,3 °C 9,4 °C 0,0 km/h (0 Bft)
01.05.2018 19:40 9,4 °C 81 % 1011,0 hPa 0,0 mm 0,0 km/h (0 Bft) NO 50 ° 0 min 0,000 mm 0,0 UV-I 12 W/m² 6,3 °C 9,4 °C 0,0 km/h (0 Bft)
01.05.2018 19:41 9,4 °C 81 % 1011,0 hPa 0,0 mm 0,0 km/h (0 Bft) NO 50 ° 0 min 0,000 mm 0,0 UV-I 12 W/m² 6,3 °C 9,4 °C 0,0 km/h (0 Bft)
01.05.2018 19:42 9,4 °C 81 % 1011,0 hPa 0,0 mm 0,0 km/h (0 Bft) NO 50 ° 0 min 0,000 mm 0,0 UV-I 12 W/m² 6,3 °C 9,4 °C 0,0 km/h (0 Bft)
01.05.2018 19:43 9,5 °C 81 % 1011,1 hPa 0,0 mm 0,0 km/h (0 Bft) NO 50 ° 0 min 0,000 mm 0,0 UV-I 12 W/m² 6,4 °C 9,5 °C 0,0 km/h (0 Bft)
01.05.2018 19:44 9,4 °C 81 % 1011,1 hPa 0,0 mm 0,0 km/h (0 Bft) NO 50 ° 0 min 0,000 mm 0,0 UV-I 11 W/m² 6,3 °C 9,4 °C 0,0 km/h (0 Bft)
01.05.2018 19:45 9,4 °C 81 % 1011,1 hPa 0,0 mm 0,0 km/h (0 Bft) NO 50 ° 0 min 0,000 mm 0,0 UV-I 11 W/m² 6,3 °C 9,4 °C 0,0 km/h (0 Bft)
01.05.2018 19:46 9,5 °C 81 % 1011,0 hPa 0,0 mm 0,0 km/h (0 Bft) NO 50 ° 0 min 0,000 mm 0,0 UV-I 11 W/m² 6,4 °C 9,5 °C 0,0 km/h (0 Bft)
01.05.2018 19:47 9,4 °C 80 % 1011,0 hPa 0,0 mm 0,0 km/h (0 Bft) NO 50 ° 0 min 0,000 mm 0,0 UV-I 11 W/m² 6,1 °C 9,4 °C 0,0 km/h (0 Bft)
01.05.2018 19:48 9,5 °C 80 % 1011,0 hPa 0,0 mm 0,0 km/h (0 Bft) NO 50 ° 0 min 0,000 mm 0,0 UV-I 11 W/m² 6,2 °C 9,5 °C 0,0 km/h (0 Bft)
01.05.2018 19:49 9,5 °C 80 % 1011,0 hPa 0,0 mm 0,0 km/h (0 Bft) NO 50 ° 0 min 0,000 mm 0,0 UV-I 9 W/m² 6,2 °C 9,5 °C 0,0 km/h (0 Bft)
01.05.2018 19:50 9,4 °C 80 % 1011,0 hPa 0,0 mm 0,0 km/h (0 Bft) NO 50 ° 0 min 0,000 mm 0,0 UV-I 9 W/m² 6,1 °C 9,4 °C 0,0 km/h (0 Bft)
01.05.2018 19:51 9,4 °C 81 % 1011,0 hPa 0,0 mm 0,0 km/h (0 Bft) NO 50 ° 0 min 0,000 mm 0,0 UV-I 9 W/m² 6,3 °C 9,4 °C 0,0 km/h (0 Bft)
01.05.2018 19:52 9,4 °C 81 % 1011,0 hPa 0,0 mm 0,0 km/h (0 Bft) NO 50 ° 0 min 0,000 mm 0,0 UV-I 7 W/m² 6,3 °C 9,4 °C 0,0 km/h (0 Bft)
01.05.2018 19:53 9,4 °C 81 % 1011,0 hPa 0,0 mm 0,0 km/h (0 Bft) NO 50 ° 0 min 0,000 mm 0,0 UV-I 7 W/m² 6,3 °C 9,4 °C 0,0 km/h (0 Bft)
01.05.2018 19:54 9,4 °C 81 % 1011,0 hPa 0,0 mm 0,0 km/h (0 Bft) NO 50 ° 0 min 0,000 mm 0,0 UV-I 7 W/m² 6,3 °C 9,4 °C 0,0 km/h (0 Bft)
01.05.2018 19:55 9,4 °C 81 % 1011,0 hPa 0,0 mm 0,0 km/h (0 Bft) NO 50 ° 0 min 0,000 mm 0,0 UV-I 5 W/m² 6,3 °C 9,4 °C 0,0 km/h (0 Bft)
01.05.2018 19:56 9,4 °C 81 % 1011,0 hPa 0,0 mm 0,0 km/h (0 Bft) NO 50 ° 0 min 0,000 mm 0,0 UV-I 5 W/m² 6,3 °C 9,4 °C 0,0 km/h (0 Bft)
01.05.2018 19:57 9,4 °C 80 % 1011,0 hPa 0,0 mm 0,0 km/h (0 Bft) NO 50 ° 0 min 0,000 mm 0,0 UV-I 0 W/m² 6,1 °C 9,4 °C 0,0 km/h (0 Bft)
01.05.2018 19:58 9,4 °C 81 % 1011,0 hPa 0,0 mm 0,0 km/h (0 Bft) NO 50 ° 0 min 0,000 mm 0,0 UV-I 0 W/m² 6,3 °C 9,4 °C 0,0 km/h (0 Bft)
01.05.2018 19:59 9,4 °C 80 % 1011,1 hPa 0,0 mm 0,0 km/h (0 Bft) NO 50 ° 0 min 0,000 mm 0,0 UV-I 0 W/m² 6,1 °C 9,4 °C 0,0 km/h (0 Bft)
01.05.2018 20:00 9,4 °C 79 % 1011,1 hPa 0,0 mm 0,0 km/h (0 Bft) NO 50 ° 0 min 0,000 mm 0,0 UV-I 0 W/m² 5,9 °C 9,4 °C 0,0 km/h (0 Bft)
01.05.2018 20:01 9,4 °C 79 % 1011,1 hPa 0,0 mm 0,0 km/h (0 Bft) NO 50 ° 0 min 0,000 mm 0,0 UV-I 0 W/m² 5,9 °C 9,4 °C 0,0 km/h (0 Bft)
01.05.2018 20:02 9,4 °C 80 % 1011,1 hPa 0,0 mm 0,0 km/h (0 Bft) NO 50 ° 0 min 0,000 mm 0,0 UV-I 0 W/m² 6,1 °C 9,4 °C 0,0 km/h (0 Bft)
01.05.2018 20:03 9,4 °C 80 % 1011,1 hPa 0,0 mm 0,0 km/h (0 Bft) NO 50 ° 0 min 0,000 mm 0,0 UV-I 0 W/m² 6,1 °C 9,4 °C 0,0 km/h (0 Bft)
01.05.2018 20:04 9,4 °C 80 % 1011,1 hPa 0,0 mm 0,0 km/h (0 Bft) NO 50 ° 0 min 0,000 mm 0,0 UV-I 0 W/m² 6,1 °C 9,4 °C 0,0 km/h (0 Bft)
01.05.2018 20:05 9,4 °C 81 % 1011,1 hPa 0,0 mm 0,0 km/h (0 Bft) NO 50 ° 0 min 0,000 mm 0,0 UV-I 0 W/m² 6,3 °C 9,4 °C 0,0 km/h (0 Bft)
01.05.2018 20:06 9,4 °C 81 % 1011,1 hPa 0,0 mm 0,0 km/h (0 Bft) NO 50 ° 0 min 0,000 mm 0,0 UV-I 0 W/m² 6,3 °C 9,4 °C 0,0 km/h (0 Bft)
01.05.2018 20:07 9,3 °C 82 % 1011,2 hPa 0,0 mm 0,0 km/h (0 Bft) NO 50 ° 0 min 0,000 mm 0,0 UV-I 0 W/m² 6,4 °C 9,3 °C 0,0 km/h (0 Bft)
01.05.2018 20:08 9,3 °C 83 % 1011,2 hPa 0,0 mm 0,0 km/h (0 Bft) NO 50 ° 0 min 0,000 mm 0,0 UV-I 0 W/m² 6,6 °C 9,3 °C 0,0 km/h (0 Bft)
01.05.2018 20:09 9,3 °C 83 % 1011,2 hPa 0,0 mm 0,5 km/h (0 Bft) NO 50 ° 0 min 0,000 mm 0,0 UV-I 0 W/m² 6,6 °C 9,3 °C 1,6 km/h (1 Bft)
01.05.2018 20:10 9,3 °C 83 % 1011,2 hPa 0,0 mm 0,0 km/h (0 Bft) NO 50 ° 0 min 0,000 mm 0,0 UV-I 0 W/m² 6,6 °C 9,3 °C 0,0 km/h (0 Bft)
01.05.2018 20:11 9,3 °C 84 % 1011,2 hPa 0,0 mm 0,0 km/h (0 Bft) NO 50 ° 0 min 0,000 mm 0,0 UV-I 0 W/m² 6,7 °C 9,3 °C 0,0 km/h (0 Bft)
01.05.2018 20:12 9,2 °C 84 % 1011,3 hPa 0,0 mm 0,0 km/h (0 Bft) NO 50 ° 0 min 0,000 mm 0,0 UV-I 0 W/m² 6,6 °C 9,2 °C 0,0 km/h (0 Bft)
01.05.2018 20:13 9,2 °C 84 % 1011,3 hPa 0,0 mm 0,0 km/h (0 Bft) NO 50 ° 0 min 0,000 mm 0,0 UV-I 0 W/m² 6,6 °C 9,2 °C 0,0 km/h (0 Bft)
01.05.2018 20:14 9,2 °C 83 % 1011,3 hPa 0,0 mm 0,0 km/h (0 Bft) NO 50 ° 0 min 0,000 mm 0,0 UV-I 0 W/m² 6,5 °C 9,2 °C 0,0 km/h (0 Bft)
01.05.2018 20:15 9,2 °C 82 % 1011,2 hPa 0,0 mm 0,0 km/h (0 Bft) NO 50 ° 0 min 0,000 mm 0,0 UV-I 0 W/m² 6,3 °C 9,2 °C 0,0 km/h (0 Bft)
01.05.2018 20:16 9,2 °C 83 % 1011,3 hPa 0,0 mm 0,0 km/h (0 Bft) NO 50 ° 0 min 0,000 mm 0,0 UV-I 0 W/m² 6,5 °C 9,2 °C 0,0 km/h (0 Bft)
01.05.2018 20:17 9,2 °C 83 % 1011,2 hPa 0,0 mm 0,0 km/h (0 Bft) NO 50 ° 0 min 0,000 mm 0,0 UV-I 0 W/m² 6,5 °C 9,2 °C 0,0 km/h (0 Bft)
01.05.2018 20:18 9,2 °C 82 % 1011,3 hPa 0,0 mm 0,9 km/h (0 Bft) NO 50 ° 0 min 0,000 mm 0,0 UV-I 0 W/m² 6,3 °C 9,2 °C 1,6 km/h (1 Bft)
01.05.2018 20:19 9,2 °C 82 % 1011,3 hPa 0,0 mm 0,8 km/h (0 Bft) NO 50 ° 0 min 0,000 mm 0,0 UV-I 0 W/m² 6,3 °C 9,2 °C 1,6 km/h (1 Bft)
01.05.2018 20:20 9,2 °C 82 % 1011,2 hPa 0,0 mm 0,8 km/h (0 Bft) NO 50 ° 0 min 0,000 mm 0,0 UV-I 0 W/m² 6,3 °C 9,2 °C 1,6 km/h (1 Bft)
01.05.2018 20:21 9,1 °C 82 % 1011,2 hPa 0,0 mm 1,1 km/h (1 Bft) NO 50 ° 0 min 0,000 mm 0,0 UV-I 0 W/m² 6,2 °C 9,1 °C 1,6 km/h (1 Bft)
01.05.2018 20:22 9,2 °C 83 % 1011,3 hPa 0,0 mm 1,1 km/h (1 Bft) NO 50 ° 0 min 0,000 mm 0,0 UV-I 0 W/m² 6,5 °C 9,2 °C 1,6 km/h (1 Bft)
01.05.2018 20:23 9,1 °C 83 % 1011,3 hPa 0,0 mm 0,4 km/h (0 Bft) NO 50 ° 0 min 0,000 mm 0,0 UV-I 0 W/m² 6,4 °C 9,1 °C 1,6 km/h (1 Bft)
01.05.2018 20:24 9,1 °C 84 % 1011,3 hPa 0,0 mm 0,0 km/h (0 Bft) NO 50 ° 0 min 0,000 mm 0,0 UV-I 0 W/m² 6,5 °C 9,1 °C 0,0 km/h (0 Bft)
01.05.2018 20:25 9,1 °C 83 % 1011,3 hPa 0,0 mm 0,0 km/h (0 Bft) NO 50 ° 0 min 0,000 mm 0,0 UV-I 0 W/m² 6,4 °C 9,1 °C 0,0 km/h (0 Bft)
01.05.2018 20:26 9,1 °C 83 % 1011,3 hPa 0,0 mm 0,0 km/h (0 Bft) NO 50 ° 0 min 0,000 mm 0,0 UV-I 0 W/m² 6,4 °C 9,1 °C 0,0 km/h (0 Bft)
01.05.2018 20:27 9,2 °C 84 % 1011,2 hPa 0,0 mm 0,0 km/h (0 Bft) NO 50 ° 0 min 0,000 mm 0,0 UV-I 0 W/m² 6,6 °C 9,2 °C 0,0 km/h (0 Bft)
01.05.2018 20:28 9,1 °C 83 % 1011,3 hPa 0,0 mm 0,0 km/h (0 Bft) NO 50 ° 0 min 0,000 mm 0,0 UV-I 0 W/m² 6,4 °C 9,1 °C 0,0 km/h (0 Bft)
01.05.2018 20:29 9,1 °C 82 % 1011,2 hPa 0,0 mm 0,0 km/h (0 Bft) NO 50 ° 0 min 0,000 mm 0,0 UV-I 0 W/m² 6,2 °C 9,1 °C 0,0 km/h (0 Bft)
01.05.2018 20:30 9,1 °C 83 % 1011,2 hPa 0,0 mm 0,0 km/h (0 Bft) NO 50 ° 0 min 0,000 mm 0,0 UV-I 0 W/m² 6,4 °C 9,1 °C 0,0 km/h (0 Bft)
01.05.2018 20:31 9,1 °C 82 % 1011,2 hPa 0,0 mm 0,0 km/h (0 Bft) NO 50 ° 0 min 0,000 mm 0,0 UV-I 0 W/m² 6,2 °C 9,1 °C 0,0 km/h (0 Bft)
01.05.2018 20:32 9,1 °C 83 % 1011,2 hPa 0,0 mm 0,0 km/h (0 Bft) NO 50 ° 0 min 0,000 mm 0,0 UV-I 0 W/m² 6,4 °C 9,1 °C 0,0 km/h (0 Bft)
01.05.2018 20:33 9,1 °C 82 % 1011,3 hPa 0,0 mm 0,0 km/h (0 Bft) NO 50 ° 0 min 0,000 mm 0,0 UV-I 0 W/m² 6,2 °C 9,1 °C 0,0 km/h (0 Bft)
01.05.2018 20:34 9,1 °C 83 % 1011,2 hPa 0,0 mm 0,0 km/h (0 Bft) NO 50 ° 0 min 0,000 mm 0,0 UV-I 0 W/m² 6,4 °C 9,1 °C 0,0 km/h (0 Bft)
01.05.2018 20:35 9,1 °C 83 % 1011,3 hPa 0,0 mm 0,0 km/h (0 Bft) NO 50 ° 0 min 0,000 mm 0,0 UV-I 0 W/m² 6,4 °C 9,1 °C 0,0 km/h (0 Bft)
01.05.2018 20:36 9,1 °C 83 % 1011,3 hPa 0,0 mm 0,0 km/h (0 Bft) NO 50 ° 0 min 0,000 mm 0,0 UV-I 0 W/m² 6,4 °C 9,1 °C 0,0 km/h (0 Bft)
01.05.2018 20:37 9,1 °C 83 % 1011,2 hPa 0,0 mm 0,0 km/h (0 Bft) NO 50 ° 0 min 0,000 mm 0,0 UV-I 0 W/m² 6,4 °C 9,1 °C 0,0 km/h (0 Bft)
01.05.2018 20:38 9,1 °C 83 % 1011,2 hPa 0,0 mm 0,0 km/h (0 Bft) NO 50 ° 0 min 0,000 mm 0,0 UV-I 0 W/m² 6,4 °C 9,1 °C 0,0 km/h (0 Bft)
01.05.2018 20:39 9,1 °C 82 % 1011,2 hPa 0,0 mm 0,1 km/h (0 Bft) NO 50 ° 0 min 0,000 mm 0,0 UV-I 0 W/m² 6,2 °C 9,1 °C 1,6 km/h (1 Bft)
01.05.2018 20:40 9,1 °C 83 % 1011,2 hPa 0,0 mm 2,3 km/h (1 Bft) NO 50 ° 0 min 0,000 mm 0,0 UV-I 0 W/m² 6,4 °C 9,1 °C 3,2 km/h (1 Bft)
01.05.2018 20:41 9,0 °C 83 % 1011,2 hPa 0,0 mm 0,8 km/h (0 Bft) NO 50 ° 0 min 0,000 mm 0,0 UV-I 0 W/m² 6,3 °C 9,0 °C 1,6 km/h (1 Bft)
01.05.2018 20:42 9,0 °C 82 % 1011,2 hPa 0,0 mm 0,1 km/h (0 Bft) NO 50 ° 0 min 0,000 mm 0,0 UV-I 0 W/m² 6,1 °C 9,0 °C 1,6 km/h (1 Bft)
01.05.2018 20:43 9,1 °C 81 % 1011,2 hPa 0,0 mm 0,0 km/h (0 Bft) NO 50 ° 0 min 0,000 mm 0,0 UV-I 0 W/m² 6,0 °C 9,1 °C 0,0 km/h (0 Bft)
01.05.2018 20:44 9,1 °C 81 % 1011,2 hPa 0,0 mm 0,0 km/h (0 Bft) NO 50 ° 0 min 0,000 mm 0,0 UV-I 0 W/m² 6,0 °C 9,1 °C 0,0 km/h (0 Bft)
01.05.2018 20:45 9,1 °C 82 % 1011,2 hPa 0,0 mm 0,0 km/h (0 Bft) NO 50 ° 0 min 0,000 mm 0,0 UV-I 0 W/m² 6,2 °C 9,1 °C 0,0 km/h (0 Bft)
01.05.2018 20:46 9,2 °C 82 % 1011,2 hPa 0,0 mm 0,0 km/h (0 Bft) NO 50 ° 0 min 0,000 mm 0,0 UV-I 0 W/m² 6,3 °C 9,2 °C 0,0 km/h (0 Bft)
01.05.2018 20:47 9,1 °C 82 % 1011,2 hPa 0,0 mm 0,0 km/h (0 Bft) NO 50 ° 0 min 0,000 mm 0,0 UV-I 0 W/m² 6,2 °C 9,1 °C 0,0 km/h (0 Bft)
01.05.2018 20:48 9,2 °C 83 % 1011,2 hPa 0,0 mm 0,0 km/h (0 Bft) NO 50 ° 0 min 0,000 mm 0,0 UV-I 0 W/m² 6,5 °C 9,2 °C 0,0 km/h (0 Bft)
01.05.2018 20:49 9,2 °C 82 % 1011,3 hPa 0,0 mm 0,0 km/h (0 Bft) NO 50 ° 0 min 0,000 mm 0,0 UV-I 0 W/m² 6,3 °C 9,2 °C 0,0 km/h (0 Bft)
01.05.2018 20:50 9,1 °C 82 % 1011,3 hPa 0,0 mm 0,0 km/h (0 Bft) NO 50 ° 0 min 0,000 mm 0,0 UV-I 0 W/m² 6,2 °C 9,1 °C 0,0 km/h (0 Bft)
01.05.2018 20:51 9,2 °C 82 % 1011,3 hPa 0,0 mm 0,0 km/h (0 Bft) NO 50 ° 0 min 0,000 mm 0,0 UV-I 0 W/m² 6,3 °C 9,2 °C 0,0 km/h (0 Bft)
01.05.2018 20:52 9,2 °C 82 % 1011,3 hPa 0,0 mm 0,0 km/h (0 Bft) NO 50 ° 0 min 0,000 mm 0,0 UV-I 0 W/m² 6,3 °C 9,2 °C 0,0 km/h (0 Bft)
01.05.2018 20:53 9,2 °C 83 % 1011,3 hPa 0,0 mm 0,0 km/h (0 Bft) NO 50 ° 0 min 0,000 mm 0,0 UV-I 0 W/m² 6,5 °C 9,2 °C 0,0 km/h (0 Bft)
01.05.2018 20:54 9,1 °C 83 % 1011,3 hPa 0,0 mm 0,0 km/h (0 Bft) NO 50 ° 0 min 0,000 mm 0,0 UV-I 0 W/m² 6,4 °C 9,1 °C 0,0 km/h (0 Bft)
01.05.2018 20:55 9,1 °C 83 % 1011,3 hPa 0,0 mm 0,0 km/h (0 Bft) NO 50 ° 0 min 0,000 mm 0,0 UV-I 0 W/m² 6,4 °C 9,1 °C 0,0 km/h (0 Bft)
01.05.2018 20:56 9,0 °C 83 % 1011,4 hPa 0,0 mm 0,0 km/h (0 Bft) NO 50 ° 0 min 0,000 mm 0,0 UV-I 0 W/m² 6,3 °C 9,0 °C 0,0 km/h (0 Bft)
01.05.2018 20:57 9,0 °C 84 % 1011,3 hPa 0,0 mm 0,0 km/h (0 Bft) NO 50 ° 0 min 0,000 mm 0,0 UV-I 0 W/m² 6,4 °C 9,0 °C 0,0 km/h (0 Bft)
01.05.2018 20:58 9,0 °C 84 % 1011,3 hPa 0,0 mm 0,0 km/h (0 Bft) NO 50 ° 0 min 0,000 mm 0,0 UV-I 0 W/m² 6,4 °C 9,0 °C 0,0 km/h (0 Bft)
01.05.2018 20:59 9,0 °C 84 % 1011,4 hPa 0,0 mm 0,0 km/h (0 Bft) NO 50 ° 0 min 0,000 mm 0,0 UV-I 0 W/m² 6,4 °C 9,0 °C 0,0 km/h (0 Bft)
01.05.2018 21:00 9,0 °C 83 % 1011,3 hPa 0,0 mm 0,0 km/h (0 Bft) NO 50 ° 0 min 0,000 mm 0,0 UV-I 0 W/m² 6,3 °C 9,0 °C 0,0 km/h (0 Bft)
01.05.2018 21:01 8,9 °C 83 % 1011,4 hPa 0,0 mm 0,0 km/h (0 Bft) NO 50 ° 0 min 0,000 mm 0,0 UV-I 0 W/m² 6,2 °C 8,9 °C 0,0 km/h (0 Bft)
01.05.2018 21:02 9,0 °C 83 % 1011,4 hPa 0,0 mm 0,0 km/h (0 Bft) NO 50 ° 0 min 0,000 mm 0,0 UV-I 0 W/m² 6,3 °C 9,0 °C 0,0 km/h (0 Bft)
01.05.2018 21:03 9,0 °C 83 % 1011,4 hPa 0,0 mm 0,0 km/h (0 Bft) NO 50 ° 0 min 0,000 mm 0,0 UV-I 0 W/m² 6,3 °C 9,0 °C 0,0 km/h (0 Bft)
01.05.2018 21:04 9,0 °C 83 % 1011,4 hPa 0,0 mm 0,0 km/h (0 Bft) NO 50 ° 0 min 0,000 mm 0,0 UV-I 0 W/m² 6,3 °C 9,0 °C 0,0 km/h (0 Bft)
01.05.2018 21:05 9,0 °C 83 % 1011,4 hPa 0,0 mm 0,0 km/h (0 Bft) NO 50 ° 0 min 0,000 mm 0,0 UV-I 0 W/m² 6,3 °C 9,0 °C 0,0 km/h (0 Bft)
01.05.2018 21:06 9,0 °C 83 % 1011,4 hPa 0,0 mm 0,0 km/h (0 Bft) NO 50 ° 0 min 0,000 mm 0,0 UV-I 0 W/m² 6,3 °C 9,0 °C 0,0 km/h (0 Bft)
01.05.2018 21:07 9,0 °C 83 % 1011,4 hPa 0,0 mm 0,0 km/h (0 Bft) NO 50 ° 0 min 0,000 mm 0,0 UV-I 0 W/m² 6,3 °C 9,0 °C 0,0 km/h (0 Bft)
01.05.2018 21:08 9,0 °C 83 % 1011,4 hPa 0,0 mm 0,0 km/h (0 Bft) NO 50 ° 0 min 0,000 mm 0,0 UV-I 0 W/m² 6,3 °C 9,0 °C 0,0 km/h (0 Bft)
01.05.2018 21:09 9,0 °C 84 % 1011,4 hPa 0,0 mm 0,0 km/h (0 Bft) NO 50 ° 0 min 0,000 mm 0,0 UV-I 0 W/m² 6,4 °C 9,0 °C 0,0 km/h (0 Bft)
01.05.2018 21:10 8,9 °C 84 % 1011,4 hPa 0,0 mm 0,0 km/h (0 Bft) NO 50 ° 0 min 0,000 mm 0,0 UV-I 0 W/m² 6,3 °C 8,9 °C 0,0 km/h (0 Bft)
01.05.2018 21:11 8,9 °C 84 % 1011,4 hPa 0,0 mm 0,0 km/h (0 Bft) NO 50 ° 0 min 0,000 mm 0,0 UV-I 0 W/m² 6,3 °C 8,9 °C 0,0 km/h (0 Bft)
01.05.2018 21:12 8,9 °C 84 % 1011,4 hPa 0,0 mm 0,0 km/h (0 Bft) NO 50 ° 0 min 0,000 mm 0,0 UV-I 0 W/m² 6,3 °C 8,9 °C 0,0 km/h (0 Bft)
01.05.2018 21:13 8,9 °C 84 % 1011,4 hPa 0,0 mm 0,0 km/h (0 Bft) NO 50 ° 0 min 0,000 mm 0,0 UV-I 0 W/m² 6,3 °C 8,9 °C 0,0 km/h (0 Bft)
01.05.2018 21:14 8,8 °C 84 % 1011,4 hPa 0,0 mm 0,0 km/h (0 Bft) NO 50 ° 0 min 0,000 mm 0,0 UV-I 0 W/m² 6,2 °C 8,8 °C 0,0 km/h (0 Bft)
01.05.2018 21:15 8,8 °C 84 % 1011,4 hPa 0,0 mm 0,0 km/h (0 Bft) NO 50 ° 0 min 0,000 mm 0,0 UV-I 0 W/m² 6,2 °C 8,8 °C 0,0 km/h (0 Bft)
01.05.2018 21:16 8,8 °C 84 % 1011,4 hPa 0,0 mm 0,0 km/h (0 Bft) NO 50 ° 0 min 0,000 mm 0,0 UV-I 0 W/m² 6,2 °C 8,8 °C 0,0 km/h (0 Bft)
01.05.2018 21:17 8,8 °C 84 % 1011,4 hPa 0,0 mm 0,0 km/h (0 Bft) NO 50 ° 0 min 0,000 mm 0,0 UV-I 0 W/m² 6,2 °C 8,8 °C 0,0 km/h (0 Bft)
01.05.2018 21:18 8,8 °C 85 % 1011,4 hPa 0,0 mm 0,0 km/h (0 Bft) NO 50 ° 0 min 0,000 mm 0,0 UV-I 0 W/m² 6,4 °C 8,8 °C 0,0 km/h (0 Bft)
01.05.2018 21:19 8,8 °C 85 % 1011,4 hPa 0,0 mm 0,0 km/h (0 Bft) NO 50 ° 0 min 0,000 mm 0,0 UV-I 0 W/m² 6,4 °C 8,8 °C 0,0 km/h (0 Bft)
01.05.2018 21:20 8,8 °C 85 % 1011,4 hPa 0,0 mm 0,0 km/h (0 Bft) NO 50 ° 0 min 0,000 mm 0,0 UV-I 0 W/m² 6,4 °C 8,8 °C 0,0 km/h (0 Bft)
01.05.2018 21:21 8,8 °C 85 % 1011,4 hPa 0,0 mm 0,0 km/h (0 Bft) NO 50 ° 0 min 0,000 mm 0,0 UV-I 0 W/m² 6,4 °C 8,8 °C 0,0 km/h (0 Bft)
01.05.2018 21:22 8,7 °C 85 % 1011,4 hPa 0,0 mm 0,0 km/h (0 Bft) NO 50 ° 0 min 0,000 mm 0,0 UV-I 0 W/m² 6,3 °C 8,7 °C 0,0 km/h (0 Bft)
01.05.2018 21:23 8,7 °C 85 % 1011,4 hPa 0,0 mm 0,0 km/h (0 Bft) NO 50 ° 0 min 0,000 mm 0,0 UV-I 0 W/m² 6,3 °C 8,7 °C 0,0 km/h (0 Bft)
01.05.2018 21:24 8,8 °C 85 % 1011,4 hPa 0,0 mm 0,0 km/h (0 Bft) NO 50 ° 0 min 0,000 mm 0,0 UV-I 0 W/m² 6,4 °C 8,8 °C 0,0 km/h (0 Bft)
01.05.2018 21:25 8,8 °C 85 % 1011,4 hPa 0,0 mm 0,0 km/h (0 Bft) NO 50 ° 0 min 0,000 mm 0,0 UV-I 0 W/m² 6,4 °C 8,8 °C 0,0 km/h (0 Bft)
01.05.2018 21:26 8,8 °C 84 % 1011,4 hPa 0,0 mm 0,0 km/h (0 Bft) NO 50 ° 0 min 0,000 mm 0,0 UV-I 0 W/m² 6,2 °C 8,8 °C 0,0 km/h (0 Bft)
01.05.2018 21:27 8,8 °C 84 % 1011,4 hPa 0,0 mm 0,0 km/h (0 Bft) NO 50 ° 0 min 0,000 mm 0,0 UV-I 0 W/m² 6,2 °C 8,8 °C 0,0 km/h (0 Bft)
01.05.2018 21:28 8,8 °C 85 % 1011,3 hPa 0,0 mm 0,0 km/h (0 Bft) NO 50 ° 0 min 0,000 mm 0,0 UV-I 0 W/m² 6,4 °C 8,8 °C 0,0 km/h (0 Bft)
01.05.2018 21:29 8,8 °C 85 % 1011,4 hPa 0,0 mm 0,0 km/h (0 Bft) NO 50 ° 0 min 0,000 mm 0,0 UV-I 0 W/m² 6,4 °C 8,8 °C 0,0 km/h (0 Bft)
01.05.2018 21:30 8,8 °C 85 % 1011,4 hPa 0,0 mm 0,0 km/h (0 Bft) NO 50 ° 0 min 0,000 mm 0,0 UV-I 0 W/m² 6,4 °C 8,8 °C 0,0 km/h (0 Bft)
01.05.2018 21:31 8,8 °C 84 % 1011,4 hPa 0,0 mm 0,0 km/h (0 Bft) NO 50 ° 0 min 0,000 mm 0,0 UV-I 0 W/m² 6,2 °C 8,8 °C 0,0 km/h (0 Bft)
01.05.2018 21:32 8,8 °C 85 % 1011,4 hPa 0,0 mm 0,0 km/h (0 Bft) NO 50 ° 0 min 0,000 mm 0,0 UV-I 0 W/m² 6,4 °C 8,8 °C 0,0 km/h (0 Bft)
01.05.2018 21:33 8,8 °C 85 % 1011,4 hPa 0,0 mm 0,0 km/h (0 Bft) NO 50 ° 0 min 0,000 mm 0,0 UV-I 0 W/m² 6,4 °C 8,8 °C 0,0 km/h (0 Bft)
01.05.2018 21:34 8,8 °C 84 % 1011,4 hPa 0,0 mm 0,0 km/h (0 Bft) NO 50 ° 0 min 0,000 mm 0,0 UV-I 0 W/m² 6,2 °C 8,8 °C 0,0 km/h (0 Bft)
01.05.2018 21:35 8,8 °C 84 % 1011,4 hPa 0,0 mm 0,0 km/h (0 Bft) NO 50 ° 0 min 0,000 mm 0,0 UV-I 0 W/m² 6,2 °C 8,8 °C 0,0 km/h (0 Bft)
01.05.2018 21:36 8,8 °C 84 % 1011,4 hPa 0,0 mm 0,0 km/h (0 Bft) NO 50 ° 0 min 0,000 mm 0,0 UV-I 0 W/m² 6,2 °C 8,8 °C 0,0 km/h (0 Bft)
01.05.2018 21:37 8,8 °C 84 % 1011,4 hPa 0,0 mm 0,0 km/h (0 Bft) NO 50 ° 0 min 0,000 mm 0,0 UV-I 0 W/m² 6,2 °C 8,8 °C 0,0 km/h (0 Bft)
01.05.2018 21:38 8,8 °C 84 % 1011,4 hPa 0,0 mm 0,0 km/h (0 Bft) NO 50 ° 0 min 0,000 mm 0,0 UV-I 0 W/m² 6,2 °C 8,8 °C 0,0 km/h (0 Bft)
01.05.2018 21:39 8,8 °C 85 % 1011,4 hPa 0,0 mm 0,0 km/h (0 Bft) NO 50 ° 0 min 0,000 mm 0,0 UV-I 0 W/m² 6,4 °C 8,8 °C 0,0 km/h (0 Bft)
01.05.2018 21:40 8,8 °C 85 % 1011,4 hPa 0,0 mm 0,0 km/h (0 Bft) NO 50 ° 0 min 0,000 mm 0,0 UV-I 0 W/m² 6,4 °C 8,8 °C 0,0 km/h (0 Bft)
01.05.2018 21:41 8,8 °C 85 % 1011,4 hPa 0,0 mm 0,0 km/h (0 Bft) NO 50 ° 0 min 0,000 mm 0,0 UV-I 0 W/m² 6,4 °C 8,8 °C 0,0 km/h (0 Bft)
01.05.2018 21:42 8,8 °C 85 % 1011,4 hPa 0,0 mm 0,0 km/h (0 Bft) NO 50 ° 0 min 0,000 mm 0,0 UV-I 0 W/m² 6,4 °C 8,8 °C 0,0 km/h (0 Bft)
01.05.2018 21:43 8,8 °C 85 % 1011,4 hPa 0,0 mm 0,0 km/h (0 Bft) NO 50 ° 0 min 0,000 mm 0,0 UV-I 0 W/m² 6,4 °C 8,8 °C 0,0 km/h (0 Bft)
01.05.2018 21:44 8,8 °C 85 % 1011,4 hPa 0,0 mm 0,0 km/h (0 Bft) NO 50 ° 0 min 0,000 mm 0,0 UV-I 0 W/m² 6,4 °C 8,8 °C 0,0 km/h (0 Bft)
01.05.2018 21:45 8,8 °C 85 % 1011,4 hPa 0,0 mm 0,0 km/h (0 Bft) NO 50 ° 0 min 0,000 mm 0,0 UV-I 0 W/m² 6,4 °C 8,8 °C 0,0 km/h (0 Bft)
01.05.2018 21:46 8,8 °C 84 % 1011,4 hPa 0,0 mm 0,0 km/h (0 Bft) NO 50 ° 0 min 0,000 mm 0,0 UV-I 0 W/m² 6,2 °C 8,8 °C 0,0 km/h (0 Bft)
01.05.2018 21:47 8,8 °C 84 % 1011,4 hPa 0,0 mm 0,0 km/h (0 Bft) NO 50 ° 0 min 0,000 mm 0,0 UV-I 0 W/m² 6,2 °C 8,8 °C 0,0 km/h (0 Bft)
01.05.2018 21:48 8,8 °C 84 % 1011,4 hPa 0,0 mm 0,0 km/h (0 Bft) NO 50 ° 0 min 0,000 mm 0,0 UV-I 0 W/m² 6,2 °C 8,8 °C 0,0 km/h (0 Bft)
01.05.2018 21:49 8,8 °C 84 % 1011,4 hPa 0,0 mm 0,0 km/h (0 Bft) NO 50 ° 0 min 0,000 mm 0,0 UV-I 0 W/m² 6,2 °C 8,8 °C 0,0 km/h (0 Bft)
01.05.2018 21:50 8,8 °C 84 % 1011,4 hPa 0,0 mm 0,0 km/h (0 Bft) NO 50 ° 0 min 0,000 mm 0,0 UV-I 0 W/m² 6,2 °C 8,8 °C 0,0 km/h (0 Bft)
01.05.2018 21:51 8,8 °C 84 % 1011,4 hPa 0,0 mm 0,0 km/h (0 Bft) NO 50 ° 0 min 0,000 mm 0,0 UV-I 0 W/m² 6,2 °C 8,8 °C 0,0 km/h (0 Bft)
01.05.2018 21:52 8,8 °C 84 % 1011,4 hPa 0,0 mm 0,0 km/h (0 Bft) NO 50 ° 0 min 0,000 mm 0,0 UV-I 0 W/m² 6,2 °C 8,8 °C 0,0 km/h (0 Bft)
01.05.2018 21:53 8,8 °C 84 % 1011,4 hPa 0,0 mm 0,0 km/h (0 Bft) NO 50 ° 0 min 0,000 mm 0,0 UV-I 0 W/m² 6,2 °C 8,8 °C 0,0 km/h (0 Bft)
01.05.2018 21:54 8,8 °C 84 % 1011,4 hPa 0,0 mm 0,0 km/h (0 Bft) NO 50 ° 0 min 0,000 mm 0,0 UV-I 0 W/m² 6,2 °C 8,8 °C 0,0 km/h (0 Bft)
01.05.2018 21:55 8,8 °C 85 % 1011,4 hPa 0,0 mm 0,0 km/h (0 Bft) NO 50 ° 0 min 0,000 mm 0,0 UV-I 0 W/m² 6,4 °C 8,8 °C 0,0 km/h (0 Bft)
01.05.2018 21:56 8,8 °C 86 % 1011,4 hPa 0,0 mm 0,0 km/h (0 Bft) NO 50 ° 0 min 0,000 mm 0,0 UV-I 0 W/m² 6,6 °C 8,8 °C 0,0 km/h (0 Bft)
01.05.2018 21:57 8,7 °C 86 % 1011,4 hPa 0,0 mm 0,0 km/h (0 Bft) NO 50 ° 0 min 0,000 mm 0,0 UV-I 0 W/m² 6,5 °C 8,7 °C 0,0 km/h (0 Bft)
01.05.2018 21:58 8,7 °C 86 % 1011,4 hPa 0,0 mm 0,0 km/h (0 Bft) NO 50 ° 0 min 0,000 mm 0,0 UV-I 0 W/m² 6,5 °C 8,7 °C 0,0 km/h (0 Bft)
01.05.2018 21:59 8,7 °C 86 % 1011,4 hPa 0,0 mm 0,0 km/h (0 Bft) NO 50 ° 0 min 0,000 mm 0,0 UV-I 0 W/m² 6,5 °C 8,7 °C 0,0 km/h (0 Bft)
01.05.2018 22:00 8,7 °C 86 % 1011,4 hPa 0,0 mm 0,0 km/h (0 Bft) NO 50 ° 0 min 0,000 mm 0,0 UV-I 0 W/m² 6,5 °C 8,7 °C 0,0 km/h (0 Bft)
01.05.2018 22:01 8,6 °C 85 % 1011,4 hPa 0,0 mm 0,0 km/h (0 Bft) NO 50 ° 0 min 0,000 mm 0,0 UV-I 0 W/m² 6,2 °C 8,6 °C 0,0 km/h (0 Bft)
01.05.2018 22:02 8,7 °C 85 % 1011,4 hPa 0,0 mm 0,0 km/h (0 Bft) NO 50 ° 0 min 0,000 mm 0,0 UV-I 0 W/m² 6,3 °C 8,7 °C 0,0 km/h (0 Bft)
01.05.2018 22:03 8,7 °C 85 % 1011,4 hPa 0,0 mm 0,0 km/h (0 Bft) NO 50 ° 0 min 0,000 mm 0,0 UV-I 0 W/m² 6,3 °C 8,7 °C 0,0 km/h (0 Bft)
01.05.2018 22:04 8,7 °C 85 % 1011,4 hPa 0,0 mm 0,0 km/h (0 Bft) NO 50 ° 0 min 0,000 mm 0,0 UV-I 0 W/m² 6,3 °C 8,7 °C 0,0 km/h (0 Bft)
01.05.2018 22:05 8,7 °C 85 % 1011,4 hPa 0,0 mm 0,0 km/h (0 Bft) NO 50 ° 0 min 0,000 mm 0,0 UV-I 0 W/m² 6,3 °C 8,7 °C 0,0 km/h (0 Bft)
01.05.2018 22:06 8,7 °C 85 % 1011,4 hPa 0,0 mm 0,0 km/h (0 Bft) NO 50 ° 0 min 0,000 mm 0,0 UV-I 0 W/m² 6,3 °C 8,7 °C 0,0 km/h (0 Bft)
01.05.2018 22:07 8,7 °C 85 % 1011,4 hPa 0,0 mm 0,0 km/h (0 Bft) NO 50 ° 0 min 0,000 mm 0,0 UV-I 0 W/m² 6,3 °C 8,7 °C 0,0 km/h (0 Bft)
01.05.2018 22:08 8,7 °C 85 % 1011,4 hPa 0,0 mm 0,0 km/h (0 Bft) NO 50 ° 0 min 0,000 mm 0,0 UV-I 0 W/m² 6,3 °C 8,7 °C 0,0 km/h (0 Bft)
01.05.2018 22:09 8,7 °C 85 % 1011,4 hPa 0,0 mm 0,0 km/h (0 Bft) NO 50 ° 0 min 0,000 mm 0,0 UV-I 0 W/m² 6,3 °C 8,7 °C 0,0 km/h (0 Bft)
01.05.2018 22:10 8,7 °C 85 % 1011,4 hPa 0,0 mm 0,0 km/h (0 Bft) NO 50 ° 0 min 0,000 mm 0,0 UV-I 0 W/m² 6,3 °C 8,7 °C 0,0 km/h (0 Bft)
01.05.2018 22:11 8,7 °C 85 % 1011,4 hPa 0,0 mm 0,0 km/h (0 Bft) NO 50 ° 0 min 0,000 mm 0,0 UV-I 0 W/m² 6,3 °C 8,7 °C 0,0 km/h (0 Bft)
01.05.2018 22:12 8,7 °C 85 % 1011,4 hPa 0,0 mm 0,0 km/h (0 Bft) NO 50 ° 0 min 0,000 mm 0,0 UV-I 0 W/m² 6,3 °C 8,7 °C 0,0 km/h (0 Bft)
01.05.2018 22:13 8,7 °C 85 % 1011,4 hPa 0,0 mm 0,0 km/h (0 Bft) NO 50 ° 0 min 0,000 mm 0,0 UV-I 0 W/m² 6,3 °C 8,7 °C 0,0 km/h (0 Bft)
01.05.2018 22:14 8,7 °C 85 % 1011,4 hPa 0,0 mm 0,0 km/h (0 Bft) NO 50 ° 0 min 0,000 mm 0,0 UV-I 0 W/m² 6,3 °C 8,7 °C 0,0 km/h (0 Bft)
01.05.2018 22:15 8,7 °C 85 % 1011,4 hPa 0,0 mm 0,0 km/h (0 Bft) NO 50 ° 0 min 0,000 mm 0,0 UV-I 0 W/m² 6,3 °C 8,7 °C 0,0 km/h (0 Bft)
01.05.2018 22:16 8,7 °C 85 % 1011,4 hPa 0,0 mm 0,0 km/h (0 Bft) NO 50 ° 0 min 0,000 mm 0,0 UV-I 0 W/m² 6,3 °C 8,7 °C 0,0 km/h (0 Bft)
01.05.2018 22:17 8,7 °C 85 % 1011,4 hPa 0,0 mm 0,0 km/h (0 Bft) NO 50 ° 0 min 0,000 mm 0,0 UV-I 0 W/m² 6,3 °C 8,7 °C 0,0 km/h (0 Bft)
01.05.2018 22:18 8,7 °C 86 % 1011,4 hPa 0,0 mm 1,2 km/h (1 Bft) NO 50 ° 0 min 0,000 mm 0,0 UV-I 0 W/m² 6,5 °C 8,7 °C 1,6 km/h (1 Bft)
01.05.2018 22:19 8,7 °C 86 % 1011,4 hPa 0,0 mm 1,1 km/h (1 Bft) NO 50 ° 0 min 0,000 mm 0,0 UV-I 0 W/m² 6,5 °C 8,7 °C 1,6 km/h (1 Bft)
01.05.2018 22:20 8,7 °C 86 % 1011,4 hPa 0,0 mm 0,3 km/h (0 Bft) NO 50 ° 0 min 0,000 mm 0,0 UV-I 0 W/m² 6,5 °C 8,7 °C 1,6 km/h (1 Bft)
01.05.2018 22:21 8,7 °C 85 % 1011,4 hPa 0,0 mm 0,5 km/h (0 Bft) NO 50 ° 0 min 0,000 mm 0,0 UV-I 0 W/m² 6,3 °C 8,7 °C 1,6 km/h (1 Bft)
01.05.2018 22:22 8,7 °C 86 % 1011,4 hPa 0,0 mm 0,1 km/h (0 Bft) NO 50 ° 0 min 0,000 mm 0,0 UV-I 0 W/m² 6,5 °C 8,7 °C 1,6 km/h (1 Bft)
01.05.2018 22:23 8,7 °C 86 % 1011,4 hPa 0,0 mm 0,0 km/h (0 Bft) NO 50 ° 0 min 0,000 mm 0,0 UV-I 0 W/m² 6,5 °C 8,7 °C 0,0 km/h (0 Bft)
01.05.2018 22:24 8,7 °C 86 % 1011,4 hPa 0,0 mm 0,0 km/h (0 Bft) NO 50 ° 0 min 0,000 mm 0,0 UV-I 0 W/m² 6,5 °C 8,7 °C 0,0 km/h (0 Bft)
01.05.2018 22:25 8,6 °C 86 % 1011,5 hPa 0,0 mm 0,0 km/h (0 Bft) NO 50 ° 0 min 0,000 mm 0,0 UV-I 0 W/m² 6,4 °C 8,6 °C 0,0 km/h (0 Bft)
01.05.2018 22:26 8,6 °C 86 % 1011,5 hPa 0,0 mm 0,0 km/h (0 Bft) NO 50 ° 0 min 0,000 mm 0,0 UV-I 0 W/m² 6,4 °C 8,6 °C 0,0 km/h (0 Bft)
01.05.2018 22:27 8,6 °C 86 % 1011,5 hPa 0,0 mm 0,0 km/h (0 Bft) NO 50 ° 0 min 0,000 mm 0,0 UV-I 0 W/m² 6,4 °C 8,6 °C 0,0 km/h (0 Bft)
01.05.2018 22:28 8,6 °C 86 % 1011,5 hPa 0,0 mm 0,0 km/h (0 Bft) NO 50 ° 0 min 0,000 mm 0,0 UV-I 0 W/m² 6,4 °C 8,6 °C 0,0 km/h (0 Bft)
01.05.2018 22:29 8,6 °C 86 % 1011,5 hPa 0,0 mm 0,0 km/h (0 Bft) NO 50 ° 0 min 0,000 mm 0,0 UV-I 0 W/m² 6,4 °C 8,6 °C 0,0 km/h (0 Bft)
01.05.2018 22:30 8,5 °C 86 % 1011,5 hPa 0,0 mm 0,0 km/h (0 Bft) NO 50 ° 0 min 0,000 mm 0,0 UV-I 0 W/m² 6,3 °C 8,5 °C 0,0 km/h (0 Bft)
01.05.2018 22:31 8,5 °C 86 % 1011,5 hPa 0,0 mm 0,0 km/h (0 Bft) NO 50 ° 0 min 0,000 mm 0,0 UV-I 0 W/m² 6,3 °C 8,5 °C 0,0 km/h (0 Bft)
01.05.2018 22:32 8,5 °C 86 % 1011,5 hPa 0,0 mm 0,0 km/h (0 Bft) NO 50 ° 0 min 0,000 mm 0,0 UV-I 0 W/m² 6,3 °C 8,5 °C 0,0 km/h (0 Bft)
01.05.2018 22:33 8,6 °C 86 % 1011,4 hPa 0,0 mm 0,0 km/h (0 Bft) NO 50 ° 0 min 0,000 mm 0,0 UV-I 0 W/m² 6,4 °C 8,6 °C 0,0 km/h (0 Bft)
01.05.2018 22:34 8,5 °C 86 % 1011,4 hPa 0,0 mm 0,0 km/h (0 Bft) NO 50 ° 0 min 0,000 mm 0,0 UV-I 0 W/m² 6,3 °C 8,5 °C 0,0 km/h (0 Bft)
01.05.2018 22:35 8,5 °C 86 % 1011,4 hPa 0,0 mm 0,0 km/h (0 Bft) NO 50 ° 0 min 0,000 mm 0,0 UV-I 0 W/m² 6,3 °C 8,5 °C 0,0 km/h (0 Bft)
01.05.2018 22:36 8,6 °C 86 % 1011,4 hPa 0,0 mm 0,0 km/h (0 Bft) NO 50 ° 0 min 0,000 mm 0,0 UV-I 0 W/m² 6,4 °C 8,6 °C 0,0 km/h (0 Bft)
01.05.2018 22:37 8,6 °C 86 % 1011,4 hPa 0,0 mm 0,0 km/h (0 Bft) NO 50 ° 0 min 0,000 mm 0,0 UV-I 0 W/m² 6,4 °C 8,6 °C 0,0 km/h (0 Bft)
01.05.2018 22:38 8,6 °C 86 % 1011,4 hPa 0,0 mm 0,0 km/h (0 Bft) NO 50 ° 0 min 0,000 mm 0,0 UV-I 0 W/m² 6,4 °C 8,6 °C 0,0 km/h (0 Bft)
01.05.2018 22:39 8,6 °C 86 % 1011,4 hPa 0,0 mm 0,0 km/h (0 Bft) NO 50 ° 0 min 0,000 mm 0,0 UV-I 0 W/m² 6,4 °C 8,6 °C 0,0 km/h (0 Bft)
01.05.2018 22:40 8,6 °C 86 % 1011,4 hPa 0,0 mm 0,0 km/h (0 Bft) NO 50 ° 0 min 0,000 mm 0,0 UV-I 0 W/m² 6,4 °C 8,6 °C 0,0 km/h (0 Bft)
01.05.2018 22:41 8,6 °C 86 % 1011,4 hPa 0,0 mm 0,0 km/h (0 Bft) NO 50 ° 0 min 0,000 mm 0,0 UV-I 0 W/m² 6,4 °C 8,6 °C 0,0 km/h (0 Bft)
01.05.2018 22:42 8,6 °C 86 % 1011,4 hPa 0,0 mm 0,0 km/h (0 Bft) NO 50 ° 0 min 0,000 mm 0,0 UV-I 0 W/m² 6,4 °C 8,6 °C 0,0 km/h (0 Bft)
01.05.2018 22:43 8,6 °C 86 % 1011,4 hPa 0,0 mm 0,0 km/h (0 Bft) NO 50 ° 0 min 0,000 mm 0,0 UV-I 0 W/m² 6,4 °C 8,6 °C 0,0 km/h (0 Bft)
01.05.2018 22:44 8,6 °C 86 % 1011,4 hPa 0,0 mm 0,0 km/h (0 Bft) NO 50 ° 0 min 0,000 mm 0,0 UV-I 0 W/m² 6,4 °C 8,6 °C 0,0 km/h (0 Bft)
01.05.2018 22:45 8,6 °C 86 % 1011,4 hPa 0,0 mm 0,0 km/h (0 Bft) NO 50 ° 0 min 0,000 mm 0,0 UV-I 0 W/m² 6,4 °C 8,6 °C 0,0 km/h (0 Bft)
01.05.2018 22:46 8,6 °C 85 % 1011,4 hPa 0,0 mm 0,0 km/h (0 Bft) NO 50 ° 0 min 0,000 mm 0,0 UV-I 0 W/m² 6,2 °C 8,6 °C 0,0 km/h (0 Bft)
01.05.2018 22:47 8,6 °C 86 % 1011,4 hPa 0,0 mm 0,0 km/h (0 Bft) NO 50 ° 0 min 0,000 mm 0,0 UV-I 0 W/m² 6,4 °C 8,6 °C 0,0 km/h (0 Bft)
01.05.2018 22:48 8,6 °C 85 % 1011,3 hPa 0,0 mm 0,0 km/h (0 Bft) NO 50 ° 0 min 0,000 mm 0,0 UV-I 0 W/m² 6,2 °C 8,6 °C 0,0 km/h (0 Bft)
01.05.2018 22:49 8,6 °C 85 % 1011,4 hPa 0,0 mm 0,0 km/h (0 Bft) NO 50 ° 0 min 0,000 mm 0,0 UV-I 0 W/m² 6,2 °C 8,6 °C 0,0 km/h (0 Bft)
01.05.2018 22:50 8,6 °C 85 % 1011,4 hPa 0,0 mm 0,0 km/h (0 Bft) NO 50 ° 0 min 0,000 mm 0,0 UV-I 0 W/m² 6,2 °C 8,6 °C 0,0 km/h (0 Bft)
01.05.2018 22:51 8,6 °C 85 % 1011,4 hPa 0,0 mm 0,0 km/h (0 Bft) NO 50 ° 0 min 0,000 mm 0,0 UV-I 0 W/m² 6,2 °C 8,6 °C 0,0 km/h (0 Bft)
01.05.2018 22:52 8,6 °C 85 % 1011,4 hPa 0,0 mm 0,0 km/h (0 Bft) NO 50 ° 0 min 0,000 mm 0,0 UV-I 0 W/m² 6,2 °C 8,6 °C 0,0 km/h (0 Bft)
01.05.2018 22:53 8,6 °C 86 % 1011,4 hPa 0,0 mm 0,0 km/h (0 Bft) NO 50 ° 0 min 0,000 mm 0,0 UV-I 0 W/m² 6,4 °C 8,6 °C 0,0 km/h (0 Bft)
01.05.2018 22:54 8,6 °C 86 % 1011,4 hPa 0,0 mm 0,0 km/h (0 Bft) NO 50 ° 0 min 0,000 mm 0,0 UV-I 0 W/m² 6,4 °C 8,6 °C 0,0 km/h (0 Bft)
01.05.2018 22:55 8,6 °C 86 % 1011,4 hPa 0,0 mm 0,0 km/h (0 Bft) NO 50 ° 0 min 0,000 mm 0,0 UV-I 0 W/m² 6,4 °C 8,6 °C 0,0 km/h (0 Bft)
01.05.2018 22:56 8,5 °C 86 % 1011,4 hPa 0,0 mm 0,0 km/h (0 Bft) NO 50 ° 0 min 0,000 mm 0,0 UV-I 0 W/m² 6,3 °C 8,5 °C 0,0 km/h (0 Bft)
01.05.2018 22:57 8,5 °C 86 % 1011,3 hPa 0,0 mm 0,0 km/h (0 Bft) NO 50 ° 0 min 0,000 mm 0,0 UV-I 0 W/m² 6,3 °C 8,5 °C 0,0 km/h (0 Bft)
01.05.2018 22:58 8,4 °C 86 % 1011,4 hPa 0,0 mm 0,0 km/h (0 Bft) NO 50 ° 0 min 0,000 mm 0,0 UV-I 0 W/m² 6,2 °C 8,4 °C 0,0 km/h (0 Bft)
01.05.2018 22:59 8,4 °C 86 % 1011,3 hPa 0,0 mm 0,0 km/h (0 Bft) NO 50 ° 0 min 0,000 mm 0,0 UV-I 0 W/m² 6,2 °C 8,4 °C 0,0 km/h (0 Bft)
01.05.2018 23:00 8,5 °C 86 % 1011,3 hPa 0,0 mm 0,0 km/h (0 Bft) NO 50 ° 0 min 0,000 mm 0,0 UV-I 0 W/m² 6,3 °C 8,5 °C 0,0 km/h (0 Bft)
01.05.2018 23:01 8,4 °C 86 % 1011,3 hPa 0,0 mm 0,0 km/h (0 Bft) NO 50 ° 0 min 0,000 mm 0,0 UV-I 0 W/m² 6,2 °C 8,4 °C 0,0 km/h (0 Bft)
01.05.2018 23:02 8,5 °C 87 % 1011,3 hPa 0,0 mm 0,0 km/h (0 Bft) NO 50 ° 0 min 0,000 mm 0,0 UV-I 0 W/m² 6,5 °C 8,5 °C 0,0 km/h (0 Bft)
01.05.2018 23:03 8,4 °C 87 % 1011,3 hPa 0,0 mm 0,0 km/h (0 Bft) NO 50 ° 0 min 0,000 mm 0,0 UV-I 0 W/m² 6,4 °C 8,4 °C 0,0 km/h (0 Bft)
01.05.2018 23:04 8,4 °C 87 % 1011,3 hPa 0,0 mm 0,0 km/h (0 Bft) NO 50 ° 0 min 0,000 mm 0,0 UV-I 0 W/m² 6,4 °C 8,4 °C 0,0 km/h (0 Bft)
01.05.2018 23:05 8,4 °C 87 % 1011,3 hPa 0,0 mm 0,0 km/h (0 Bft) NO 50 ° 0 min 0,000 mm 0,0 UV-I 0 W/m² 6,4 °C 8,4 °C 0,0 km/h (0 Bft)
01.05.2018 23:06 8,4 °C 87 % 1011,3 hPa 0,0 mm 0,0 km/h (0 Bft) NO 50 ° 0 min 0,000 mm 0,0 UV-I 0 W/m² 6,4 °C 8,4 °C 0,0 km/h (0 Bft)
01.05.2018 23:07 8,5 °C 86 % 1011,4 hPa 0,0 mm 0,0 km/h (0 Bft) NO 50 ° 0 min 0,000 mm 0,0 UV-I 0 W/m² 6,3 °C 8,5 °C 0,0 km/h (0 Bft)
01.05.2018 23:08 8,5 °C 86 % 1011,3 hPa 0,0 mm 0,0 km/h (0 Bft) NO 50 ° 0 min 0,000 mm 0,0 UV-I 0 W/m² 6,3 °C 8,5 °C 0,0 km/h (0 Bft)
01.05.2018 23:09 8,5 °C 86 % 1011,4 hPa 0,0 mm 0,0 km/h (0 Bft) NO 50 ° 0 min 0,000 mm 0,0 UV-I 0 W/m² 6,3 °C 8,5 °C 0,0 km/h (0 Bft)
01.05.2018 23:10 8,5 °C 86 % 1011,4 hPa 0,0 mm 0,0 km/h (0 Bft) NO 50 ° 0 min 0,000 mm 0,0 UV-I 0 W/m² 6,3 °C 8,5 °C 0,0 km/h (0 Bft)
01.05.2018 23:11 8,5 °C 86 % 1011,4 hPa 0,0 mm 0,0 km/h (0 Bft) NO 50 ° 0 min 0,000 mm 0,0 UV-I 0 W/m² 6,3 °C 8,5 °C 0,0 km/h (0 Bft)
01.05.2018 23:12 8,6 °C 86 % 1011,4 hPa 0,0 mm 0,0 km/h (0 Bft) NO 50 ° 0 min 0,000 mm 0,0 UV-I 0 W/m² 6,4 °C 8,6 °C 0,0 km/h (0 Bft)
01.05.2018 23:13 8,5 °C 86 % 1011,4 hPa 0,0 mm 0,0 km/h (0 Bft) NO 50 ° 0 min 0,000 mm 0,0 UV-I 0 W/m² 6,3 °C 8,5 °C 0,0 km/h (0 Bft)
01.05.2018 23:14 8,5 °C 87 % 1011,5 hPa 0,0 mm 0,0 km/h (0 Bft) NO 50 ° 0 min 0,000 mm 0,0 UV-I 0 W/m² 6,5 °C 8,5 °C 0,0 km/h (0 Bft)
01.05.2018 23:15 8,5 °C 87 % 1011,5 hPa 0,0 mm 0,0 km/h (0 Bft) NO 50 ° 0 min 0,000 mm 0,0 UV-I 0 W/m² 6,5 °C 8,5 °C 0,0 km/h (0 Bft)
01.05.2018 23:16 8,5 °C 87 % 1011,5 hPa 0,0 mm 0,0 km/h (0 Bft) NO 50 ° 0 min 0,000 mm 0,0 UV-I 0 W/m² 6,5 °C 8,5 °C 0,0 km/h (0 Bft)
01.05.2018 23:17 8,4 °C 87 % 1011,4 hPa 0,0 mm 0,0 km/h (0 Bft) NO 50 ° 0 min 0,000 mm 0,0 UV-I 0 W/m² 6,4 °C 8,4 °C 0,0 km/h (0 Bft)
01.05.2018 23:18 8,4 °C 87 % 1011,4 hPa 0,0 mm 0,0 km/h (0 Bft) NO 50 ° 0 min 0,000 mm 0,0 UV-I 0 W/m² 6,4 °C 8,4 °C 0,0 km/h (0 Bft)
01.05.2018 23:19 8,4 °C 87 % 1011,4 hPa 0,0 mm 0,0 km/h (0 Bft) NO 50 ° 0 min 0,000 mm 0,0 UV-I 0 W/m² 6,4 °C 8,4 °C 0,0 km/h (0 Bft)
01.05.2018 23:20 8,4 °C 87 % 1011,4 hPa 0,0 mm 0,0 km/h (0 Bft) NO 50 ° 0 min 0,000 mm 0,0 UV-I 0 W/m² 6,4 °C 8,4 °C 0,0 km/h (0 Bft)
01.05.2018 23:21 8,4 °C 87 % 1011,4 hPa 0,0 mm 0,0 km/h (0 Bft) NO 50 ° 0 min 0,000 mm 0,0 UV-I 0 W/m² 6,4 °C 8,4 °C 0,0 km/h (0 Bft)
01.05.2018 23:22 8,4 °C 86 % 1011,4 hPa 0,0 mm 0,0 km/h (0 Bft) NO 50 ° 0 min 0,000 mm 0,0 UV-I 0 W/m² 6,2 °C 8,4 °C 0,0 km/h (0 Bft)
01.05.2018 23:23 8,4 °C 86 % 1011,4 hPa 0,0 mm 0,0 km/h (0 Bft) NO 50 ° 0 min 0,000 mm 0,0 UV-I 0 W/m² 6,2 °C 8,4 °C 0,0 km/h (0 Bft)
01.05.2018 23:24 8,4 °C 87 % 1011,4 hPa 0,0 mm 0,0 km/h (0 Bft) NO 50 ° 0 min 0,000 mm 0,0 UV-I 0 W/m² 6,4 °C 8,4 °C 0,0 km/h (0 Bft)
01.05.2018 23:25 8,4 °C 87 % 1011,4 hPa 0,0 mm 0,0 km/h (0 Bft) NO 50 ° 0 min 0,000 mm 0,0 UV-I 0 W/m² 6,4 °C 8,4 °C 0,0 km/h (0 Bft)
01.05.2018 23:26 8,4 °C 87 % 1011,4 hPa 0,0 mm 0,0 km/h (0 Bft) NO 50 ° 0 min 0,000 mm 0,0 UV-I 0 W/m² 6,4 °C 8,4 °C 0,0 km/h (0 Bft)
01.05.2018 23:27 8,4 °C 87 % 1011,4 hPa 0,0 mm 0,0 km/h (0 Bft) NO 50 ° 0 min 0,000 mm 0,0 UV-I 0 W/m² 6,4 °C 8,4 °C 0,0 km/h (0 Bft)
01.05.2018 23:28 8,4 °C 87 % 1011,4 hPa 0,0 mm 0,0 km/h (0 Bft) NO 50 ° 0 min 0,000 mm 0,0 UV-I 0 W/m² 6,4 °C 8,4 °C 0,0 km/h (0 Bft)
01.05.2018 23:29 8,4 °C 87 % 1011,4 hPa 0,0 mm 0,0 km/h (0 Bft) NO 50 ° 0 min 0,000 mm 0,0 UV-I 0 W/m² 6,4 °C 8,4 °C 0,0 km/h (0 Bft)
01.05.2018 23:30 8,4 °C 87 % 1011,4 hPa 0,0 mm 0,0 km/h (0 Bft) NO 50 ° 0 min 0,000 mm 0,0 UV-I 0 W/m² 6,4 °C 8,4 °C 0,0 km/h (0 Bft)
01.05.2018 23:31 8,4 °C 88 % 1011,4 hPa 0,0 mm 0,0 km/h (0 Bft) NO 50 ° 0 min 0,000 mm 0,0 UV-I 0 W/m² 6,5 °C 8,4 °C 0,0 km/h (0 Bft)
01.05.2018 23:32 8,4 °C 88 % 1011,4 hPa 0,0 mm 0,0 km/h (0 Bft) NO 50 ° 0 min 0,000 mm 0,0 UV-I 0 W/m² 6,5 °C 8,4 °C 0,0 km/h (0 Bft)
01.05.2018 23:33 8,4 °C 88 % 1011,4 hPa 0,0 mm 0,0 km/h (0 Bft) NO 50 ° 0 min 0,000 mm 0,0 UV-I 0 W/m² 6,5 °C 8,4 °C 0,0 km/h (0 Bft)
01.05.2018 23:34 8,3 °C 88 % 1011,3 hPa 0,0 mm 0,0 km/h (0 Bft) NO 50 ° 0 min 0,000 mm 0,0 UV-I 0 W/m² 6,4 °C 8,3 °C 0,0 km/h (0 Bft)
01.05.2018 23:35 8,3 °C 88 % 1011,3 hPa 0,0 mm 0,0 km/h (0 Bft) NO 50 ° 0 min 0,000 mm 0,0 UV-I 0 W/m² 6,4 °C 8,3 °C 0,0 km/h (0 Bft)
01.05.2018 23:36 8,3 °C 88 % 1011,3 hPa 0,0 mm 0,0 km/h (0 Bft) NO 50 ° 0 min 0,000 mm 0,0 UV-I 0 W/m² 6,4 °C 8,3 °C 0,0 km/h (0 Bft)
01.05.2018 23:37 8,3 °C 88 % 1011,3 hPa 0,0 mm 0,0 km/h (0 Bft) NO 50 ° 0 min 0,000 mm 0,0 UV-I 0 W/m² 6,4 °C 8,3 °C 0,0 km/h (0 Bft)
01.05.2018 23:38 8,3 °C 88 % 1011,3 hPa 0,0 mm 0,0 km/h (0 Bft) NO 50 ° 0 min 0,000 mm 0,0 UV-I 0 W/m² 6,4 °C 8,3 °C 0,0 km/h (0 Bft)
01.05.2018 23:39 8,3 °C 88 % 1011,3 hPa 0,0 mm 0,0 km/h (0 Bft) NO 50 ° 0 min 0,000 mm 0,0 UV-I 0 W/m² 6,4 °C 8,3 °C 0,0 km/h (0 Bft)
01.05.2018 23:40 8,3 °C 88 % 1011,3 hPa 0,0 mm 0,0 km/h (0 Bft) NO 50 ° 0 min 0,000 mm 0,0 UV-I 0 W/m² 6,4 °C 8,3 °C 0,0 km/h (0 Bft)
01.05.2018 23:41 8,3 °C 88 % 1011,3 hPa 0,0 mm 0,0 km/h (0 Bft) NO 50 ° 0 min 0,000 mm 0,0 UV-I 0 W/m² 6,4 °C 8,3 °C 0,0 km/h (0 Bft)
01.05.2018 23:42 8,3 °C 88 % 1011,3 hPa 0,0 mm 0,0 km/h (0 Bft) NO 50 ° 0 min 0,000 mm 0,0 UV-I 0 W/m² 6,4 °C 8,3 °C 0,0 km/h (0 Bft)
01.05.2018 23:43 8,4 °C 88 % 1011,3 hPa 0,0 mm 0,0 km/h (0 Bft) NO 50 ° 0 min 0,000 mm 0,0 UV-I 0 W/m² 6,5 °C 8,4 °C 0,0 km/h (0 Bft)
01.05.2018 23:44 8,4 °C 88 % 1011,3 hPa 0,0 mm 0,0 km/h (0 Bft) NO 50 ° 0 min 0,000 mm 0,0 UV-I 0 W/m² 6,5 °C 8,4 °C 0,0 km/h (0 Bft)
01.05.2018 23:45 8,4 °C 88 % 1011,3 hPa 0,0 mm 0,0 km/h (0 Bft) NO 50 ° 0 min 0,000 mm 0,0 UV-I 0 W/m² 6,5 °C 8,4 °C 0,0 km/h (0 Bft)
01.05.2018 23:46 8,4 °C 88 % 1011,3 hPa 0,0 mm 0,0 km/h (0 Bft) NO 50 ° 0 min 0,000 mm 0,0 UV-I 0 W/m² 6,5 °C 8,4 °C 0,0 km/h (0 Bft)
01.05.2018 23:47 8,4 °C 87 % 1011,3 hPa 0,0 mm 0,0 km/h (0 Bft) NO 50 ° 0 min 0,000 mm 0,0 UV-I 0 W/m² 6,4 °C 8,4 °C 0,0 km/h (0 Bft)
01.05.2018 23:48 8,4 °C 87 % 1011,2 hPa 0,0 mm 0,0 km/h (0 Bft) NO 50 ° 0 min 0,000 mm 0,0 UV-I 0 W/m² 6,4 °C 8,4 °C 0,0 km/h (0 Bft)
01.05.2018 23:49 8,4 °C 87 % 1011,2 hPa 0,0 mm 0,0 km/h (0 Bft) NO 50 ° 0 min 0,000 mm 0,0 UV-I 0 W/m² 6,4 °C 8,4 °C 0,0 km/h (0 Bft)
01.05.2018 23:50 8,4 °C 87 % 1011,2 hPa 0,0 mm 0,6 km/h (0 Bft) NO 50 ° 0 min 0,000 mm 0,0 UV-I 0 W/m² 6,4 °C 8,4 °C 3,2 km/h (1 Bft)
01.05.2018 23:51 8,4 °C 87 % 1011,3 hPa 0,0 mm 3,6 km/h (1 Bft) NO 50 ° 0 min 0,000 mm 0,0 UV-I 0 W/m² 6,4 °C 8,4 °C 4,8 km/h (1 Bft)
01.05.2018 23:52 8,4 °C 87 % 1011,3 hPa 0,0 mm 3,0 km/h (1 Bft) NO 50 ° 0 min 0,000 mm 0,0 UV-I 0 W/m² 6,4 °C 8,4 °C 3,2 km/h (1 Bft)
01.05.2018 23:53 8,4 °C 87 % 1011,3 hPa 0,0 mm 1,2 km/h (1 Bft) NO 50 ° 0 min 0,000 mm 0,0 UV-I 0 W/m² 6,4 °C 8,4 °C 4,8 km/h (1 Bft)
01.05.2018 23:54 8,5 °C 87 % 1011,3 hPa 0,0 mm 0,2 km/h (0 Bft) NO 50 ° 0 min 0,000 mm 0,0 UV-I 0 W/m² 6,5 °C 8,5 °C 1,6 km/h (1 Bft)
01.05.2018 23:55 8,6 °C 87 % 1011,3 hPa 0,0 mm 0,0 km/h (0 Bft) NO 50 ° 0 min 0,000 mm 0,0 UV-I 0 W/m² 6,6 °C 8,6 °C 0,0 km/h (0 Bft)
01.05.2018 23:56 8,6 °C 86 % 1011,3 hPa 0,0 mm 0,0 km/h (0 Bft) NO 50 ° 0 min 0,000 mm 0,0 UV-I 0 W/m² 6,4 °C 8,6 °C 0,0 km/h (0 Bft)
01.05.2018 23:57 8,6 °C 86 % 1011,3 hPa 0,0 mm 0,0 km/h (0 Bft) NO 50 ° 0 min 0,000 mm 0,0 UV-I 0 W/m² 6,4 °C 8,6 °C 0,0 km/h (0 Bft)
01.05.2018 23:58 8,6 °C 86 % 1011,3 hPa 0,0 mm 0,0 km/h (0 Bft) NO 50 ° 0 min 0,000 mm 0,0 UV-I 0 W/m² 6,4 °C 8,6 °C 0,0 km/h (0 Bft)
01.05.2018 23:59 8,6 °C 87 % 1011,3 hPa 0,0 mm 0,0 km/h (0 Bft) NO 50 ° 0 min 0,000 mm 0,0 UV-I 0 W/m² 6,6 °C 8,6 °C 0,0 km/h (0 Bft)
_ Min-Zeit 06:50 01:07 00:08 - 23:59 - - - - - - 04:20 11:53 23:59
Minimum _ 7,9 °C 66 % 1008,1 hPa - 0,0 km/h (0 Bft) - - - - - - 3,6 °C 6,7 °C 0,0 km/h (0 Bft)
_ Max-Zeit 15:56 23:46 14:32 23:59 11:53 - - 16:00 16:01 15:28 15:21 18:03 15:56 08:23
Maximum _ 11,1 °C 88 % 1011,8 hPa 0,0 mm 10,6 km/h
W (2 Bft)
- - 1 min 0,153 mm 3,3 UV-I 487 W/m² 6,9 °C 11,1 °C 16,1 km/h
W-NW (3 Bft)
Durchschnitt _ 9,1 °C 76 % 1010,2 hPa #0,0 mm 1,5 km/h (1 Bft) W-NW - #1:08 h #1,092 mm 1,3 UV-I 79 W/m² 5,1 °C 9,0 °C 2,6 km/h (1 Bft)